[[{"header":{"parameterUnit":"m.s-1","parameterCategory":1,"la1":30.6,"la2":29.2853,"lo1":-89.7004,"lo2":-87.6739,"dy":0.0162,"dx":0.0183,"nx":112,"ny":82,"refTime":"2024-05-14T12:00:00:Z","depth":0,"parameterNumber":2,"parameterNumberName":"U-component_of_WINDS"},"data":[0.0,0.0,0.0,0.0,0.0,0.0,0.0,0.0,0.0,0.0,0.0,0.0,0.0,0.0,0.0,0.0,0.0,0.0,0.0,0.0,0.0,0.0,0.0,0.0,0.0,0.0,0.0,0.0,0.0,0.0,0.0,0.0,0.0,0.0,0.0,0.0,0.0,0.0,0.0,0.0,0.0,0.0,0.0,0.0,0.0,0.0,0.0,0.0,0.0,0.0,0.0,0.0,0.0,0.0,0.0,0.0,0.0,0.0,0.0,0.0,0.0,0.0,0.0,0.0,0.0,0.0,0.0,0.0,0.0,0.0,0.0,0.0,0.0,0.0,0.0,0.0,0.0,0.0,0.0,0.0,0.0,0.0,0.0,0.0,0.0,0.0,0.0,0.0,0.0,0.0,-3.3164,-3.9141,-4.6016,-4.9844,-4.8984,-4.707,-4.2305,-3.3945,0.0,0.0,0.0,0.0,0.0,0.0,0.0,0.0,0.0,0.0,0.0,0.0,0.0,0.0,0.0,0.0,0.0,0.0,0.0,0.0,0.0,0.0,0.0,0.0,0.0,0.0,0.0,0.0,0.0,0.0,0.0,0.0,0.0,0.0,0.0,0.0,0.0,0.0,0.0,0.0,0.0,0.0,0.0,0.0,0.0,0.0,0.0,0.0,0.0,0.0,0.0,0.0,0.0,0.0,0.0,0.0,0.0,0.0,0.0,0.0,0.0,0.0,0.0,0.0,0.0,0.0,0.0,0.0,0.0,0.0,0.0,0.0,0.0,0.0,0.0,0.0,0.0,0.0,0.0,0.0,0.0,0.0,0.0,0.0,0.0,0.0,0.0,0.0,0.0,0.0,0.0,0.0,0.0,0.0,0.0,0.0,0.0,0.0,0.0,0.0,0.0,0.0,0.0,0.0,-3.457,-4.4101,-4.8164,-4.9844,-4.8984,-4.5937,-4.1055,-3.3867,0.0,0.0,0.0,0.0,0.0,0.0,0.0,0.0,0.0,0.0,0.0,0.0,0.0,0.0,0.0,0.0,0.0,0.0,0.0,0.0,0.0,0.0,0.0,0.0,0.0,0.0,0.0,0.0,0.0,0.0,0.0,0.0,0.0,0.0,0.0,0.0,0.0,0.0,0.0,0.0,0.0,0.0,0.0,0.0,0.0,0.0,0.0,0.0,0.0,0.0,0.0,0.0,0.0,0.0,0.0,0.0,0.0,0.0,0.0,0.0,0.0,0.0,0.0,0.0,0.0,0.0,0.0,0.0,0.0,0.0,0.0,0.0,0.0,0.0,0.0,0.0,0.0,0.0,0.0,0.0,0.0,0.0,0.0,0.0,0.0,0.0,0.0,0.0,0.0,0.0,0.0,0.0,0.0,0.0,0.0,0.0,0.0,0.0,0.0,0.0,0.0,0.0,0.0,-3.3633,-3.8281,-4.4883,-4.793,-4.8945,-4.7617,-4.3906,-3.9101,-3.3125,-2.9453,0.0,0.0,0.0,0.0,0.0,0.0,0.0,0.0,0.0,0.0,0.0,0.0,0.0,0.0,0.0,0.0,0.0,0.0,0.0,0.0,0.0,0.0,0.0,0.0,0.0,0.0,0.0,0.0,0.0,0.0,0.0,0.0,0.0,0.0,0.0,0.0,0.0,0.0,0.0,0.0,0.0,0.0,0.0,0.0,0.0,0.0,0.0,0.0,0.0,0.0,0.0,0.0,0.0,0.0,0.0,0.0,0.0,0.0,0.0,0.0,0.0,0.0,0.0,0.0,0.0,0.0,0.0,0.0,0.0,0.0,0.0,0.0,0.0,0.0,0.0,0.0,0.0,0.0,0.0,0.0,0.0,0.0,0.0,0.0,0.0,0.0,0.0,0.0,0.0,0.0,0.0,0.0,0.0,0.0,0.0,0.0,0.0,0.0,0.0,0.0,0.0,0.0,-3.7695,-4.1367,-4.4375,-4.6836,-4.75,-4.5547,-4.1641,-3.707,-3.1914,-2.75,0.0,0.0,0.0,0.0,0.0,0.0,0.0,0.0,0.0,0.0,0.0,0.0,0.0,0.0,0.0,0.0,0.0,0.0,0.0,0.0,0.0,0.0,0.0,0.0,0.0,0.0,0.0,0.0,0.0,0.0,0.0,0.0,0.0,0.0,0.0,0.0,0.0,0.0,0.0,0.0,0.0,0.0,0.0,0.0,0.0,0.0,0.0,0.0,0.0,0.0,0.0,0.0,0.0,0.0,0.0,0.0,0.0,0.0,0.0,0.0,0.0,0.0,0.0,0.0,0.0,0.0,0.0,0.0,0.0,0.0,0.0,0.0,0.0,0.0,0.0,0.0,0.0,0.0,0.0,0.0,0.0,0.0,0.0,0.0,0.0,0.0,0.0,0.0,0.0,0.0,0.0,0.0,0.0,0.0,0.0,0.0,0.0,0.0,0.0,0.0,0.0,0.0,-3.75,-4.1797,-4.3594,-4.5391,-4.5469,-4.2891,-3.9492,-3.5273,-3.0117,-2.5742,0.0,0.0,0.0,0.0,0.0,0.0,0.0,0.0,0.0,0.0,0.0,0.0,0.0,0.0,0.0,0.0,0.0,0.0,0.0,0.0,0.0,0.0,0.0,0.0,0.0,0.0,0.0,0.0,0.0,0.0,0.0,0.0,0.0,0.0,0.0,0.0,0.0,0.0,0.0,0.0,0.0,0.0,0.0,0.0,0.0,0.0,0.0,0.0,0.0,0.0,0.0,0.0,0.0,0.0,0.0,0.0,0.0,0.0,0.0,0.0,0.0,0.0,0.0,0.0,0.0,0.0,0.0,0.0,0.0,0.0,0.0,0.0,0.0,0.0,0.0,0.0,0.0,0.0,0.0,0.0,0.0,0.0,0.0,0.0,0.0,0.0,0.0,0.0,0.0,0.0,0.0,0.0,0.0,0.0,0.0,0.0,0.0,0.0,0.0,0.0,0.0,0.0,-3.6484,-4.0859,-4.4141,-4.5117,-4.4648,-4.2578,-3.8281,-3.3711,-2.9062,0.0,0.0,0.0,0.0,0.0,0.0,0.0,0.0,0.0,0.0,0.0,0.0,0.0,0.0,0.0,0.0,0.0,0.0,0.0,0.0,0.0,0.0,0.0,0.0,0.0,0.0,0.0,0.0,0.0,0.0,0.0,0.0,0.0,0.0,0.0,0.0,0.0,0.0,0.0,0.0,0.0,0.0,0.0,0.0,0.0,0.0,0.0,0.0,0.0,0.0,0.0,0.0,0.0,0.0,0.0,0.0,0.0,0.0,0.0,0.0,0.0,0.0,0.0,0.0,0.0,0.0,0.0,0.0,0.0,0.0,0.0,0.0,0.0,0.0,0.0,0.0,0.0,0.0,0.0,0.0,0.0,0.0,0.0,0.0,0.0,0.0,0.0,0.0,0.0,0.0,0.0,0.0,0.0,0.0,0.0,0.0,0.0,0.0,0.0,0.0,0.0,0.0,-3.1914,-3.582,-3.9648,0.0,-4.3555,-4.2695,-4.0937,-3.6055,-3.1601,-2.8125,0.0,0.0,0.0,0.0,0.0,0.0,0.0,0.0,0.0,0.0,0.0,0.0,0.0,0.0,0.0,0.0,0.0,0.0,0.0,0.0,0.0,0.0,0.0,0.0,0.0,0.0,0.0,0.0,0.0,0.0,0.0,0.0,0.0,0.0,0.0,0.0,0.0,0.0,0.0,0.0,0.0,0.0,0.0,0.0,0.0,0.0,0.0,0.0,0.0,0.0,0.0,0.0,0.0,0.0,0.0,0.0,0.0,0.0,0.0,0.0,0.0,0.0,0.0,0.0,0.0,0.0,0.0,0.0,0.0,0.0,0.0,0.0,0.0,0.0,0.0,0.0,0.0,0.0,0.0,0.0,0.0,0.0,0.0,0.0,0.0,0.0,0.0,0.0,0.0,0.0,0.0,0.0,0.0,0.0,0.0,0.0,0.0,0.0,0.0,0.0,0.0,0.0,-3.2969,-3.5664,-3.8281,-4.0898,-4.0391,-3.918,-3.7422,-3.2578,-2.8867,0.0,0.0,0.0,0.0,0.0,0.0,0.0,0.0,0.0,0.0,0.0,0.0,0.0,0.0,0.0,0.0,0.0,0.0,0.0,0.0,0.0,0.0,0.0,0.0,0.0,0.0,0.0,0.0,0.0,0.0,0.0,0.0,0.0,0.0,0.0,0.0,0.0,0.0,0.0,0.0,0.0,0.0,0.0,0.0,0.0,0.0,0.0,0.0,0.0,0.0,0.0,0.0,0.0,0.0,0.0,0.0,0.0,0.0,0.0,0.0,0.0,0.0,0.0,0.0,0.0,0.0,0.0,0.0,0.0,0.0,0.0,0.0,0.0,0.0,0.0,0.0,0.0,0.0,0.0,0.0,0.0,0.0,0.0,0.0,0.0,0.0,0.0,0.0,0.0,0.0,0.0,0.0,0.0,0.0,0.0,0.0,0.0,0.0,0.0,0.0,0.0,0.0,0.0,-3.2031,-3.4765,-3.7383,-4.0,-4.0039,-3.8945,-3.6562,-3.2226,-2.8594,-2.621,0.0,0.0,0.0,0.0,0.0,0.0,0.0,0.0,0.0,0.0,0.0,0.0,0.0,0.0,0.0,0.0,0.0,0.0,0.0,0.0,0.0,0.0,0.0,0.0,0.0,0.0,0.0,0.0,0.0,0.0,0.0,0.0,0.0,0.0,0.0,0.0,0.0,0.0,0.0,0.0,0.0,0.0,0.0,0.0,0.0,0.0,0.0,0.0,0.0,0.0,0.0,0.0,0.0,0.0,0.0,0.0,0.0,0.0,0.0,0.0,0.0,0.0,0.0,0.0,0.0,0.0,0.0,0.0,0.0,0.0,0.0,0.0,0.0,0.0,0.0,0.0,0.0,0.0,0.0,0.0,0.0,0.0,0.0,0.0,0.0,0.0,0.0,0.0,0.0,0.0,0.0,0.0,0.0,0.0,0.0,0.0,0.0,0.0,0.0,0.0,0.0,0.0,-3.1719,-3.3789,-3.6094,-3.9062,-3.875,-3.7578,-3.5625,-3.1211,-2.7734,-2.582,0.0,0.0,0.0,0.0,0.0,0.0,0.0,0.0,0.0,0.0,0.0,0.0,0.0,0.0,0.0,0.0,0.0,0.0,0.0,0.0,0.0,0.0,0.0,0.0,0.0,0.0,0.0,0.0,0.0,0.0,0.0,0.0,0.0,0.0,0.0,0.0,0.0,0.0,0.0,0.0,0.0,0.0,0.0,0.0,0.0,0.0,0.0,0.0,0.0,0.0,0.0,0.0,0.0,0.0,0.0,0.0,0.0,0.0,0.0,0.0,0.0,0.0,0.0,0.0,0.0,0.0,0.0,0.0,0.0,0.0,0.0,0.0,0.0,0.0,0.0,0.0,0.0,0.0,0.0,0.0,0.0,0.0,0.0,0.0,0.0,0.0,0.0,0.0,0.0,0.0,0.0,0.0,0.0,0.0,0.0,0.0,0.0,0.0,0.0,0.0,0.0,0.0,-3.1641,-3.2773,-3.4609,-3.8008,-3.6875,-3.5547,-3.4648,-2.9844,-2.6523,-2.5742,0.0,0.0,0.0,0.0,0.0,0.0,0.0,0.0,0.0,0.0,0.0,0.0,0.0,0.0,0.0,0.0,0.0,0.0,0.0,0.0,0.0,0.0,0.0,0.0,0.0,0.0,0.0,0.0,0.0,0.0,0.0,0.0,0.0,0.0,0.0,0.0,0.0,0.0,0.0,0.0,0.0,0.0,0.0,0.0,0.0,0.0,0.0,0.0,0.0,0.0,0.0,0.0,0.0,0.0,0.0,0.0,0.0,0.0,0.0,0.0,-2.7046,0.0,0.0,0.0,0.0,0.0,0.0,0.0,0.0,0.0,0.0,0.0,0.0,0.0,0.0,0.0,0.0,0.0,0.0,0.0,0.0,0.0,0.0,0.0,0.0,0.0,0.0,0.0,0.0,0.0,0.0,0.0,0.0,0.0,0.0,0.0,0.0,0.0,0.0,0.0,0.0,0.0,-3.082,-3.1914,-3.3516,-3.625,-3.5625,-3.4609,-3.375,-2.8945,-2.5898,-2.5703,-2.1836,0.0,0.0,0.0,0.0,0.0,0.0,0.0,0.0,0.0,0.0,0.0,0.0,0.0,0.0,0.0,0.0,0.0,0.0,0.0,0.0,0.0,0.0,0.0,0.0,0.0,0.0,0.0,0.0,0.0,0.0,0.0,0.0,0.0,0.0,0.0,0.0,0.0,0.0,0.0,0.0,0.0,0.0,0.0,0.0,0.0,0.0,0.0,0.0,0.0,0.0,0.0,0.0,0.0,0.0,0.0,0.0,0.0,0.0,0.0,0.0,-2.8211,0.0,0.0,0.0,0.0,0.0,0.0,0.0,0.0,0.0,0.0,0.0,0.0,0.0,0.0,0.0,0.0,0.0,0.0,0.0,0.0,0.0,0.0,0.0,0.0,0.0,0.0,0.0,0.0,0.0,0.0,0.0,0.0,0.0,0.0,0.0,0.0,0.0,0.0,0.0,0.0,-3.0508,-3.1289,-3.2539,-3.5117,-3.4609,-3.375,-3.2891,-2.8828,-2.6133,-2.5742,-2.2461,0.0,0.0,0.0,0.0,0.0,0.0,0.0,0.0,0.0,0.0,0.0,0.0,0.0,0.0,0.0,0.0,0.0,0.0,0.0,0.0,0.0,0.0,0.0,0.0,0.0,0.0,0.0,0.0,0.0,0.0,0.0,0.0,0.0,0.0,0.0,0.0,0.0,0.0,0.0,0.0,0.0,0.0,0.0,0.0,0.0,0.0,0.0,0.0,0.0,0.0,0.0,0.0,0.0,-3.7661,-3.8028,-3.7771,-3.7771,-3.7771,-3.7624,-3.4816,-3.2194,-2.9851,-2.9075,0.0,0.0,0.0,0.0,0.0,0.0,0.0,0.0,0.0,0.0,0.0,0.0,0.0,0.0,0.0,0.0,0.0,0.0,0.0,0.0,0.0,0.0,0.0,0.0,-3.1497,-3.1158,-2.8466,0.0,0.0,0.0,0.0,0.0,0.0,0.0,0.0,0.0,0.0,0.0,-3.0273,-3.082,-3.1836,-3.4219,-3.3711,-3.293,-3.2266,-2.8984,-2.668,-2.5977,-2.3398,-2.1562,0.0,0.0,0.0,0.0,0.0,0.0,0.0,0.0,0.0,0.0,0.0,0.0,0.0,0.0,0.0,0.0,0.0,0.0,0.0,0.0,0.0,0.0,0.0,0.0,0.0,0.0,0.0,0.0,0.0,0.0,0.0,0.0,-2.7063,-2.6606,0.0,0.0,0.0,0.0,0.0,0.0,0.0,0.0,0.0,0.0,0.0,0.0,0.0,-3.7174,-3.8894,-4.1906,-4.3057,-4.2396,-4.4618,-4.4948,-4.3608,-4.3608,-4.3608,-4.3534,-4.2413,0.0,-3.3123,-3.2402,0.0,0.0,0.0,0.0,0.0,0.0,0.0,0.0,0.0,0.0,0.0,0.0,0.0,0.0,0.0,0.0,0.0,0.0,0.0,0.0,0.0,0.0,-3.4654,-3.3898,-3.3205,-3.2634,0.0,-2.9844,-2.7591,-2.6812,-2.6173,0.0,0.0,0.0,0.0,0.0,0.0,0.0,-2.9531,-3.043,-3.1601,-3.3398,-3.2851,-3.2305,-3.2226,-2.8984,-2.6953,-2.6836,-2.3711,-2.1836,-2.1718,-2.1094,0.0,0.0,0.0,0.0,0.0,0.0,0.0,0.0,0.0,0.0,0.0,0.0,0.0,0.0,0.0,0.0,0.0,0.0,0.0,0.0,0.0,0.0,0.0,0.0,0.0,0.0,0.0,0.0,0.0,-2.7368,-2.8518,-2.6894,-2.8112,-2.8484,0.0,0.0,0.0,0.0,0.0,0.0,0.0,0.0,0.0,-3.9979,-4.0883,-4.2319,-4.4382,-4.634,-4.7222,-4.6966,-4.8453,-4.882,-4.8122,-4.8122,-4.8122,-4.8122,-4.7755,-4.5186,-4.0985,-3.7492,-3.5133,-3.3469,0.0,0.0,0.0,0.0,-3.2264,-3.2446,-3.3908,-3.3987,-3.3448,-3.3392,0.0,0.0,0.0,0.0,0.0,0.0,0.0,0.0,0.0,0.0,-3.6815,-3.643,-3.643,-3.6353,-3.5853,-3.3518,-3.0814,0.0,-2.7948,-2.7421,-2.6471,0.0,0.0,0.0,0.0,-2.7755,-2.9993,-3.0618,-3.1325,-3.2578,-3.1953,-3.1289,-3.0781,-2.8437,-2.6797,-2.6289,-2.3945,-2.2383,-2.1914,-2.1055,-2.0586,0.0,0.0,0.0,0.0,0.0,0.0,0.0,0.0,0.0,0.0,0.0,0.0,0.0,0.0,0.0,0.0,0.0,0.0,0.0,0.0,0.0,0.0,0.0,0.0,0.0,0.0,0.0,0.0,-2.8281,-2.9736,-2.7266,-2.9837,-3.0683,0.0,0.0,0.0,0.0,0.0,0.0,-3.8309,-3.9743,-4.1988,-4.5316,-4.6104,-4.7368,-4.9236,-5.0159,-5.057,-5.0488,-5.1112,-5.1426,-5.1426,-5.1426,-5.1426,-5.1389,-5.1206,-4.9958,-4.7626,-4.2379,-3.9182,-3.7301,-3.5096,-3.4278,-3.4455,-3.5601,-3.5763,-3.5738,-3.7937,-3.8284,-3.7567,-3.6384,-3.5443,-3.4273,-3.1521,0.0,0.0,0.0,0.0,-3.4075,-3.4962,-3.6738,-3.8392,-3.8584,-3.8969,-3.913,-3.8469,-3.6514,-3.3911,0.0,-2.9883,-2.9195,-2.7701,0.0,0.0,0.0,0.0,-2.8336,-3.0512,-3.0789,-3.1114,-3.2067,-3.1209,-3.0273,-2.9648,-2.8008,-2.6641,-2.5742,-2.4062,-2.2734,-2.1914,-2.1055,-2.0586,-2.0586,0.0,0.0,0.0,0.0,0.0,0.0,0.0,0.0,0.0,0.0,0.0,0.0,0.0,0.0,0.0,0.0,0.0,0.0,0.0,0.0,0.0,0.0,0.0,0.0,0.0,0.0,0.0,0.0,0.0,-2.8094,-3.2882,0.0,0.0,0.0,0.0,-3.5318,-3.7057,-3.9084,-4.1284,-4.3824,-4.6297,-4.8583,-5.0983,-5.2249,-5.2358,-5.3419,-5.3566,-5.2856,-5.2978,-5.3078,-5.3078,-5.3078,-5.3078,-5.302,-5.227,-5.1426,-5.0288,-4.614,-4.3003,-4.0691,-3.9056,-3.8395,-3.8322,-3.7654,-3.7838,-3.8389,-3.7801,-3.7137,-3.7108,-4.016,-3.9696,-3.7728,-3.6479,-3.4865,0.0,0.0,-3.5797,-3.6726,-3.7577,-3.8507,-3.9438,-4.0208,-3.9823,-3.9284,-3.9246,-3.7882,-3.59,0.0,-3.1476,-3.0109,-2.9303,0.0,-2.8854,-2.8155,-2.8751,-2.9611,-3.0582,-3.0709,-3.1079,-3.2005,-3.0565,-2.956,-2.9609,-2.8008,-2.6641,-2.5742,-2.4062,-2.2734,-2.1914,-2.1055,-2.0586,-2.0586,-2.0586,0.0,0.0,0.0,0.0,0.0,0.0,0.0,0.0,0.0,0.0,0.0,0.0,0.0,0.0,0.0,0.0,0.0,0.0,0.0,0.0,0.0,0.0,0.0,0.0,0.0,0.0,0.0,0.0,-3.3728,-3.799,0.0,-3.6806,-3.8159,-3.9614,-4.0535,-4.2147,-4.4371,-4.7352,-4.8876,-5.0834,-5.3398,-5.3867,-5.435,-5.4893,-5.4259,-5.3886,-5.3785,-5.3316,-5.3103,-5.3203,-5.3203,-5.3203,-5.3167,-5.2894,-5.2013,-5.0692,-4.9224,-4.7205,-4.4801,-4.3187,-4.2563,-4.247,-4.1662,-4.1532,-4.1735,-4.1458,-4.1213,-4.0977,-4.0733,-3.9417,-3.7829,-3.7207,-3.6928,-3.709,-3.8214,-3.878,-3.9218,-4.0137,-4.023,-4.013,-4.0431,-4.0285,-4.0054,-4.0054,-3.9215,-3.8145,-3.7214,-3.436,-3.1973,-3.1736,-3.0806,-3.0186,-3.0458,-3.0288,-3.0474,-3.1375,-3.0999,-3.0559,-3.0375,-2.9326,-2.8434,-2.7904,-2.6824,-2.5774,-2.4915,-2.3749,-2.2734,-2.1914,-2.1055,-2.0586,-2.0586,-2.1133,-2.1133,0.0,0.0,0.0,0.0,0.0,0.0,0.0,0.0,0.0,0.0,0.0,0.0,0.0,0.0,0.0,0.0,0.0,0.0,0.0,0.0,0.0,0.0,0.0,0.0,0.0,-3.5374,-3.8488,-3.7956,-4.2489,-4.4587,-4.1873,-4.3403,-4.4891,-4.5602,-4.6853,-4.8836,-5.1786,-5.2411,-5.3806,-5.633,-5.5921,-5.58,-5.6152,-5.4856,-5.415,-5.4054,-5.3295,-5.3017,-5.3124,-5.3124,-5.3146,-5.3203,-5.3203,-5.2454,-5.1169,-5.0912,-4.9664,-4.7792,-4.6159,-4.5333,-4.5002,-4.4195,-4.3901,-4.3864,-4.3571,-4.3515,-4.3218,-4.1576,-4.0259,-3.9266,-3.8951,-3.9171,-3.976,-4.0653,-4.0748,-4.0788,-4.1752,-4.1221,-4.0567,-4.083,-4.0692,-4.0516,-4.0516,-3.9861,-3.94,-3.9669,-3.6734,-3.4173,-3.3891,-3.2694,-3.1841,-3.2171,-3.1767,-3.1773,-3.2615,-3.1736,-3.0913,-3.0709,-2.9157,-2.7921,-2.7396,-2.6326,-2.5283,-2.4424,-2.3585,-2.285,-2.2342,-2.1211,-2.0859,-2.1445,-2.1445,-2.1875,-2.2734,0.0,0.0,0.0,0.0,0.0,0.0,0.0,0.0,0.0,0.0,0.0,0.0,0.0,0.0,0.0,0.0,0.0,0.0,0.0,0.0,0.0,0.0,0.0,-3.4573,-3.914,-4.1914,-4.0569,-4.6244,-4.8815,-4.5224,-4.8781,-5.1014,-5.0236,-5.0879,-5.213,-5.4087,-5.418,-5.5099,-5.7102,-5.7163,-5.6801,-5.6029,-5.539,-5.4638,-5.3826,-5.314,-5.2886,-5.298,-5.298,-5.3082,-5.3167,-5.3167,-5.2711,-5.1903,-5.1132,-5.0288,-4.939,-4.7773,-4.6654,-4.5883,-4.5076,-4.4728,-4.4599,-4.3791,-4.3515,-4.3419,-4.2902,-4.2548,-4.2292,-4.2048,-4.1759,-4.1653,-4.1978,-4.1628,-4.138,-4.2243,-4.1552,-4.0735,-4.1511,-4.1091,-4.0554,-4.0554,-3.99,-3.9554,-4.0362,-3.8507,-3.6514,-3.5733,-3.4854,-3.4031,-3.328,-3.3137,0.0,-3.4234,-3.288,-3.214,-3.3037,-3.0136,-2.8145,-2.8201,-2.6611,-2.5247,-2.4345,-2.356,-2.3146,-2.3107,-2.1521,-2.1445,-2.3125,-2.1562,-2.1953,-2.4453,0.0,0.0,0.0,0.0,0.0,0.0,0.0,0.0,0.0,0.0,0.0,0.0,0.0,0.0,0.0,0.0,0.0,0.0,0.0,0.0,0.0,-3.642,-3.8839,-3.8608,-4.2151,-4.5399,-4.7124,-5.0913,-5.2739,-5.1183,-5.2638,-5.3348,-5.2604,-5.2739,-5.3304,-5.4264,-5.436,-5.5033,-5.6501,-5.6555,-5.6632,-5.6862,-5.6115,-5.5366,-5.4662,-5.3885,-5.3285,-5.285,-5.2937,-5.3039,-5.3023,-5.2522,-5.1867,-5.1096,-5.0875,-4.9958,-4.86,-4.8159,-4.7829,-4.7535,-4.6746,-4.5682,-4.4654,-4.4452,-4.3975,-4.3478,-4.3323,-4.3252,-4.3179,-4.3376,-4.3379,-4.3379,-4.3638,-4.3173,-4.2523,-4.2435,-4.214,-4.1846,-4.1737,-4.1528,-4.1382,-4.1423,-4.0777,-4.0246,-4.0477,-3.9477,-3.8322,-3.7445,-3.6612,-3.5791,-3.4969,-3.4355,0.0,-3.3501,-3.2478,-3.169,-3.137,-2.9898,-2.871,-2.8117,-2.7071,-2.5813,-2.433,-2.4066,-2.3712,-2.3107,-2.2644,-2.2925,-2.4023,-2.3593,-2.4023,0.0,0.0,0.0,0.0,0.0,0.0,0.0,0.0,0.0,0.0,0.0,0.0,0.0,0.0,0.0,0.0,0.0,0.0,0.0,0.0,0.0,0.0,-3.991,-4.2833,-4.4119,-4.6447,-4.8748,-5.0777,-5.3145,-5.4532,-5.4431,-5.5108,-5.5209,-5.4499,-5.4431,-5.4431,-5.4394,-5.4391,-5.4974,-5.6257,-5.6311,-5.6438,-5.6681,-5.5921,-5.5148,-5.4459,-5.3647,-5.3076,-5.2739,-5.2806,-5.2872,-5.2915,-5.2547,-5.1951,-5.1197,-5.0929,-5.0031,0.0,0.0,0.0,0.0,0.0,-4.6269,-4.5149,-4.4819,-4.4378,-4.3938,-4.3608,-4.3515,-4.3549,-4.3714,-4.3779,-4.3812,-4.398,-4.3521,-4.2969,-4.319,-4.2832,-4.2444,-4.2661,-4.2483,-4.2249,-4.2275,-4.1646,-4.1046,-4.1046,-4.0362,0.0,-3.87,-3.756,-3.6619,-3.6138,-3.5328,-3.4619,-3.4206,-3.307,-3.2164,-3.17,-2.9897,-2.8552,-2.8049,-2.6928,0.0,0.0,0.0,-2.3908,-2.3088,-2.3805,0.0,0.0,0.0,-2.5195,-2.5703,0.0,0.0,0.0,-2.5698,-2.5694,0.0,0.0,0.0,0.0,0.0,0.0,0.0,0.0,0.0,0.0,0.0,0.0,0.0,0.0,0.0,0.0,-4.2959,-4.6178,-4.9934,-5.0984,-5.1659,-5.2367,-5.3788,-5.4905,-5.5412,-5.6292,-5.6427,-5.5547,-5.5547,-5.5213,-5.4367,0.0,0.0,0.0,0.0,-5.6152,-5.6038,-5.5353,-5.4617,-5.382,-5.3023,-5.2622,-5.2568,-5.259,-5.2658,-5.2783,-5.2842,-5.2447,-5.1715,-5.1071,-5.0325,-4.961,-4.95,-4.904,-4.8343,-4.7516,-4.6709,-4.592,-4.5112,0.0,0.0,-4.3754,-4.3515,-4.3515,-4.3515,-4.3515,-4.3515,-4.3515,-4.3164,-4.302,-4.3957,-4.3391,-4.2838,-4.3805,-4.3551,-4.3088,-4.3162,-4.2428,-4.1808,-4.1923,-4.1162,-4.0285,-3.9708,-3.8046,-3.6822,-3.6773,-3.6061,-3.5502,-3.545,-3.4091,-3.3103,-3.3103,0.0,0.0,-2.8165,-2.6691,-2.5685,-2.5526,-2.4775,-2.4014,-2.332,-2.4847,-2.5333,-2.4553,-2.5309,-2.5703,-2.5703,-2.5703,-2.5703,-2.5703,-2.5699,-2.5694,0.0,0.0,0.0,0.0,0.0,0.0,0.0,0.0,0.0,0.0,0.0,0.0,0.0,0.0,0.0,-4.3385,-4.6486,-4.9389,-5.2202,-5.2572,-5.274,-5.3213,-5.46,-5.5074,-5.4025,-5.5683,-5.5987,-5.4059,-5.4465,-5.4499,-5.3719,-5.3651,-5.4011,-5.473,-5.5278,-5.5759,-5.626,-5.5949,-5.5414,-5.4653,0.0,0.0,-5.2526,-5.2581,-5.2613,-5.2599,-5.2091,-5.1791,-5.1609,-5.0911,-5.0208,-4.9537,-4.882,-4.8893,-4.9243,-4.8379,-4.7553,-4.6746,-4.5957,-4.5259,-4.4562,-4.3754,-4.3515,-4.3515,-4.3515,-4.3515,0.0,-4.3515,-4.3439,-4.3316,-4.3079,-4.3379,-4.3709,-4.3774,-4.3683,-4.3656,-4.3962,-4.2825,-4.1959,-4.2692,-4.1585,-4.0669,-4.1239,-3.9315,-3.7507,-3.6822,-3.6003,-3.5258,-3.4558,-3.3682,-3.3103,-3.3103,-3.1313,-2.9824,-2.9093,-2.8126,-2.6923,-2.5608,-2.5328,-2.5174,-2.503,-2.5394,-2.5587,-2.5452,-2.5613,-2.5699,-2.5703,-2.5703,-2.5703,-2.5703,-2.5701,-2.5699,0.0,0.0,0.0,0.0,0.0,0.0,0.0,0.0,0.0,0.0,0.0,-3.4971,-3.7191,0.0,-4.3153,-4.6629,-4.8726,-5.0627,-5.2738,-5.2938,-5.3041,-5.345,-5.4058,-5.4328,-5.4093,-5.504,-5.5243,-5.4126,-5.4397,-5.4262,-5.3551,-5.3518,-5.3783,-5.4391,-5.4734,-5.4804,-5.4662,-5.4838,-5.4403,-5.3253,-5.3159,-5.2878,-5.248,-5.2549,-5.2536,-5.2522,-5.2235,-5.1879,-5.1406,-5.041,-5.0017,-4.987,-4.8722,-4.8561,-4.8893,-4.8453,-4.803,-4.7516,-4.6324,-4.5626,-4.5112,-4.3864,-4.3515,-4.3515,-4.3515,-4.3515,-4.3515,-4.3515,-4.3515,-4.3473,-4.3357,-4.3674,-4.4013,-4.4056,-4.4071,-4.4182,-4.4527,-4.3301,-4.2403,-4.3487,-4.1975,-4.0792,-4.1654,-4.0046,-3.8507,-3.8084,-3.6906,-3.5957,-3.5527,-3.4411,-3.3631,-3.3631,-3.1785,-3.038,-2.996,-2.8345,-2.6807,-2.5565,-2.5487,-2.5508,-2.5508,-2.5535,-2.5578,-2.56,-2.5675,-2.5692,-2.5699,-2.5703,-2.5703,-2.5703,-2.5702,-2.5701,0.0,0.0,0.0,0.0,0.0,0.0,0.0,-3.0635,-3.2195,-3.5428,-3.7288,-3.91,-4.1782,-4.4059,-4.6474,-4.9327,-5.0359,-5.1325,-5.2867,-5.28,-5.2737,-5.3146,-5.3314,-5.3651,-5.4329,-5.4634,-5.4702,-5.4397,-5.4499,-5.4262,-5.3551,-5.3518,-5.3717,-5.4203,-5.4328,-5.3948,-5.3061,-5.3618,-5.3217,-5.1851,-5.2282,-5.248,-5.248,-5.248,-5.248,-5.248,-5.2559,-5.2059,-5.11,-5.0018,-4.9674,-4.9815,-4.864,-4.817,-4.8248,-4.8267,-4.8287,-4.8086,-4.6654,-4.614,-4.5883,-4.4268,-4.3718,-4.3681,-4.3551,-4.3515,-4.3515,-4.3515,-4.3515,-4.3583,-4.3812,-4.3892,-4.3971,-4.4265,-4.4355,-4.4479,-4.4763,-4.3672,-4.2998,-4.4202,-4.2533,-4.1178,-4.2129,-4.0885,-3.9662,-3.9361,-3.7969,-3.6962,-3.6962,-3.5489,-3.443,-3.443,-3.2364,-3.0853,-3.0515,-2.8177,-2.6416,-2.5758,-2.5604,-2.5488,-2.5488,-2.5511,-2.5508,-2.5482,-2.5605,-2.5675,-2.5681,-2.5699,-2.5703,-2.5703,-2.5703,-2.5702,-2.5615,-2.5555,-2.6393,-2.9235,-2.8783,-2.9451,0.0,-3.7916,-3.8616,-4.188,-4.3734,-4.4889,-4.5251,-4.7106,-4.916,-5.0852,-5.168,-5.2513,-5.3456,-5.2385,-5.1589,-5.1966,-5.3312,-5.4022,-5.3653,-5.4837,-5.504,-5.3721,-5.4228,-5.4262,-5.3551,-5.3518,-5.3517,-5.3584,-5.4106,-5.4039,-5.3272,-5.371,-5.3466,-5.2671,-5.257,-5.248,-5.248,-5.248,-5.248,-5.248,-5.2503,-5.1701,-5.0337,-5.0177,-4.9367,-4.8247,-4.8085,-4.8032,-4.8052,-4.8168,-4.8265,-4.8196,-4.7259,-4.6966,-4.6709,-4.5095,-4.4562,-4.4452,-4.3718,-4.3515,-4.3515,-4.3515,-4.3515,-4.3515,-4.3566,-4.3566,-4.3651,-4.3971,-4.4048,-4.417,-4.4479,-4.3817,-4.3467,-4.4711,-4.3503,-4.2651,-4.3806,-4.2637,-4.1008,-3.9515,-3.8469,-3.7853,-3.7853,-3.6381,-3.5355,-3.5355,-3.3768,-3.2105,-3.0626,-2.8177,-2.6644,-2.6566,-2.5913,-2.5488,-2.5488,-2.5499,-2.5498,-2.5482,-2.5496,-2.5566,-2.5607,-2.568,-2.569,-2.5691,-2.5703,-2.5702,-2.891,-2.8757,-2.9162,-3.2168,-3.3502,-3.512,-3.9156,-4.0958,-4.2424,-4.4919,-4.6618,-4.7868,-4.8299,-4.9823,-5.1082,-5.1282,-5.1945,-5.2376,-5.2281,-5.135,-5.0422,-4.9826,-5.076,-5.1766,-5.2606,-5.3247,-5.3585,-5.3518,-5.3788,-5.3822,-5.3518,-5.3518,-5.3518,-5.3518,-5.375,-5.3302,-5.2075,-5.2617,-5.2249,-5.1115,-5.136,-5.1651,-5.1957,-5.1957,-5.2162,-5.248,-5.248,-5.1851,-5.083,-5.0388,-4.9552,-4.8499,-4.8088,-4.7927,-4.7947,-4.8068,-4.8131,-4.8136,-4.733,-4.6745,-4.6214,-4.5076,-4.4378,-4.3938,-4.3625,-4.3515,-4.3515,-4.3515,-4.3515,-4.3515,-4.3515,-4.3515,-4.3549,-4.3701,-4.3697,-4.3795,-4.4132,-4.3519,-4.3283,-4.4461,-4.3352,-4.2552,-4.3607,-4.2535,-4.1264,-4.0602,-3.9514,-3.8738,-3.8738,-3.7714,-3.6573,-3.5586,-3.4404,-3.2816,-3.0665,-2.9521,-2.8293,-2.6799,-2.6377,-2.599,-2.5526,-2.5488,-2.5507,-2.5501,-2.5502,-2.5496,-2.5559,-2.5607,-2.5673,-2.5687,-2.5696,-2.5703,-3.0702,-3.1002,-3.1773,-3.4697,-3.7181,-3.9408,-4.1489,-4.3517,-4.5531,-4.7326,-4.859,-4.9525,-4.9856,-5.0783,-5.138,-5.1048,-5.1647,-5.1912,-5.1382,-5.032,-4.9227,-4.8329,-4.7995,-4.8659,-5.0826,-5.1463,-5.2101,-5.3045,-5.3112,-5.3247,-5.3484,-5.3518,-5.3416,-5.3179,-5.3179,-5.2435,-5.0913,-5.1473,-5.1154,-4.9936,-5.0425,-5.0911,-5.1337,-5.1525,-5.1835,-5.2257,-5.2216,-5.1719,-5.0909,-5.0141,-4.9358,-4.8532,-4.8037,-4.784,-4.7861,-4.7907,-4.7992,-4.8075,-4.749,-4.6816,-4.6067,-4.526,-4.4471,-4.3791,-4.3588,-4.3515,-4.3515,-4.3515,-4.3515,-4.3515,-4.3515,-4.3515,-4.3515,-4.3515,-4.3515,-4.3583,-4.3795,-4.3347,-4.3212,-4.4158,-4.3366,-4.2782,-4.358,-4.2678,-4.1808,-4.167,-4.0642,-3.9837,-3.9662,-3.8661,-3.7437,-3.5996,-3.4847,-3.3486,-3.1681,-3.0891,-2.9709,-2.7873,-2.7108,-2.6455,-2.5874,-2.5604,-2.5488,-2.5488,-2.5508,-2.5493,-2.5496,-2.5556,-2.56,-2.5665,-2.5673,-2.5691,-2.9472,-3.1001,-3.3215,-3.651,-3.8367,-4.048,-4.4661,-4.6729,-4.8221,-4.9778,-5.012,-4.9955,-4.926,-4.916,-4.9425,-5.0121,-5.085,-5.1348,-5.1315,-4.9425,-4.8067,-4.8001,-4.5516,-4.4981,-4.8093,-4.9824,-5.1128,-5.2068,-5.2135,-5.2539,-5.345,-5.3518,-5.3145,-5.2367,-5.2334,-5.1623,-5.0135,-5.075,-5.0636,-4.9936,-5.0425,-5.0724,-5.0751,-5.1312,-5.1601,-5.1615,-5.1404,-5.0873,-5.0075,-4.9257,-4.8438,-4.7735,-4.7735,-4.7699,-4.7699,-4.7699,-4.7845,-4.8012,-4.7975,-4.7524,-4.6834,-4.6047,-4.526,-4.4525,-4.3718,-4.3515,-4.3515,-4.3515,-4.3515,-4.3515,-4.3515,-4.3515,-4.3515,-4.3515,-4.3515,-4.3515,-4.3515,-4.3478,-4.3597,-4.3939,-4.3952,-4.4027,-4.4414,-4.3857,-4.3075,-4.2293,-4.1705,-4.1102,-4.0531,-3.9008,-3.7661,-3.6776,-3.5181,-3.4161,-3.4084,-3.1868,-3.0477,-3.0399,-2.8061,-2.6683,-2.6644,-2.5913,-2.5488,-2.5488,-2.5492,-2.5492,-2.5492,-2.5493,-2.5487,-2.5529,-2.5583,-2.5623,-3.3395,-3.525,-3.7241,-4.0604,-4.248,-4.4096,-4.6448,-4.8164,-4.9038,-4.8042,-4.7304,-4.629,-4.4584,-4.5077,-4.5798,-4.6061,-4.8595,-5.0386,-4.9922,-4.9624,-4.8564,-4.6079,-4.5814,-4.5647,-4.5244,-4.722,0.0,-5.1933,-5.2167,-5.2605,-5.345,-5.2976,-5.257,-5.23,-5.1826,-5.1116,-5.0101,-5.0286,-5.0036,-4.932,-4.9902,-5.0153,-5.0181,-5.076,-5.0743,-5.0275,-5.0206,-4.9626,-4.8752,-4.8501,-4.8105,-4.7699,-4.7699,-4.7699,-4.7699,-4.7699,-4.7741,-4.7752,-4.7268,-4.6676,-4.5934,-4.5242,-4.4473,-4.3794,-4.3553,-4.3515,-4.3515,-4.3515,-4.3515,-4.3515,-4.3515,-4.3515,-4.3515,-4.3515,-4.3515,-4.3515,-4.3515,-4.3515,-4.3549,-4.3667,-4.3681,-4.371,-4.3871,-4.3394,-4.2602,-4.1503,-4.0933,-4.0575,-4.0492,-3.9554,-3.8546,-3.7661,-3.6553,-3.5412,-3.4276,-3.2952,-3.1675,-3.0549,-2.9207,-2.8182,-2.758,-2.6764,-2.63,-2.63,-2.5758,-2.5488,-2.5488,-2.5518,-2.5515,-2.5482,-2.5504,-2.558,-3.6207,-3.8272,-4.0244,-4.3358,-4.5017,-4.6284,-4.7673,-4.844,-4.8217,-4.6149,-4.4561,-4.2802,-4.0413,-4.0664,-4.1564,-4.2637,-4.5203,-4.7438,-4.8564,-4.8431,-4.7636,-4.6046,-4.6013,-4.5748,-4.4887,-4.6329,-4.8283,-5.0591,-5.1295,-5.1967,-5.2842,-5.2707,-5.2504,-5.2234,-5.1557,-5.0845,-5.0101,-4.983,-4.9458,-4.8984,-4.9376,-4.9585,-4.9615,-4.9875,-4.9734,-4.9272,-4.8925,-4.8433,-4.7772,-4.7488,-4.7285,-4.7129,-4.7341,-4.7407,-4.7428,-4.7636,-4.7518,-4.7192,-4.6803,-4.6177,-4.5437,-4.4728,-4.398,-4.3359,-4.3428,-4.3463,-4.3463,-4.3497,-4.3515,-4.3515,-4.3515,-4.3515,-4.3515,-4.3515,-4.3515,-4.3515,-4.3515,-4.3515,-4.3515,-4.3515,-4.3515,-4.3515,-4.3566,-4.2807,-4.189,-4.0892,-4.0288,-3.9992,-4.0221,-3.9342,-3.8492,-3.7955,-3.6933,-3.5853,-3.4757,-3.3891,-3.2837,-3.1488,-3.0351,-2.9366,-2.8496,-2.734,-2.6841,-2.7151,-2.6068,-2.5642,-2.5913,-2.5642,-2.5515,-2.5486,-2.5486,-2.552,-3.7883,-4.0104,-4.2252,-4.4766,-4.595,-4.6846,-4.8168,-4.7435,-4.5916,-4.4008,-4.1827,-3.9441,-3.677,-3.6184,-3.7118,-4.0037,-4.1161,-4.3197,-4.7471,-4.6344,-4.5814,-4.7835,-4.6245,-4.5483,-4.6808,-4.7166,-4.7595,-4.8293,0.0,-5.086,-5.1798,-5.2639,-5.2808,-5.2135,-5.1459,-5.0779,-5.0101,-4.9357,-4.9018,-4.9018,-4.9018,-4.9018,-4.8984,-4.8831,-4.8741,-4.8631,-4.7675,-4.7206,-4.7126,-4.6389,-4.6074,-4.6147,-4.666,-4.6845,-4.6926,-4.7428,-4.7166,-4.6499,-4.6427,-4.5965,-4.5285,-4.4505,-4.3761,-4.3214,-4.3359,-4.3394,-4.3412,-4.3463,-4.3497,-4.3497,-4.3497,-4.3497,-4.3497,-4.3515,-4.3515,-4.3515,-4.3515,-4.3515,-4.3515,-4.3515,-4.3515,-4.3515,-4.3515,-4.2259,-4.1108,-4.0598,-3.9922,-3.9539,-3.9754,-3.8594,-3.7715,-3.7677,-3.6427,-3.5563,-3.5486,-3.4635,-3.3814,-3.3094,-3.1449,-3.0163,-2.9434,-2.7752,-2.7228,-2.8049,-2.6459,-2.599,-2.6683,-2.5913,-2.5565,-2.5565,-2.5565,-2.5607,-4.0673,-4.318,-4.5334,-4.6501,-4.6581,-4.6232,-4.5704,-4.419,-4.2045,-3.9106,-3.6091,-3.3292,-3.1011,-3.2584,-3.499,-3.7412,-4.213,-4.6278,-4.8498,-4.9756,-5.0021,-4.8961,-4.8829,-4.8531,-4.7802,-4.8265,-4.8696,0.0,-4.9959,-5.1195,-5.2568,-5.2335,-5.2067,-5.1866,-5.0756,-5.0047,-4.991,-4.9294,-4.9018,-4.9018,-4.9018,-4.9018,-4.8984,-4.8391,-4.7835,-4.7287,-4.6442,-4.5993,-4.5771,-4.5598,-4.5724,-4.6098,-4.6244,-4.6293,-4.6317,-4.6472,-4.6611,-4.6641,-4.5437,-4.4757,-4.4353,-4.3631,-4.3268,-4.316,-4.3214,-4.3251,-4.3251,-4.3286,-4.3286,-4.3304,-4.3375,-4.3447,-4.3465,-4.3497,-4.3515,-4.3515,-4.3515,-4.3515,-4.3515,-4.3515,-4.3515,-4.3515,-4.3515,-4.2737,-4.1862,-4.1123,-4.0385,-3.9876,-3.9739,-3.944,-3.8781,-3.7527,-3.7201,-3.6578,-3.5361,-3.4023,-3.341,-3.3853,-3.1719,-3.0618,-3.1058,-2.9506,-2.8748,-2.8946,-2.792,-2.7155,-2.6683,-2.6493,-2.6377,-2.6377,-2.6377,-2.6738,-4.3449,-4.5394,-4.677,-4.686,-4.6184,-4.502,-4.3205,-4.1038,-3.8372,-3.4774,-3.2014,-2.9658,-2.7592,-2.964,-3.2424,-3.492,-3.9981,-4.4622,-4.7703,-4.9491,-5.0353,-5.0088,-5.0419,-5.022,-4.9094,-4.9624,-5.0055,-5.0055,-5.0624,-5.1326,-5.2126,-5.2162,-5.1996,-5.1662,-5.0693,-4.9918,-4.9375,-4.9128,-4.9018,-4.9018,-4.9018,-4.9018,-4.8951,-4.7902,-4.7192,-4.6718,0.0,-4.5122,-4.4981,-4.4981,-4.5169,-4.5451,-4.5683,-4.5749,-4.5775,-4.6,-4.6057,-4.5951,-4.5267,-4.4721,-4.418,-4.3715,-4.3284,-4.3104,-4.356,-4.3433,-4.316,-4.3196,-4.3214,-4.3214,-4.3286,-4.3376,-4.3412,-4.3428,-4.348,-4.3515,-4.3515,-4.3515,-4.3515,-4.3515,-4.3515,-4.3404,-4.302,-4.263,-4.1965,-4.0825,-4.0299,-3.9867,-3.9386,-3.9163,-3.869,-3.7807,-3.7543,-3.6948,-3.5701,-3.487,-3.4326,-3.4086,-3.2474,-3.1598,-3.1686,-3.0479,-2.9844,-2.982,-2.8989,-2.8302,-2.7847,-2.7464,-2.7271,-2.7271,-2.7271,-2.7542,-4.5771,-4.686,-4.7249,-4.6501,-4.5324,-4.3622,-4.0808,-3.7966,-3.4837,-3.0964,-2.8921,-2.7325,-2.5648,-2.7419,-3.0117,-3.315,-3.6959,-4.1286,-4.6477,-4.7835,-4.9061,-5.1216,-5.1448,-5.1181,-5.0551,-5.1048,-5.1448,-5.1448,-5.1448,-5.1448,-5.1448,-5.215,-5.2222,-5.1357,-5.0894,-5.0023,-4.8769,-4.8894,-4.8987,-4.8987,-4.9018,-4.9018,-4.8951,-4.7462,-4.6786,-4.6718,-4.5258,-4.4615,-4.4615,-4.4615,-4.4615,-4.4637,-4.5062,-4.5214,-4.5267,-4.5734,-4.5505,-4.5008,-4.5351,-4.5071,-4.4492,-4.4209,-4.3607,-4.3191,-4.3902,-4.3631,-4.3104,-4.3142,-4.3178,-4.3178,-4.3178,-4.3251,-4.3376,-4.3394,-4.3428,-4.3497,-4.3497,-4.3515,-4.3515,-4.3515,-4.3515,-4.3277,-4.258,-4.2359,-4.1846,-4.0414,-4.011,-3.9752,-3.9031,-3.8525,-3.8178,-3.8003,-3.7638,-3.7024,-3.5985,-3.6083,-3.5598,-3.4159,-3.3363,-3.2685,-3.2048,-3.1262,-3.0788,-3.066,-2.9931,-2.9448,-2.9317,-2.8548,-2.8165,-2.8165,-2.8165,-2.8242,-4.604,-4.7189,-4.7818,-4.6621,-4.4907,-4.2604,-3.8813,-3.5056,-3.1429,-2.8022,-2.5794,-2.4341,-2.4021,-2.6512,-2.9932,-3.384,-3.7853,-4.2386,-4.7935,-4.9359,-5.0419,-5.2009,-5.221,-5.2177,-5.2009,-5.2108,-5.221,-5.221,-5.221,-5.221,-5.221,-5.2343,-5.185,-5.0659,-5.0526,-4.9859,-4.8547,-4.8738,-4.8832,-4.8832,-4.8956,-4.9018,-4.8951,-4.7462,-4.6786,-4.6718,-4.5258,0.0,-4.4615,-4.4615,-4.4615,-4.4615,-4.4692,-4.472,-4.4748,-4.4831,-4.502,-4.5139,-4.4593,-4.4604,-4.4752,-4.4252,-4.4005,-4.3807,-4.3319,-4.3065,-4.2956,-4.2939,-4.2939,-4.2994,-4.3104,-4.3141,-4.3196,-4.3359,-4.3412,-4.341,-4.3497,-4.3515,-4.3515,-4.3515,-4.3515,-4.3478,-4.3331,-4.2727,-4.2213,-4.1919,-4.0761,-3.9874,-3.9789,-3.9231,-3.8322,-3.7013,-3.7592,-3.7171,-3.505,-3.5,-3.503,-3.4983,-3.3532,-3.3001,-3.3744,-3.2973,-3.222,-3.1493,-3.1421,-3.067,-2.9289,-2.9157,-2.9055,-2.9055,-2.9055,-2.9476,-4.7578,-4.8057,-4.7967,-4.6651,-4.3808,-4.0277,-3.6297,-3.2048,-2.8218,-2.5585,-2.3999,-2.3242,-2.355,-2.6291,-2.9394,-3.2126,-3.5868,-4.0286,-4.5666,-4.7275,-4.8862,-5.1547,-5.2177,-5.2409,-5.2409,-5.2409,-5.2409,-5.2409,-5.2409,-5.2409,-5.2409,-5.1678,-5.0951,-5.0289,-4.9626,-4.8959,-4.8356,-4.8515,-4.8644,-4.8675,-4.8832,-4.8863,-4.8702,-4.7402,-4.6756,-4.6566,-4.5167,-4.4615,-4.4615,-4.4615,-4.4615,-4.4615,-4.4615,-4.4615,-4.4615,-4.4615,-4.4748,-4.492,-4.4775,-4.4888,-4.5043,-4.464,-4.4428,-4.4294,-4.4351,-4.4261,-4.4041,-4.3643,-4.3498,-4.3553,-4.3591,-4.3358,-4.3232,-4.3743,-4.3633,-4.3412,-4.3428,-4.348,-4.3515,-4.3515,-4.3515,-4.3515,-4.3515,-4.3167,-4.2763,-4.2359,-4.1625,-4.0871,-4.0058,-3.9688,-3.9091,-3.7979,-3.792,-3.7554,-3.641,-3.572,-3.5365,-3.5485,-3.4024,-3.3399,-3.4005,-3.3681,-3.2851,-3.1565,-3.2125,-3.1532,-2.9786,-2.9877,-2.9917,-2.9917,-2.9974,-3.0211,-4.8356,-4.8476,-4.7938,-4.6471,-4.2731,-3.8362,-3.4412,-2.9924,-2.6033,-2.3999,-2.3122,-2.2882,-2.349,-2.5841,-2.8237,-3.008,-3.3149,-3.7192,-4.2675,-4.4555,-4.6717,-5.0342,-5.1385,-5.1838,-5.1838,-5.2017,-5.2089,-5.2089,-5.2302,-5.2409,-5.2409,-5.1148,-5.0386,-5.022,-4.8995,-4.8329,-4.8163,-4.8324,-4.8452,-4.8452,-4.8644,-4.8675,-4.8482,-4.742,-4.6772,-4.6447,-4.5448,-4.4829,-4.4615,-4.4784,-4.475,-4.4615,-4.4615,-4.4615,-4.4615,-4.4615,-4.4615,-4.4637,-4.5008,-4.5135,-4.5111,-4.4902,-4.4706,-4.468,-4.5276,-4.5308,-4.5007,-4.4492,-4.4367,-4.4367,-4.4367,-4.3954,-4.3721,-4.4376,-4.409,-4.3615,-4.3615,-4.3539,-4.3445,-4.348,-4.348,-4.348,-4.3497,-4.3515,-4.3277,-4.2653,-4.2396,-4.1846,-4.0561,-4.0184,-3.9783,-3.9268,-3.852,-3.7947,-3.7644,-3.6771,-3.6204,-3.6073,-3.4795,-3.415,-3.4353,-3.4217,-3.3447,-3.1948,-3.2544,-3.2116,-3.0516,-3.0463,-3.0446,-3.051,-3.053,-3.0661,-4.6561,-4.7429,-4.7818,-4.5873,-4.2372,-3.8362,-3.4412,-2.9924,-2.6033,-2.3999,-2.3122,-2.2882,-2.349,-2.4342,-2.6008,-2.9162,-3.1021,-3.4356,-4.1021,-4.3105,-4.5213,-4.8706,-4.9667,-5.0041,-5.0041,-5.0729,-5.1247,-5.1247,-5.1944,-5.2409,-5.2409,-5.1647,-5.0883,-5.022,-4.9425,-4.873,-4.8001,-4.8163,-4.8227,-4.8227,-4.842,-4.8515,-4.8482,-4.7711,-4.7066,-4.6481,-4.638,-4.5689,0.0,-4.5331,-4.5196,-4.4615,-4.4615,-4.4615,-4.4615,-4.4615,-4.4615,-4.4615,-4.4637,-4.4665,-4.4665,-4.4652,-4.4725,-4.4847,-4.4667,-4.4607,-4.4664,-4.508,-4.52,-4.52,-4.52,-4.5128,-4.5167,-4.5338,-4.4853,-4.4309,-4.4309,-4.3743,-4.3269,-4.3394,-4.3412,-4.3447,-4.3497,-4.3515,-4.3478,-4.3387,-4.2763,-4.2249,-4.2103,-4.0797,-3.9911,-3.9915,-3.9313,-3.8289,-3.6859,-3.7323,-3.7479,-3.6914,-3.6085,-3.5679,-3.5893,-3.5192,-3.4448,-3.37,-3.288,-3.2172,-3.1542,-3.0656,-3.0334,-3.0485,-3.0528,-3.093,-4.5274,-4.6681,-4.7309,-4.5693,-4.1444,-3.6836,-3.3634,-2.9026,-2.5046,-2.3849,-2.3122,-2.2882,-2.349,-2.4126,-2.5295,-2.7467,-2.813,-3.0348,-3.6112,-3.7945,-4.0483,-4.5243,-4.7511,-4.8927,-4.9742,-5.0461,-5.0948,-5.1097,-5.1908,-5.2409,-5.2409,-5.128,-5.0518,-5.022,-4.9061,-4.8299,-4.8001,-4.8066,-4.8099,-4.8099,-4.8227,-4.826,-4.8195,-4.7653,-4.7214,-4.6848,-4.6505,-4.6152,0.0,-4.5592,-4.5414,-4.5196,-4.4784,-4.4615,-4.4615,-4.4615,-4.4615,-4.4615,-4.4615,-4.4615,-4.4615,-4.4615,-4.4647,-4.4759,-4.4948,-4.5209,-4.5457,-4.5523,-4.5545,-4.5545,-4.5545,-4.5545,-4.5437,-4.4997,-4.4959,-4.5052,-4.5052,-4.4471,-4.3944,-4.3981,-4.3688,-4.3412,-4.3447,-4.3463,-4.3515,-4.3515,-4.3204,-4.2837,-4.2359,-4.1735,-4.0981,-4.0058,-3.8877,-3.813,-3.8053,-3.7465,-3.7262,-3.7516,-3.6783,-3.6232,-3.5932,-3.5614,-3.4826,-3.3564,-3.3269,-3.2797,-3.2103,-3.1714,-3.163,-3.1821,-3.1802,-3.2013,-4.294,-4.4825,-4.5873,-4.4706,-4.0277,-3.5489,-3.2796,-2.8401,-2.4634,-2.3789,-2.3251,-2.3092,-2.352,-2.3999,-2.4724,-2.6093,-2.6317,-2.8021,-3.2974,-3.4698,-3.7247,-4.2208,-4.47,-4.6639,-4.8306,-4.9653,-5.0603,-5.1092,-5.1655,-5.2158,-5.2373,-5.1015,-5.022,-5.022,-4.8763,-4.8001,-4.8001,-4.8001,-4.8001,-4.8001,-4.8099,-4.8099,-4.8001,-4.7728,-4.7425,-4.7095,-4.6922,-4.6709,0.0,-4.5946,-4.5698,-4.5515,-4.4857,-4.4615,-4.4615,-4.4615,-4.4615,-4.4615,-4.4615,-4.4615,-4.4615,-4.4615,-4.4615,-4.4637,-4.4981,-4.5451,-4.587,-4.5846,-4.5843,-4.5843,-4.5843,-4.5843,-4.5701,-4.511,-4.5265,-4.5554,-4.5554,-4.5078,-4.4615,-4.4398,-4.3999,-4.3597,-4.3431,-4.3428,-4.348,-4.3497,-4.3515,-4.3294,-4.2727,-4.2433,-4.1882,-4.0708,-3.9433,-3.8825,-3.9239,-3.8284,-3.7919,-3.8493,-3.7816,-3.7091,-3.6409,-3.6183,-3.5443,-3.4057,-3.3867,-3.344,-3.2738,-3.2466,-3.2395,-3.2569,-3.2562,-3.2768,-3.9074,-4.1346,-4.317,-4.259,-3.8931,-3.4831,-3.2108,-2.8431,-2.5226,-2.3879,-2.361,-2.358,-2.361,-2.361,-2.4059,-2.5405,-2.6153,-2.8228,-3.2953,-3.4698,-3.6745,-4.0136,-4.1092,-4.247,-4.5106,-4.7848,-4.9956,-5.1016,-5.1102,0.0,-5.2338,-5.1015,-5.022,-5.022,-4.8763,-4.8001,-4.8001,-4.8001,-4.8001,-4.8001,-4.8001,-4.8001,-4.8001,-4.8001,-4.7667,-4.713,-4.7862,-4.7458,0.0,-4.6424,-4.6077,-4.5336,-4.4801,-4.4615,-4.4615,-4.4615,-4.4615,-4.4615,-4.4615,-4.4615,-4.4615,-4.4615,-4.4615,-4.4615,-4.4615,-4.4961,-4.5416,-4.595,-4.6098,-4.6098,-4.6098,-4.6098,-4.6098,-4.6098,-4.5882,-4.5713,-4.5713,-4.5471,-4.5095,-4.4449,-4.4286,-4.4088,-4.3523,-4.3394,-4.3429,-4.3497,-4.3515,-4.3515,-4.3515,-4.28,-4.2286,-4.2286,-4.1535,-4.0761,-4.0047,-4.0028,-4.0074,-4.0074,-3.9357,-3.8623,-3.7808,-3.7074,-3.6385,-3.5773,-3.472,-3.4001,-3.3592,-3.2598,-3.2184,-3.2295,-3.2304,-3.286,-3.3514,-3.5248,-3.6447,-3.5789,-3.3185,-3.0313,-2.8547,-2.6458,-2.4545,-2.3251,-2.331,-2.361,-2.361,-2.361,-2.4328,-2.6596,-2.7136,-2.8441,-3.1704,-3.4088,-3.6577,-3.94,-4.3127,-4.6112,-4.7848,0.0,-4.9253,-5.0151,-5.0761,-5.1471,-5.2338,-5.1479,-5.0717,-5.022,-4.8763,-4.8001,-4.8001,-4.8001,-4.8001,-4.8001,-4.8001,-4.8001,-4.8001,-4.8001,-4.7901,-4.7734,-4.7967,-4.7632,-4.6889,-4.6352,-4.5868,-4.5307,-4.4653,-4.4468,-4.4615,-4.4615,-4.4615,-4.4615,-4.4615,-4.4615,-4.4615,-4.4615,-4.4615,-4.4716,-4.5196,-4.51,-4.5036,-4.6055,-4.5996,-4.5684,-4.6213,-4.5996,-4.5545,-4.5545,-4.5775,-4.5964,-4.5964,-4.5481,-4.4959,-4.4756,-4.4621,-4.434,-4.3588,-4.3811,-4.3944,-4.3503,-4.341,-4.3428,-4.3497,-4.3277,-4.291,-4.2359,-4.2066,-4.1622,-4.0893,-4.0851,-4.0861,-4.0908,-4.02,-3.9431,-3.866,-3.7873,-3.7137,-3.6423,-3.6087,-3.59,-3.5937,-3.4925,-3.4226,-3.3888,-3.3888,-3.415,-2.891,-3.0821,-3.1928,-3.1509,-2.9624,-2.75,-2.6153,-2.4837,-2.367,-2.2853,-2.3002,-2.331,-2.355,-2.3819,-2.4627,-2.6512,-2.7285,-2.8487,-3.1122,-3.3814,-3.6656,-3.9798,-4.3928,-4.677,0.0,-4.8079,-4.8725,-4.9278,-4.9837,-5.0531,-5.1364,-5.0779,-5.0199,-4.9705,-4.886,-4.8299,-4.8001,-4.8001,-4.8001,-4.8001,-4.8001,-4.8001,-4.8001,-4.8001,-4.8001,-4.8001,-4.8001,-4.7801,0.0,-4.6431,-4.5821,-4.5533,-4.4582,-4.4298,-4.4412,-4.4468,-4.4468,-4.4497,-4.4587,-4.4784,-4.4987,-4.4716,-4.4615,-4.475,-4.5466,-4.5365,-4.5247,-4.6327,-4.6035,-4.5624,-4.6411,-4.624,-4.5891,-4.5891,-4.6081,-4.6263,-4.6263,-4.5785,-4.5267,-4.4962,-4.4834,-4.4516,-4.3792,-4.4114,-4.4278,-4.3594,-4.367,-4.3741,-4.3482,-4.348,-4.3314,-4.28,-4.2763,-4.256,-4.2112,-4.1781,-4.165,-4.1662,-4.1214,-4.0634,-3.9867,-3.9083,-3.8326,-3.7593,-3.7259,-3.7054,-3.6907,-3.6273,-3.5603,-3.4936,-3.4936,-3.4894,0.0,-2.75,-2.8963,-2.8963,-2.756,-2.5854,-2.4605,-2.346,0.0,-2.2613,-2.2673,-2.2942,-2.367,-2.4246,-2.4903,-2.5884,-2.7021,-2.8723,-3.1331,-3.4111,-3.7375,-4.1265,-4.3928,-4.5214,-4.4586,-4.677,-4.833,-4.8563,-4.8553,-4.8891,-4.9702,-4.916,-4.8788,-4.8723,-4.8846,-4.863,-4.8001,-4.8001,-4.8001,-4.8001,-4.8001,-4.8001,-4.8001,-4.7968,-4.7934,0.0,-4.7868,-4.7802,-4.7669,-4.6402,-4.5896,-4.5729,-4.4545,-4.4097,-4.4126,-4.427,-4.4293,-4.4355,-4.4497,-4.4998,-4.5505,-4.4857,-4.4654,-4.4818,-4.5534,-4.5737,-4.5872,-4.665,-4.6346,-4.594,-4.6684,-4.6819,-4.6786,-4.6786,-4.6675,-4.6515,-4.6446,-4.6222,-4.5835,-4.504,-4.4889,-4.4692,-4.4027,-4.4343,-4.4464,-4.3724,-4.415,-4.4273,-4.3541,-4.3466,-4.3499,-4.3497,-4.3497,-4.3497,-4.3515,-4.28,-4.2396,-4.2396,-4.239,-4.2055,-4.1314,-4.0582,-3.9845,-3.909,-3.8289,-3.7516,-3.6792,-3.6792,-3.6383,-3.5603,-3.5603,-3.5242,-2.1085,0.0,-2.2802,-2.2802,-2.2443,-2.2004,0.0,-2.1784,-2.1934,-2.1934,-2.2343,-2.3362,-2.5495,-2.5196,-2.583,-2.9507,-2.9953,-3.0731,-3.3395,-3.7375,-4.1294,-4.4766,-4.6142,-4.677,-4.6621,-4.716,-4.7817,-4.8532,-4.8122,-4.8177,-4.8976,-4.8453,-4.7903,-4.7289,-4.7312,-4.7537,-4.8001,-4.8001,-4.8001,-4.8001,-4.8001,-4.8001,-4.7968,-4.7404,-4.7139,-4.7139,-4.6543,-4.598,-4.545,-4.5147,-4.4743,-4.4364,-4.406,-4.4015,-4.4097,-4.4126,-4.4212,-4.4293,-4.4241,-4.4399,-4.4687,-4.5058,-4.5313,-4.5568,-4.6312,-4.6143,-4.5974,-4.7293,-4.7124,-4.6718,-4.7462,-4.7225,-4.6786,-4.6786,-4.6767,-4.6549,-4.6005,-4.5846,-4.5582,-4.4831,-4.4973,-4.4949,-4.4196,-4.4491,-4.4623,-4.3915,-4.3966,-4.3964,-4.3743,-4.3654,-4.3555,-4.3499,-4.3445,-4.3428,-4.3497,-4.3331,-4.3204,-4.3204,-4.267,-4.2263,-4.2145,-4.1367,-4.0603,-3.9882,-3.9112,-3.8368,-3.7634,-3.7634,-3.7188,-3.642,-3.642,-3.6,-1.9708,-2.0408,-2.1156,-2.1156,-2.1156,-2.1246,-2.1545,-2.1425,-2.1425,-2.2024,-2.2463,-2.3392,-2.5704,-2.5794,-2.6662,-3.0073,-3.0821,-3.2228,-3.5789,-3.923,-4.2491,-4.5514,-4.6441,-4.698,0.0,-4.7309,-4.7495,-4.7976,-4.741,-4.7221,-4.7639,-4.7115,-4.6629,-4.6216,-4.6239,-4.6653,-4.7438,-4.7438,-4.7638,-4.8001,-4.8001,-4.7835,-4.7471,-4.7073,-4.6709,-4.6378,-4.5947,-4.5549,-4.5152,-4.4821,-4.4517,-4.4212,-4.3879,-4.3805,-4.3894,-4.3952,-4.4039,-4.4126,-4.4097,-4.4155,-4.4313,-4.5081,-4.5173,-4.5163,-4.6241,-4.6309,-4.617,-4.7132,-4.7361,-4.7327,-4.7394,-4.7597,-4.7733,-4.7394,-4.7293,-4.709,-4.6346,-4.594,-4.5466,-4.475,-4.4797,-4.4851,-4.438,-4.4751,-4.4854,-4.4112,-4.4272,-4.4317,-4.3914,-4.3793,-4.3704,-4.3557,-4.3577,-4.3543,-4.3465,-4.348,-4.3515,-4.3515,-4.3094,-4.2854,-4.2887,-4.2132,-4.1372,-4.0603,-4.0236,-3.9682,-3.8952,-3.8952,-3.8373,-3.7238,-3.7238,-3.6829,-1.9947,-2.1017,-2.2013,-2.1635,-2.1844,-2.2233,-2.2613,-2.1874,-2.1485,-2.2733,-2.3062,-2.3781,-2.5824,-2.6662,-2.7794,-3.0011,-3.1599,-3.4111,-3.8661,-4.0756,-4.2731,-4.5155,-4.6052,0.0,-4.71,-4.7249,-4.7279,-4.716,-4.6531,-4.607,-4.6022,-4.5445,-4.5178,-4.5178,-4.5273,-4.5665,-4.6448,-4.6657,-4.7135,-4.7803,-4.7935,-4.7603,-4.6908,-4.6775,-4.6311,-4.5616,0.0,0.0,-4.5417,-4.4787,-4.4522,-4.4456,-4.383,-4.3598,-4.3628,-4.3809,-4.3868,-4.3927,-4.401,-4.4068,-4.4202,-4.4934,-4.47,-4.4365,-4.5704,-4.6106,-4.6166,-4.6334,-4.7166,-4.7872,-4.7022,-4.7902,-4.8781,-4.7906,-4.7872,-4.7868,-4.6989,-4.6413,-4.5838,-4.5089,-4.4953,-4.4953,-4.4953,-4.5275,-4.5264,-4.4448,-4.4833,-4.4879,-4.405,-4.4003,-4.3938,-4.3677,-4.3765,-4.372,-4.3488,-4.3523,-4.3538,-4.3497,-4.3515,-4.3515,-4.3515,-4.2727,-4.1952,-4.1204,-4.1267,-4.0849,-4.0015,-4.0126,-3.9466,-3.8066,-3.8066,-3.7596,-2.1077,-2.2574,-2.3326,-2.1366,-2.2512,-2.3887,-2.2912,-2.2942,-2.337,-2.4156,-2.4754,-2.5944,-2.8487,-2.9082,-3.0161,-3.3246,-3.5759,-3.8751,-4.2821,-4.3658,-4.4436,-4.595,0.0,-4.698,-4.6531,-4.698,-4.707,-4.6531,-4.5843,-4.5214,-4.4646,-4.3978,-4.3638,-4.3638,-4.3636,-4.4082,-4.4849,-4.6131,-4.6862,-4.6999,-4.7671,-4.7603,-4.6874,-4.6245,-4.5549,-4.4821,0.0,-4.3929,-4.3929,-4.3797,-4.3764,-4.3764,-4.3631,-4.3598,-4.3598,-4.3628,-4.3747,-4.3898,-4.3927,-4.3927,-4.4027,-4.479,-4.4612,-4.4265,-4.5131,-4.5366,-4.5265,-4.4658,-4.6522,-4.8391,-4.7128,-4.7902,-4.8646,-4.7293,-4.7936,-4.8477,-4.709,-4.7192,-4.7361,-4.6616,-4.6447,-4.6447,-4.6447,-4.6535,-4.6321,-4.5546,-4.5529,-4.5261,-4.4369,-4.4127,-4.4038,-4.3938,-4.3903,-4.3863,-4.374,-4.3763,-4.3685,-4.3517,-4.3515,-4.3515,-4.3515,-4.2727,-4.1952,-4.1204,-4.1204,-4.0514,-3.9091,-3.9793,-3.969,-3.8822,-3.8822,-3.8085,-2.0298,-2.2046,-2.3459,-2.2363,-2.4022,-2.5734,-2.4878,-2.4832,-2.526,-2.6366,-2.6837,-2.7786,-3.0195,-3.0941,-3.2347,-3.5998,-3.8846,-4.1212,-4.3,-4.3868,-4.4676,0.0,0.0,-4.68,-4.686,-4.68,-4.6651,-4.6309,-4.5364,-4.4646,-4.4317,-4.3648,-4.329,-4.329,-4.329,-4.3488,-4.3849,-4.4968,-4.5773,-4.6234,-4.6198,-4.6023,-4.5636,-4.4948,-4.4448,-4.4092,0.0,-4.3598,-4.3598,-4.3598,-4.3598,-4.3598,-4.3598,-4.3598,-4.3598,-4.3598,-4.3658,-4.375,-4.375,-4.375,-4.3783,-4.4145,-4.4042,-4.3968,-4.473,-4.493,-4.4863,-4.459,-4.621,-4.7634,-4.59,-4.7173,-4.8554,-4.7158,-4.7631,-4.824,-4.753,-4.7361,-4.7225,-4.6853,-4.6481,-4.6312,-4.6718,-4.6143,-4.5635,-4.5703,-4.5365,-4.4936,-4.4524,-4.4421,-4.4292,-4.4098,-4.4077,-4.4026,-4.3863,-4.3943,-4.3876,-4.3536,-4.3515,-4.3515,-4.3515,-4.2727,-4.234,-4.2426,-4.2022,-4.1466,-4.0793,-4.0735,-4.0302,-3.9564,-3.9201,-3.8391,-1.9998,-2.1598,-2.3253,-2.3474,-2.5241,-2.6949,-2.7195,-2.7122,-2.7453,-2.9032,-2.9502,-3.0063,-3.1544,-3.2795,-3.4797,-3.8512,-4.1242,-4.3039,-4.3489,-4.4377,-4.5214,-4.5693,-4.6232,-4.6741,-4.7249,-4.6711,-4.6219,-4.6082,-4.4975,-4.4257,-4.4077,-4.3559,-4.329,-4.329,-4.329,-4.329,-4.329,-4.3775,-4.4377,-4.519,-4.4835,-4.4493,-4.4104,-4.3816,-4.3582,-4.3355,-4.3539,-4.3598,-4.3598,-4.3598,-4.3598,-4.3598,-4.3598,-4.3598,-4.3598,-4.3598,-4.3598,-4.3598,-4.3598,-4.3598,-4.3598,-4.3598,-4.3598,-4.3698,-4.4257,-4.4423,-4.4453,-4.4577,-4.566,-4.638,-4.4682,-4.6219,-4.7894,-4.6499,-4.69,-4.7537,-4.7368,-4.7196,-4.7056,-4.7056,-4.6752,-4.665,-4.7225,-4.638,-4.5737,-4.6177,-4.5602,-4.5055,-4.4857,-4.4716,-4.4483,-4.4239,-4.4302,-4.4249,-4.4025,-4.3764,-4.3564,-4.3433,-4.3283,-4.3294,-4.3515,-4.2543,-4.2396,-4.3204,-4.2616,-4.2246,-4.2112,-4.1687,-4.0999,-4.0043,-3.9497,-3.8742,-2.1745,-2.2476,-2.3146,-2.4011,-2.5259,-2.6882,-2.9217,-2.9719,-3.0278,-3.2191,-3.3044,-3.3338,-3.2897,-3.5041,-3.7799,-4.0726,-4.2851,-4.4825,-4.6681,0.0,-4.71,-4.716,-4.7219,-4.7249,-4.7309,-4.6711,-4.6052,-4.5424,-4.4706,-4.4047,-4.3409,-4.3319,-4.329,-4.329,-4.329,-4.329,-4.329,-4.2809,-4.294,-4.3661,-4.4365,-4.3997,-4.2768,-4.3395,-4.3329,-4.271,-4.3325,-4.3598,-4.3598,-4.3598,-4.3598,-4.3598,-4.3598,-4.3598,-4.3598,-4.3598,-4.3598,-4.3598,-4.3598,-4.3598,-4.3598,-4.3598,-4.3598,-4.3598,-4.3664,-4.3664,-4.3664,-4.3694,-4.4288,-4.4776,-4.424,-4.5299,-4.6103,-4.4629,-4.5484,-4.641,-4.5736,-4.6764,-4.7804,-4.7804,-4.8342,-4.8781,-4.8849,-4.8748,-4.8477,-4.7838,-4.7124,-4.638,-4.5703,-4.5026,-4.4581,-4.4569,-4.4569,-4.4504,-4.4284,-4.2845,-4.2299,-4.3088,-4.2649,-4.2727,-4.3478,-4.2029,-4.1552,-4.2359,-4.2323,-4.1919,-4.1222,-4.1882,-4.1454,-4.0025,-3.9952,-3.9143,-2.079,-2.2214,-2.3711,-2.4422,-2.5875,-2.771,-2.9987,-3.1654,-3.3229,-3.4878,-3.6054,-3.6588,-3.6045,-3.7612,-3.9519,-4.0994,-4.3638,-4.5843,-4.6591,-4.704,-4.7309,-4.7309,-4.7309,-4.7309,-4.7309,-4.6322,-4.5574,-4.5304,-4.4317,-4.3559,-4.329,-4.329,-4.329,-4.329,-4.294,-4.2731,-4.2731,-4.2111,-4.1723,-4.16,-4.1864,-4.2235,-4.2537,-4.2391,-4.2686,-4.3235,-4.3509,-4.3598,-4.3598,-4.3598,-4.3598,-4.3598,-4.3598,-4.3598,-4.3598,-4.3598,-4.3598,-4.3598,-4.3598,-4.3598,-4.3598,-4.3598,-4.3598,-4.3598,-4.3598,-4.3598,-4.3598,-4.3598,-4.3797,-4.3989,-4.3994,-4.5053,-4.5918,-4.5001,-4.5261,-4.5757,-4.6014,-4.6237,-4.6634,-4.7703,-4.7767,-4.7902,-4.8849,-4.7868,-4.7158,-4.7804,-4.6481,-4.55,-4.5669,-4.506,-4.4412,-4.391,-4.3842,-4.3674,-4.3202,-4.3286,-4.315,-4.2624,-4.2099,-4.2196,-4.3087,-4.2314,-4.1992,-4.2286,-4.1809,-4.1662,-4.1846,-4.1662,-4.1258,-4.0666,-4.073,-3.9651,-2.0436,-2.1946,-2.3775,-2.4592,-2.6564,-2.9,-3.1649,-3.3507,-3.5276,-3.7274,-3.8068,-3.8347,-3.8164,-3.8996,-4.0129,-4.1313,-4.4026,-4.6142,-4.6561,-4.701,-4.7219,-4.701,-4.698,-4.692,-4.6681,-4.5633,-4.4975,-4.4975,-4.3958,-4.329,-4.329,-4.315,-4.303,-4.303,-4.2402,-4.2081,-4.2081,-4.1414,-4.0846,-4.0397,-4.0187,-4.0582,-4.1507,-4.1278,-4.1722,-4.2648,-4.3113,-4.3265,-4.3295,-4.3509,-4.3598,-4.3598,-4.3598,-4.3598,-4.3598,-4.3598,-4.3598,-4.3598,-4.3598,-4.3598,-4.3598,-4.3598,-4.3598,-4.3598,-4.3598,-4.3598,-4.3598,-4.3598,-4.3598,-4.3628,-4.3747,-4.4541,-4.5233,-4.479,-4.4745,-4.4938,-4.5529,-4.5518,-4.5744,-4.7113,-4.7177,-4.7379,-4.8689,-4.7706,-4.6963,-4.777,-4.6616,-4.5669,-4.5703,-4.5263,-4.4553,-4.3511,-4.3375,-4.3227,-4.2826,-4.3134,-4.3047,-4.2403,-4.1696,-4.1586,-4.2181,-4.1851,-4.1771,-4.2062,-4.1669,-4.1772,-4.2286,-4.1772,-4.1205,-4.0744,-4.0772,-3.9789,-2.1191,-2.1953,-2.3235,-2.4534,-2.726,-3.0625,-3.4549,-3.5421,-3.6322,-3.9479,-3.9102,-3.8344,-3.8745,-3.8856,-3.9691,-4.2004,-4.4018,-4.5753,-4.71,-4.7279,-4.704,-4.6381,-4.6279,-4.6052,-4.5364,-4.4706,-4.4317,-4.4317,-4.3648,-4.329,-4.326,-4.2701,-4.2381,-4.2381,-4.1752,-4.1384,-4.1384,-4.0726,-4.0397,-4.0397,-3.9738,-3.9409,-3.9445,-4.0196,-4.0512,-4.0581,-4.1981,-4.2585,-4.2648,-4.3295,-4.3598,-4.3598,-4.3598,-4.3598,-4.3598,-4.3598,-4.3598,-4.3598,-4.3598,-4.3598,-4.3598,-4.3598,-4.3598,-4.3598,-4.3598,-4.3598,-4.3598,-4.3598,-4.3598,-4.3598,-4.3598,-4.3598,-4.3598,-4.3598,-4.378,-4.3898,-4.3898,-4.4578,-4.5433,-4.614,-4.6876,-4.7709,-4.8635,-4.8801,-4.8596,-4.8007,-4.7906,-4.7331,-4.5906,-4.5703,-4.5094,-4.3544,-4.3375,-4.3375,-4.3375,-4.2049,-4.156,-4.2438,-4.1474,-4.0847,-4.0719,-4.0391,-4.0618,-4.145,-4.1991,-4.2286,-4.2286,-4.2286,-4.1442,-3.99,-3.9916,-3.9506,-2.1888,-2.3281,-2.5255,-2.6506,-2.961,-3.3093,-3.6054,-3.7041,-3.826,-4.1482,-4.1134,-4.0274,-4.0392,-4.0549,-4.0734,-4.0998,-4.293,-4.4519,-4.4906,-4.552,-4.5813,-4.5633,-4.5603,-4.5514,-4.5304,-4.4706,-4.4107,-4.3618,-4.303,-4.2432,-4.1983,-4.1658,-4.1492,-4.1492,-4.0715,-4.0359,-4.0479,-3.9824,-3.9563,-3.9709,-3.9529,-3.9696,-4.0165,-4.0409,-4.0786,-4.1227,-4.1656,-4.1819,-4.1884,-4.2617,-4.3174,-4.3598,-4.3598,-4.3598,-4.3598,-4.3598,-4.3598,-4.3598,-4.3598,-4.3598,-4.3598,-4.3598,-4.3598,-4.3598,-4.3598,-4.3598,-4.3598,-4.3598,-4.3992,-4.4257,-4.3731,-4.3992,-4.4257,-4.3698,-4.4056,-4.4378,-4.3968,-4.4094,-4.4549,-4.5369,-4.6106,-4.6907,-4.7675,-4.7809,-4.7972,-4.8461,-4.7585,-4.6604,-4.5776,-4.4756,-4.3707,-4.2726,-4.2151,-4.1644,-4.1102,-4.161,-4.1636,-4.0875,-4.1002,-4.0841,-4.0211,-4.0415,-4.0198,-3.9401,-3.9806,-4.0124,-4.0176,-4.0484,-4.0377,-3.99,-4.0487,-4.0026,-2.2301,-2.4036,-2.6213,-2.8014,-3.138,-3.4927,-3.7476,-3.9131,-4.0728,-4.2934,-4.2179,-4.1204,-4.1546,-4.1288,-4.1115,-4.1341,-4.2788,-4.3956,-4.4252,-4.4816,-4.509,-4.4821,-4.4874,-4.4665,-4.4116,-4.3738,-4.319,-4.2376,-4.2115,-4.1803,-4.13,-4.0918,-4.0694,-4.0694,-3.9853,-3.9461,-3.9572,-3.9187,-3.9053,-3.9265,-3.9265,-3.9589,-4.0056,-4.0056,-4.027,-4.0653,-4.0959,-4.126,-4.1525,-4.1981,-4.2585,-4.3204,-4.3204,-4.3355,-4.3598,-4.3598,-4.3598,-4.3598,-4.3598,-4.3598,-4.3598,-4.3598,-4.3598,-4.3598,-4.3598,-4.3598,-4.3598,-4.3598,-4.3926,-4.4158,-4.3698,-4.4357,-4.4953,-4.4224,-4.439,-4.4586,-4.4278,-4.4208,-4.4471,-4.529,-4.579,-4.6455,-4.7521,-4.7721,-4.7818,-4.8174,-4.6992,-4.6039,-4.6026,-4.4733,-4.347,-4.2388,-4.2151,-4.1677,-4.0595,-4.161,-4.1779,-4.0595,-4.0933,-4.0696,-3.9663,-4.0066,-3.9772,-3.8602,-3.9037,-3.9247,-3.9243,-3.9448,-3.952,-3.9423,-3.9937,-3.9627,-2.2765,-2.4471,-2.6533,-2.9203,-3.2832,-3.638,-3.8812,-4.1163,-4.2992,-4.3602,-4.2469,-4.1552,-4.2252,-4.1416,-4.1056,-4.2342,-4.3101,-4.3691,-4.431,-4.4566,-4.4454,-4.3861,-4.3875,-4.3449,-4.209,-4.2166,-4.179,-4.082,-4.1067,-4.1151,-4.0901,-4.0299,-3.9943,-3.9943,-3.9166,-3.876,-3.876,-3.876,-3.887,-3.9053,-3.909,-3.9192,-3.9337,-3.9373,-3.9373,-3.9445,-4.0126,-4.0755,-4.1393,-4.1393,-4.1852,-4.2522,-4.2585,-4.2958,-4.3539,-4.3598,-4.3598,-4.3598,-4.3598,-4.3598,-4.3598,-4.3598,-4.3598,-4.3598,-4.3598,-4.3598,-4.3598,-4.3598,-4.3698,-4.3764,-4.3631,-4.4688,-4.5616,-4.4884,-4.4787,-4.4854,-4.4787,-4.4818,-4.4986,-4.5649,-4.5847,-4.6374,-4.783,-4.8129,-4.7994,-4.755,-4.6431,-4.5879,-4.6447,-4.5448,-4.4079,-4.2557,-4.2963,-4.2726,-4.1339,-4.1813,-4.188,-4.1136,-4.1102,-4.0493,-3.914,-3.9444,-3.9282,-3.8564,-3.9033,-3.9142,-3.8851,-3.8887,-3.8787,-3.858,-3.8611,-3.8627,-2.4239,-2.5487,-2.7459,-3.1003,-3.5154,-3.8783,-4.035,-4.1105,-4.1541,-4.1686,-4.2615,-4.3253,-4.2889,-4.2262,-4.168,-4.1459,-4.1679,-4.1917,-4.2063,-4.2254,-4.2345,-4.2197,-4.1804,-4.1429,-4.1124,-4.1133,-4.0829,-4.0064,-4.0081,-3.9882,-3.9313,-3.9017,-3.8818,-3.8818,-3.8514,-3.8389,-3.8538,-3.8538,-3.8649,-3.887,-3.9017,-3.9017,-3.8943,-3.9265,-3.9373,-3.9409,-3.9589,-4.0056,-4.0718,-4.0718,-4.1127,-4.1787,-4.2396,-4.2679,-4.2865,-4.3386,-4.3598,-4.3598,-4.3598,-4.3598,-4.3598,-4.3598,-4.3598,-4.3598,-4.3598,-4.3598,-4.3598,-4.3598,-4.4456,-4.5052,-4.3896,-4.4688,-4.5616,-4.4884,-4.5582,-4.6278,-4.5682,-4.5549,-4.5616,-4.5748,-4.6278,-4.6775,-4.7105,-4.7668,-4.8032,-4.8028,-4.7918,-4.7505,-4.6619,-4.577,-4.4715,-4.3308,-4.2794,-4.2185,-4.1271,-4.1339,-4.1102,-4.0383,-4.035,-4.0214,-3.9876,-3.888,-3.8012,-3.7285,-3.717,-3.7085,-3.713,-3.7458,-3.7593,-3.7506,-3.7912,-3.8065,-2.3688,-2.5575,-2.8448,-3.3558,-3.7041,-3.9305,-3.9625,-3.9973,-4.0089,-3.977,-4.0989,-4.2121,-4.2092,-4.157,-4.1018,-4.067,-4.0731,-4.0771,-4.0771,-4.0998,-4.1116,-4.1116,-4.0939,-4.0654,-4.0215,-4.0262,-3.9959,-3.9094,-3.8921,-3.8819,-3.8649,-3.8282,-3.8208,-3.8501,-3.8015,-3.7804,-3.7915,-3.7623,-3.7558,-3.7739,-3.8171,-3.8391,-3.8391,-3.8644,-3.8823,-3.8901,-3.8601,-3.8662,-3.9043,-3.9347,-3.9917,-4.0622,-4.1333,-4.1787,-4.211,-4.2491,-4.2803,-4.3113,-4.3113,-4.3325,-4.3598,-4.3598,-4.3598,-4.3598,-4.3598,-4.3598,-4.3598,-4.3598,-4.4423,-4.5086,-4.4324,-4.4953,-4.5781,-4.5748,-4.5781,-4.5814,-4.5814,-4.5781,-4.5881,-4.6245,-4.6643,-4.7007,-4.7371,-4.7438,-4.7503,-4.7568,-4.7095,-4.6516,-4.5808,-4.5161,-4.4375,-4.3317,-4.2846,-4.22,-4.1201,-4.11,-4.0814,-4.0146,-4.0113,-4.0113,-4.0113,-3.9005,-3.8082,-3.7407,-3.6478,-3.6165,-3.6498,-3.6721,-3.6943,-3.7192,-3.7451,-3.7685,-2.2736,-2.5578,-2.9552,-3.5241,-3.7767,-3.8754,-3.8289,-3.8638,-3.8899,-3.8463,-3.9218,-4.0147,-4.0815,-4.0379,-3.9944,-3.9944,-3.9944,-3.9944,-3.9944,-4.013,-4.0247,-4.013,-4.0255,-3.9971,-3.9057,-3.9199,-3.8956,-3.7949,-3.7711,-3.7761,-3.8076,-3.7645,-3.7587,-3.8105,-3.7463,-3.7128,-3.7128,-3.6577,-3.6387,-3.6529,-3.7119,-3.7497,-3.7742,-3.7701,-3.7842,-3.8147,-3.7644,-3.7404,-3.7434,-3.8003,-3.8655,-3.9388,-4.0043,-4.073,-4.1327,-4.1459,-4.1884,-4.2428,-4.2554,-4.2958,-4.3479,-4.3568,-4.3598,-4.3598,-4.3598,-4.3598,-4.3598,-4.3598,-4.4125,-4.4655,-4.4522,-4.5052,-4.5715,-4.6212,-4.5384,-4.4821,-4.5947,-4.598,-4.6046,-4.6908,-4.7073,-4.7272,-4.7901,-4.7504,-4.704,-4.6908,-4.5941,-4.5169,-4.4933,-4.4519,-4.3968,-4.326,-4.316,-4.2646,-4.1278,-4.117,-4.0819,-4.0096,-4.0062,-4.0087,-4.0113,-3.9402,-3.87,-3.8091,-3.6603,-3.6014,-3.6456,-3.6318,-3.6498,-3.6923,-3.702,-3.7267,-2.3426,-2.691,-3.083,-3.3387,-3.5793,-3.768,-3.8115,-3.826,-3.8463,-3.8957,-3.9189,-3.9509,-4.0118,-3.9741,-3.9334,-3.9334,-3.9334,-3.9334,-3.9334,-3.9373,-3.914,-3.8588,-3.8539,-3.8074,-3.6845,-3.7288,-3.731,-3.6606,-3.6525,-3.6532,-3.6583,-3.6525,-3.6496,-3.6583,-3.6489,-3.6431,-3.6431,-3.6344,-3.6315,-3.6351,-3.6438,-3.6681,-3.7004,-3.627,-3.6468,-3.7347,-3.7396,-3.7404,-3.7434,-3.7494,-3.7952,-3.8637,-3.9348,-4.0023,-4.0718,-4.1294,-4.1558,-4.1722,-4.2396,-4.2648,-4.2834,-4.3386,-4.3598,-4.3598,-4.3598,-4.3598,-4.3598,-4.3598,-4.4125,-4.4556,-4.3926,-4.4291,-4.4688,-4.4161,-4.3896,-4.4459,-4.7139,-4.6709,-4.6212,-4.7603,-4.7868,-4.7901,-4.7968,-4.7934,-4.7636,-4.7007,-4.6774,-4.6208,-4.5036,-4.4863,-4.459,-4.4001,-4.3963,-4.3361,-4.1915,-4.1781,-4.1231,-4.0011,-3.991,-3.9986,-4.0113,-3.9402,-3.8937,-3.887,-3.7405,-3.6683,-3.6741,-3.6039,-3.5722,-3.581,-3.6291,-3.6539,-2.45,-2.6704,-2.9116,-3.1729,-3.3499,-3.4777,-3.5415,-3.5822,-3.617,-3.646,-3.6809,-3.7564,-3.9276,-3.9073,-3.8522,-3.8202,-3.8434,-3.8522,-3.8173,-3.8144,-3.8028,-3.7738,-3.736,-3.6925,-3.6373,-3.6577,-3.6635,-3.6315,-3.5996,-3.5938,-3.6286,-3.5967,-3.5793,-3.5793,-3.5415,-3.5241,-3.5241,-3.4893,-3.5101,-3.5799,-3.5415,-3.552,-3.6043,-3.54,-3.5595,-3.6458,-3.6242,-3.616,-3.619,-3.6683,-3.7255,-3.7918,-3.8625,-3.9273,-3.9915,-4.02,-4.0581,-4.0992,-4.1294,-4.1656,-4.2013,-4.2301,-4.2396,-4.2522,-4.2896,-4.3052,-4.3113,-4.3509,-4.4125,-4.4622,-4.4291,-4.4456,-4.4721,-4.4821,-4.4194,-4.4161,-4.6311,-4.6245,-4.6245,-4.7703,-4.8001,-4.8001,-4.8001,-4.7669,-4.7272,-4.6941,-4.6179,-4.5448,-4.4846,-4.4447,-4.4079,-4.3839,-4.3103,-4.2532,-4.235,-4.1249,-4.0528,-4.0393,-4.0016,-3.9858,-3.9986,-3.9682,-3.9539,-3.9639,-3.8159,-3.7415,-3.7415,-3.6637,-3.6265,-3.6265,-3.6036,-3.6101,-2.4239,-2.54,-2.6852,-2.9204,-3.0945,-3.2193,-3.2832,-3.3732,-3.4457,-3.4632,-3.5154,-3.6235,-3.8115,-3.8202,-3.7767,-3.7157,-3.7564,-3.7767,-3.7128,-3.7041,-3.6983,-3.6838,-3.6519,-3.617,-3.5851,-3.5967,-3.5996,-3.5851,-3.5386,-3.5328,-3.5793,-3.5212,-3.4927,-3.4927,-3.4254,-3.3935,-3.3935,-3.3616,-3.3968,-3.4898,-3.4574,-3.4661,-3.5131,-3.4767,-3.4932,-3.5477,-3.5241,-3.51,-3.5192,-3.5896,-3.6529,-3.7157,-3.7814,-3.8536,-3.9134,-3.9277,-3.9702,-4.0235,-4.0443,-4.0854,-4.126,-4.1459,-4.1492,-4.1591,-4.2142,-4.2459,-4.271,-4.3204,-4.3872,-4.4423,-4.4423,-4.4423,-4.4556,-4.5119,-4.4423,-4.3896,-4.5019,-4.5516,-4.6046,-4.6974,-4.7471,-4.7736,-4.7736,-4.7272,-4.6841,-4.6643,-4.5516,-4.4622,-4.4423,-4.3794,-4.34,-4.3565,-4.244,-4.1934,-4.2579,-4.1012,-4.0201,-4.0729,-4.006,-3.9703,-3.9833,-3.9833,-3.9884,-4.0011,-3.8931,-3.8314,-3.8193,-3.7246,-3.6795,-3.6795,-3.5994,-3.581,-2.1394,-2.3026,-2.494,-2.5114,-2.7955,-3.0859,-3.1467,-3.3064,-3.4574,-3.5218,-3.5822,-3.6286,-3.6431,-3.6954,-3.7128,-3.646,-3.6925,-3.7128,-3.646,-3.6373,-3.6141,-3.5566,-3.5967,-3.5851,-3.4632,-3.5067,-3.5189,-3.4574,-3.4486,-3.4486,-3.4516,-3.3906,-3.359,-3.359,-3.2948,-3.2597,-3.2597,-3.3213,-3.3532,-3.362,-3.4138,-3.4428,-3.4457,-3.4428,-3.4428,-3.4491,-3.4798,-3.4935,-3.4935,-3.5192,-3.5644,-3.6297,-3.6916,-3.7709,-3.8512,-3.8954,-3.9265,-3.9553,-4.0235,-4.0512,-4.065,-4.1294,-4.1492,-4.1525,-4.1558,-4.2045,-4.2617,-4.2648,-4.3146,-4.3664,-4.3664,-4.3664,-4.3664,-4.3698,-4.3664,-4.3598,-4.3698,-4.4821,-4.5616,-4.4986,-4.598,-4.6974,-4.6974,-4.6941,-4.6643,-4.5947,-4.5185,-4.4456,-4.3731,-4.3002,-4.2837,-4.3532,-4.2903,-4.244,-4.2502,-4.1773,-4.11,-4.0634,-3.9901,-3.958,-3.9703,-3.9703,-3.9703,-3.9729,-3.9765,-3.9522,-3.8937,-3.7506,-3.6795,-3.6795,-3.5994,-3.5622,-2.2272,-2.291,-2.3809,-2.465,-2.5894,-2.7227,-2.8245,-2.9958,-3.1526,-3.2196,-3.3503,-3.4603,-3.5009,-3.5938,-3.646,-3.5793,-3.6257,-3.6431,-3.5793,-3.5741,-3.5654,-3.5421,-3.5212,-3.4922,-3.4457,-3.4632,-3.4661,-3.4428,-3.4399,-3.4225,-3.3819,-3.362,-3.3126,-3.2251,-3.199,-3.1843,-3.1843,-3.2542,-3.3064,-3.3503,-3.3736,-3.4022,-3.4399,-3.4399,-3.4399,-3.4399,-3.4534,-3.4635,-3.4798,-3.4935,-3.5385,-3.6069,-3.6714,-3.7434,-3.8157,-3.8852,-3.9053,-3.9053,-3.9487,-3.9595,-3.9666,-3.9884,-3.999,-4.006,-4.0547,-4.1093,-4.1591,-4.169,-4.2459,-4.3204,-4.2865,-4.3019,-4.3265,-4.3265,-4.3388,-4.3479,-4.3479,-4.4329,-4.5152,-4.5351,-4.6212,-4.6742,-4.6278,-4.6576,-4.6643,-4.5914,-4.5152,-4.4589,-4.4324,-4.3661,-4.33,-4.3565,-4.2506,-4.2005,-4.244,-4.1011,-4.0177,-4.0464,-3.9767,-3.9448,-3.958,-3.958,-3.9599,-3.9703,-3.9755,-3.9698,-3.959,-3.8676,-3.7956,-3.7483,-3.6705,-3.6096,-2.2649,-2.2765,-2.3091,-2.4007,-2.4384,-2.4878,-2.6155,-2.7781,-2.9204,-3.0074,-3.1613,-3.3006,-3.3674,-3.4632,-3.5299,-3.5101,-3.559,-3.5764,-3.516,-3.5072,-3.5072,-3.5072,-3.4661,-3.4399,-3.4399,-3.4399,-3.4399,-3.4399,-3.4399,0.0,-3.379,-3.3416,-3.2542,-3.1235,-3.1206,-3.1206,-3.1206,-3.1845,-3.2396,-3.2803,-3.3067,-3.347,-3.4109,-3.4109,-3.4225,-3.4399,-3.4399,-3.4496,-3.4597,-3.4769,-3.51,-3.557,-3.6452,-3.7105,-3.7647,-3.8575,-3.887,-3.8833,-3.8943,-3.898,-3.898,-3.898,-3.898,-3.909,-3.9565,-4.0165,-4.0687,-4.1028,-4.1885,-4.271,-4.2617,-4.2648,-4.2709,-4.2709,-4.2834,-4.2988,-4.3235,-4.3812,-4.4395,-4.4986,-4.5649,-4.6013,-4.5516,-4.5814,-4.598,-4.5483,-4.4787,-4.4324,-4.4324,-4.3694,-4.3333,-4.3565,-4.2506,-4.2071,-4.2804,-4.1342,-4.058,-4.1077,-4.021,-3.9707,-3.9787,-3.9581,-3.9475,-3.9547,-3.9599,-3.9677,-3.9755,-3.9143,-3.8511,-3.7769,-3.7027,-3.6274,0.0,0.0,0.0,-2.2888,-2.3374,-2.4152,-2.5454,-2.6707,-2.7956,-2.9233,-3.0509,-3.1611,-3.2278,-3.2948,-3.362,-3.4225,-3.4893,-3.516,-3.4486,-3.4399,-3.4399,-3.4399,-3.4399,-3.4399,-3.4399,-3.4399,-3.4399,-3.4399,-3.4399,-3.4399,-3.437,-3.318,-3.1903,-3.0656,-3.0598,-3.0598,-3.0598,-3.1177,-3.1466,-3.1495,-3.2133,-3.2832,-3.3474,-3.3503,-3.379,-3.437,-3.4399,-3.4399,-3.4428,-3.4597,-3.4698,-3.4815,-3.6102,-3.6734,-3.6987,-3.8099,-3.8612,-3.8797,-3.8797,-3.8797,-3.8797,-3.8797,-3.8797,-3.8797,-3.8797,-3.9313,-4.003,-4.0752,-4.1459,-4.2173,-4.2898,-4.2585,-4.2046,-4.2046,-4.2046,-4.2205,-4.2927,-4.3235,-4.3449,-4.3568,-4.4161,-4.4688,-4.4655,-4.4688,-4.4688,-4.4655,-4.4059,-4.3598,-4.3598,-4.2969,-4.2804,-4.3499,-4.2936,-4.2771,-4.3499,-4.287,-4.244,-4.244,-4.1143,-4.0409,-4.0376,-3.968,-3.9315,-3.9315,-3.9448,-3.9501,-3.9501,-3.8897,-3.8204,-3.7492,-3.6731,-3.6041,-2.2707,0.0,0.0,0.0,0.0,0.0,-2.3519,-2.4331,-2.5313,-2.6591,-2.8245,-2.9668,-3.0277,-3.0945,-3.1615,-3.2222,-3.3645,-3.4603,-3.4428,-3.4399,-3.4399,-3.4399,-3.4399,-3.4399,-3.4399,-3.4399,-3.4399,0.0,-3.4399,-3.4225,-3.3794,-3.2513,-3.1438,-3.0627,-3.0598,-3.0598,-3.0598,-3.0772,-3.1061,-3.1495,-3.1669,-3.2135,-3.2803,-3.33,-3.359,-3.3794,-3.4225,-3.4399,-3.4399,-3.4462,-3.4496,-3.4612,-3.5892,-3.6422,-3.6603,-3.7996,-3.8427,-3.8389,-3.8538,-3.8575,-3.8575,-3.8575,-3.8575,-3.8575,-3.8575,-3.8987,-3.9517,-3.9808,-4.0725,-4.171,-4.2484,-4.3073,-4.3297,-4.2589,-4.2555,-4.2711,-4.293,-4.2992,-4.3084,-4.3204,-4.3826,-4.4185,-4.3659,-4.4113,-4.437,-4.3842,-4.3671,-4.3598,-4.3598,-4.3433,-4.3367,-4.3565,-4.2936,-4.2572,-4.2771,-4.2109,-4.1508,-4.1011,-4.0641,-4.0177,-3.9647,-3.9415,-3.9315,-3.9315,-3.9342,-3.9369,-3.9369,-3.8872,-3.8204,-3.7492,-3.6195,-3.5515,-2.3809,-2.3722,-2.3722,-2.3722,0.0,0.0,-2.3229,-2.363,-2.4181,-2.5197,-2.653,-2.7752,-2.8623,-2.9348,-2.9987,-3.0626,-3.2075,-3.3296,-3.3554,-3.3616,-3.3616,-3.3616,-3.3616,-3.3616,-3.3616,-3.3616,-3.3732,-3.3993,-3.4022,-3.3732,-3.3122,-3.2338,-3.1526,-3.0627,-3.0598,-3.0598,-3.0598,-3.0598,-3.0801,-3.1119,-3.1119,-3.1467,-3.2135,-3.2774,-3.3242,-3.3532,-3.4138,-3.4399,-3.4399,-3.4399,-3.4399,-3.4545,-3.5822,-3.6315,-3.646,-3.7849,-3.8277,-3.8202,-3.8315,-3.8352,-3.8352,-3.8352,-3.8352,-3.8352,-3.8352,-3.8583,-3.89,-3.9313,-4.0179,-4.1058,-4.1476,-4.1838,-4.1998,-4.1719,-4.1525,-4.1656,-4.2586,-4.2269,-4.2078,-4.2959,-4.344,-4.3604,-4.3178,-4.3565,-4.3758,-4.3331,-4.3325,-4.3386,-4.3386,-4.3386,-4.3416,-4.3509,-4.3142,-4.2877,-4.2936,-4.2539,-4.2038,-4.1309,-4.0978,-4.0481,-3.9779,-3.9448,-3.9315,-3.9315,-3.9315,-3.9017,-3.8361,-3.8417,-3.7894,-3.6852,-3.5995,-3.5475,-2.5251,-2.511,-2.5081,-2.5023,-2.4588,0.0,-2.3972,-2.3972,-2.4123,-2.4588,-2.5197,-2.6039,-2.7173,-2.7984,-2.8681,-2.9291,-3.0335,-3.135,-3.2162,-3.2394,-3.2454,-3.2338,-3.2394,-3.2452,-3.2394,-3.2452,-3.2745,-3.3358,-3.3387,-3.3126,-3.2394,-3.2365,-3.1845,-3.0656,-3.0598,-3.0598,-3.0598,-3.0598,-3.0598,-3.0598,-3.0598,-3.0858,-3.1438,-3.2133,-3.2832,-3.3445,-3.4109,-3.4399,-3.4399,-3.4399,-3.4399,-3.4545,-3.5735,-3.6257,-3.646,-3.7651,-3.8144,-3.8202,-3.8202,-3.8202,-3.8202,-3.8202,-3.8202,-3.8202,-3.8202,-3.8202,-3.8352,-3.9083,-3.9864,-4.0471,-4.0334,-3.9925,-3.9666,-4.0274,-3.9894,-3.9964,-4.1948,-4.1393,-4.0961,-4.249,-4.2865,-4.2927,-4.3052,-4.3082,-4.3082,-4.3082,-4.3082,-4.3113,-4.3113,-4.3113,-4.3174,-4.3358,-4.3388,-4.3386,-4.3539,-4.3568,-4.3238,-4.251,-4.1877,-4.121,-4.0542,-3.9812,-3.9415,-3.9415,-3.9348,-3.8593,-3.7235,-3.7871,-3.7466,-3.6009,-3.6075,-3.5826,-2.6326,-2.6442,-2.6297,0.0,-2.5948,0.0,-2.4239,-2.4297,-2.4442,-2.349,-2.4215,-2.5085,-2.54,-2.6387,-2.7374,-2.7956,-2.8275,-2.9029,-3.0713,-3.1845,-3.2135,-3.109,-3.1874,-3.2278,-3.1727,-3.2162,-3.2571,-3.2687,-3.2716,-3.2425,-3.1727,-3.1698,-3.138,-3.0627,-3.0598,-3.0598,-3.0598,-3.0598,-3.0598,-3.0598,-3.0598,-3.0656,-3.083,-3.199,-3.2568,-3.2774,-3.3906,-3.4399,-3.4399,-3.4399,-3.4399,-3.4486,-3.5276,-3.5851,-3.6402,-3.7186,-3.7796,-3.8202,-3.8202,-3.8202,-3.8202,-3.8202,-3.8202,-3.8202,-3.8202,-3.8202,-3.8356,-3.9031,-4.0173,-4.1069,-4.0457,-4.0692,-4.0953,-4.0505,-4.0278,-4.0313,-4.0724,-4.1062,-4.1196,-4.0961,-4.1395,-4.1981,-4.2586,-4.2805,-4.2961,-4.2961,-4.3021,-4.3113,-4.3113,-4.3113,-4.3113,-4.3143,-4.3174,-4.3174,-4.3204,-4.3358,-4.3119,-4.2397,-4.2315,-4.1972,-4.1243,-4.0547,-4.0177,-4.0177,-3.9613,-3.8858,-3.7996,-3.8103,-3.7466,-3.6009,-3.6605,-3.6804,0.0,0.0,0.0,-2.691,0.0,0.0,0.0,-2.4849,-2.4791,-2.4442,-2.4592,-2.5052,-2.572,-2.6123,-2.6504,-2.7142,-2.7492,-2.7927,-2.8622,-2.9784,-3.0364,-2.9726,-3.0219,-3.048,-3.0132,-3.0684,-3.1321,-3.193,-3.2307,-3.2191,-3.1524,-3.1495,-3.1235,-3.0627,-3.0598,-3.0598,-3.0598,-3.0598,-3.0598,-3.0598,-3.0598,-3.0598,-3.0627,-3.1584,-3.2162,-3.2539,-3.3529,-3.4109,-3.4399,-3.4399,-3.4399,-3.4486,-3.516,-3.5799,-3.6373,-3.707,-3.768,-3.8202,-3.8202,-3.8202,-3.8202,-3.8202,-3.8202,-3.8202,-3.8202,-3.8202,-3.8347,-3.9015,-3.9466,-3.9807,-3.977,-3.9802,-3.9854,-3.9844,-3.954,-3.9505,-4.0243,-4.0104,-3.9964,-4.0313,-4.0382,-4.0758,-4.1884,-4.2429,-4.2744,-4.2744,-4.2805,-4.2836,-4.2836,-4.2836,-4.2898,-4.299,-4.299,-4.3021,-4.3113,-4.3204,-4.2939,-4.2186,-4.2209,-4.191,-4.1218,-4.0941,-4.0662,-4.0409,-3.968,-3.895,-3.8202,-3.856,-3.7996,-3.6572,-3.7301,-3.7466,0.0,0.0,0.0,0.0,0.0,-2.7578,0.0,0.0,0.0,-2.5803,0.0,0.0,0.0,0.0,0.0,-2.6559,0.0,0.0,0.0,-2.7605,0.0,-2.8331,-2.8564,-2.8651,-2.8507,-2.9174,-3.0016,-3.106,-3.1758,-3.1845,-3.1147,-3.1264,-3.109,-3.0627,-3.0598,-3.0598,-3.0598,-3.0598,-3.0598,-3.0598,-3.0598,-3.0598,-3.0627,-3.1235,-3.1843,-3.2542,-3.318,-3.3819,-3.4399,-3.4399,-3.4399,-3.4457,-3.498,-3.5648,-3.6373,-3.6925,-3.7564,-3.8202,-3.8202,-3.8202,-3.8202,-3.8202,-3.8202,-3.8202,-3.8202,-3.8202,-3.8318,-3.887,-3.8609,-3.8318,-3.887,-3.8609,-3.8352,-3.8957,-3.862,-3.8509,-3.9718,-3.9139,-3.873,-3.9753,-3.9718,-3.9929,-4.1294,-4.1884,-4.2269,-4.2555,-4.2492,-4.2429,-4.2586,-4.2586,-4.2681,-4.2837,-4.2837,-4.2899,-4.299,-4.3052,-4.279,-4.2201,-4.2198,-4.1969,-4.1413,-4.1366,-4.1082,-4.053,-3.977,-3.9109,-3.852,-3.9003,-3.8566,-3.7334,-3.8063,-3.8096,0.0,0.0,0.0,0.0,-3.1061,0.0,0.0,0.0,-2.7808,-2.6152,0.0,0.0,0.0,0.0,0.0,0.0,0.0,0.0,-2.6006,-2.6559,-2.7023,-2.7023,-2.8011,-2.8448,-2.7869,-2.8884,-2.9639,-2.9784,-3.0422,-3.051,-2.9842,-3.0364,-3.0685,-3.0598,-3.0598,-3.0598,-3.0598,-3.0598,-3.0598,-3.0598,-3.0598,-3.0598,-3.0627,-3.1235,-3.1843,-3.2542,-3.318,-3.3819,-3.4399,-3.4399,-3.4399,-3.4428,-3.4486,-3.5241,-3.6315,-3.6402,-3.7186,-3.8202,-3.8202,-3.8202,-3.8202,-3.8202,-3.8202,-3.8202,-3.8202,-3.8202,-3.8231,-3.8289,-3.826,-3.8231,-3.8289,-3.826,-3.824,-3.8315,-3.8277,-3.824,-3.8397,-3.8841,-3.903,-3.8546,-3.9463,-4.0519,-4.136,-4.1028,-4.1062,-4.2397,-4.2045,-4.1884,-4.2523,-4.2586,-4.2586,-4.2618,-4.2618,-4.2618,-4.2649,-4.2837,-4.2898,-4.28,-4.289,-4.2949,-4.2883,-4.2228,-4.1602,-4.0947,-4.0221,-3.9795,-3.9696,-3.9249,-3.8725,-3.8096,-3.8825,-3.9149,0.0,0.0,0.0,0.0,0.0,0.0,-2.9204,0.0,-2.8593,0.0,0.0,0.0,0.0,0.0,0.0,0.0,-2.6823,0.0,0.0,0.0,-2.682,-2.682,0.0,0.0,-2.7695,-2.8188,-2.8652,-2.9058,-2.9319,-2.9348,-2.9087,-2.9668,-3.0016,-3.0016,-3.0423,-3.0598,-3.0598,-3.0598,-3.0598,-3.0598,-3.0598,-3.0598,-3.0627,-3.1235,-3.1843,-3.2542,-3.318,-3.3819,-3.4399,-3.4399,-3.4399,-3.4399,-3.4399,-3.4951,-3.5793,-3.617,-3.6896,-3.7738,-3.8086,-3.8202,-3.8202,-3.8202,-3.8202,-3.8202,-3.8202,-3.8202,-3.8202,-3.8202,-3.8202,-3.8202,-3.8202,-3.8202,-3.8202,-3.8202,-3.8202,-3.8202,-3.8202,-3.8435,-3.8583,-3.8277,-3.8694,-3.9356,-4.0104,-4.069,-4.126,-4.1884,-4.1689,-4.1754,-4.2492,-4.2238,-4.211,-4.2555,-4.2586,-4.2586,-4.2586,-4.2681,-4.2744,-4.2744,-4.2774,-4.2867,-4.2992,-4.2274,-4.1586,-4.1016,-4.0263,-3.9673,-3.9247,-3.9007,-3.8767,-3.8585,-3.9069,-3.9315,-3.2687,0.0,0.0,0.0,0.0,0.0,0.0,0.0,0.0,0.0,0.0,0.0,0.0,0.0,0.0,-2.7492,0.0,-2.691,0.0,-2.6678,0.0,0.0,0.0,0.0,0.0,-2.7695,-2.7898,-2.839,-2.8622,-2.8622,-2.8419,-2.9029,-2.9407,-2.9581,-3.0074,-3.0423,-3.0598,-3.0598,-3.0598,-3.0598,-3.0598,-3.0598,-3.0627,-3.1235,-3.1843,-3.2542,-3.318,-3.3819,-3.4399,-3.4399,-3.4399,-3.4399,-3.4399,-3.469,-3.5218,-3.5822,-3.6577,-3.736,-3.7796,-3.8057,-3.8202,-3.8202,-3.8202,-3.8202,-3.8202,-3.8202,-3.8202,-3.8202,-3.8202,-3.8202,-3.8202,-3.8202,-3.8202,-3.8202,-3.8202,-3.8202,-3.8202,-3.8202,-3.8202,-3.8202,-3.8202,-3.836,-3.8884,-3.9894,-4.0792,-4.1426,-4.1327,-4.1525,-4.2492,-4.2142,-4.2013,-4.2523,-4.2586,-4.2586,-4.2586,-4.2586,-4.2586,-4.2586,-4.2586,-4.2681,-4.2806,-4.2286,-4.1827,-4.1425,-4.0736,-4.0116,-3.9593,-3.9229,-3.9061,-3.9061,-3.9139,-3.9175,0.0,0.0,0.0,-3.2771,0.0,0.0,0.0,0.0,-3.0365,0.0,0.0,0.0,0.0,0.0,-2.8273,-2.7053,-2.7316,0.0,0.0,0.0,0.0,0.0,0.0,0.0,0.0,-2.7695,-2.7724,0.0,-2.8332,-2.8419,-2.7753,-2.8361,-2.9,-2.9581,-2.961,-2.9958,-3.0598,-3.0598,-3.0598,-3.0598,-3.0598,-3.0598,-3.0627,-3.1235,-3.1843,-3.2542,-3.318,-3.3819,-3.4399,-3.4399,-3.4399,-3.4399,-3.4399,-3.4428,-3.4516,-3.5189,-3.6199,-3.7302,-3.7331,-3.7709,-3.8202,-3.8202,-3.8202,-3.8202,-3.8202,-3.8202,-3.8202,-3.8202,-3.8202,-3.8202,-3.8202,-3.8202,-3.8202,-3.8202,-3.8202,-3.8202,-3.8202,-3.8202,-3.8202,-3.8202,-3.8202,-3.8202,-3.824,-3.8277,-3.903,-4.1194,-4.0894,-4.0961,-4.2429,-4.2555,-4.2555,-4.2586,-4.2586,-4.2586,-4.2586,-4.2586,-4.2586,-4.2586,-4.2586,-4.2586,-4.2586,-4.2586,-4.2554,-4.2553,-4.1904,-4.1515,-4.1515,-4.0268,-3.9675,-3.9675,-3.9093,-3.8903,0.0,0.0,-3.4196,-3.3354,0.0,0.0,0.0,0.0,0.0,0.0,0.0,0.0,0.0,0.0,-2.9668,-2.8797,-2.8101,-2.755,0.0,0.0,0.0,0.0,0.0,0.0,0.0,0.0,0.0,0.0,-2.7287,-2.7345,-2.7113,-2.7723,-2.8332,-2.8971,-2.9406,-2.9929,-3.0598,-3.0598,-3.0598,-3.0598,-3.0598,-3.0598,-3.0627,-3.17,-3.2278,-3.2539,-3.3645,-3.4225,-3.4399,-3.4399,-3.4399,-3.4399,-3.4399,-3.4399,-3.4486,-3.516,-3.5944,-3.678,-3.7622,-3.8028,-3.8202,-3.8202,-3.8202,-3.8202,-3.8202,-3.8202,-3.8202,-3.8202,-3.8202,-3.8202,-3.8202,-3.8202,-3.8202,-3.8202,-3.8202,-3.8202,-3.8202,-3.8202,-3.8202,-3.8202,-3.8551,-3.8725,-3.8289,-3.858,-3.9148,-3.992,-3.9824,-4.0034,-4.0995,-4.1129,-4.1327,-4.1819,-4.2333,-4.2586,-4.2586,-4.2586,-4.2586,-4.2586,-4.2586,-4.2586,-4.2586,-4.2586,-4.2392,-4.1938,-4.1742,-4.1353,-4.0869,-4.0442,-4.0245,-4.0212,-3.9588,-3.9112,-3.408,-3.4399,0.0,-3.3707,-3.3678,0.0,-3.2164,0.0,-3.3213,0.0,0.0,0.0,0.0,0.0,-3.0539,-2.9464,-2.8594,-2.7897,0.0,-2.7055,0.0,0.0,0.0,0.0,0.0,0.0,-2.682,-2.682,-2.682,-2.682,0.0,-2.7171,-2.7781,-2.868,-2.9087,-2.9697,-3.0598,-3.0598,-3.0598,-3.0598,-3.0598,-3.0598,-3.0656,-3.1932,-3.2481,-3.2568,-3.3877,-3.4399,-3.4399,-3.4399,-3.4399,-3.4399,-3.4399,-3.4545,-3.4806,-3.5247,-3.5909,-3.6809,-3.7854,-3.8202,-3.8202,-3.8202,-3.8202,-3.8202,-3.8202,-3.8202,-3.8202,-3.8202,-3.8202,-3.8202,-3.8202,-3.8202,-3.8202,-3.8202,-3.8202,-3.8202,-3.8202,-3.8202,-3.826,-3.8522,-3.8899,-3.9131,-3.8899,-3.9247,-3.9457,-3.9294,-3.932,-3.954,-4.0313,-4.0382,-4.0588,-4.1062,-4.1754,-4.2333,-4.2555,-4.2586,-4.2586,-4.2586,-4.2586,-4.2586,-4.2586,-4.2586,-4.2392,-4.197,-4.1938,-4.1711,-4.1257,-4.0998,-4.0869,-4.0899,-3.9959,-3.9332]},{"header":{"parameterUnit":"m.s-1","parameterCategory":1,"la1":30.6,"la2":29.2853,"lo1":-89.7004,"lo2":-87.6739,"dy":0.0162,"dx":0.0183,"nx":112,"ny":82,"refTime":"2024-05-14T12:00:00:Z","depth":0,"parameterNumber":3,"parameterNumberName":"V-component_of_WINDS"},"data":[0.0,0.0,0.0,0.0,0.0,0.0,0.0,0.0,0.0,0.0,0.0,0.0,0.0,0.0,0.0,0.0,0.0,0.0,0.0,0.0,0.0,0.0,0.0,0.0,0.0,0.0,0.0,0.0,0.0,0.0,0.0,0.0,0.0,0.0,0.0,0.0,0.0,0.0,0.0,0.0,0.0,0.0,0.0,0.0,0.0,0.0,0.0,0.0,0.0,0.0,0.0,0.0,0.0,0.0,0.0,0.0,0.0,0.0,0.0,0.0,0.0,0.0,0.0,0.0,0.0,0.0,0.0,0.0,0.0,0.0,0.0,0.0,0.0,0.0,0.0,0.0,0.0,0.0,0.0,0.0,0.0,0.0,0.0,0.0,0.0,0.0,0.0,0.0,0.0,0.0,0.0,0.0,0.0,0.0,0.0,0.0,0.0,0.0,0.0,0.0,0.0,0.0,0.0,0.0,0.0,0.0,0.0,0.0,0.0,0.0,0.0,0.0,0.0,0.0,0.0,0.0,0.0,0.0,0.0,0.0,0.0,0.0,0.0,0.0,0.0,0.0,0.0,0.0,0.0,0.0,0.0,0.0,0.0,0.0,0.0,0.0,0.0,0.0,0.0,0.0,0.0,0.0,0.0,0.0,0.0,0.0,0.0,0.0,0.0,0.0,0.0,0.0,0.0,0.0,0.0,0.0,0.0,0.0,0.0,0.0,0.0,0.0,0.0,0.0,0.0,0.0,0.0,0.0,0.0,0.0,0.0,0.0,0.0,0.0,0.0,0.0,0.0,0.0,0.0,0.0,0.0,0.0,0.0,0.0,0.0,0.0,0.0,0.0,0.0,0.0,0.0,0.0,0.0,0.0,0.0,0.0,0.0,0.0,0.0,0.0,0.0,0.0,0.0,0.0,0.0,0.0,0.0,0.0,0.0,0.0,0.0,0.0,0.0,0.0,0.0,0.0,0.0,0.0,0.0,0.0,0.0,0.0,0.0,0.0,0.0,0.0,0.0,0.0,0.0,0.0,0.0,0.0,0.0,0.0,0.0,0.0,0.0,0.0,0.0,0.0,0.0,0.0,0.0,0.0,0.0,0.0,0.0,0.0,0.0,0.0,0.0,0.0,0.0,0.0,0.0,0.0,0.0,0.0,0.0,0.0,0.0,0.0,0.0,0.0,0.0,0.0,0.0,0.0,0.0,0.0,0.0,0.0,0.0,0.0,0.0,0.0,0.0,0.0,0.0,0.0,0.0,0.0,0.0,0.0,0.0,0.0,0.0,0.0,0.0,0.0,0.0,0.0,0.0,0.0,0.0,0.0,0.0,0.0,0.0,0.0,0.0,0.0,0.0,0.0,0.0,0.0,0.0,0.0,0.0,0.0,0.0,0.0,0.0,-0.0073,-0.0084,0.0,0.0,0.0,0.0,0.0,0.0,0.0,0.0,0.0,0.0,0.0,0.0,0.0,0.0,0.0,0.0,0.0,0.0,0.0,0.0,0.0,0.0,0.0,0.0,0.0,0.0,0.0,0.0,0.0,0.0,0.0,0.0,0.0,0.0,0.0,0.0,0.0,0.0,0.0,0.0,0.0,0.0,0.0,0.0,0.0,0.0,0.0,0.0,0.0,0.0,0.0,0.0,0.0,0.0,0.0,0.0,0.0,0.0,0.0,0.0,0.0,0.0,0.0,0.0,0.0,0.0,0.0,0.0,0.0,0.0,0.0,0.0,0.0,0.0,0.0,0.0,0.0,0.0,0.0,0.0,0.0,0.0,0.0,0.0,0.0,0.0,0.0,0.0,0.0,0.0,0.0,0.0,0.0,0.0,0.0,0.0,0.0,0.0,0.0,0.0,0.0,0.0,0.0,0.0,0.0,0.0,0.0,0.0,0.0,0.0,-0.0082,-0.0135,0.0,0.0,0.0,0.0,0.0,0.0,0.0,0.0,0.0,0.0,0.0,0.0,0.0,0.0,0.0,0.0,0.0,0.0,0.0,0.0,0.0,0.0,0.0,0.0,0.0,0.0,0.0,0.0,0.0,0.0,0.0,0.0,0.0,0.0,0.0,0.0,0.0,0.0,0.0,0.0,0.0,0.0,0.0,0.0,0.0,0.0,0.0,0.0,0.0,0.0,0.0,0.0,0.0,0.0,0.0,0.0,0.0,0.0,0.0,0.0,0.0,0.0,0.0,0.0,0.0,0.0,0.0,0.0,0.0,0.0,0.0,0.0,0.0,0.0,0.0,0.0,0.0,0.0,0.0,0.0,0.0,0.0,0.0,0.0,0.0,0.0,0.0,0.0,0.0,0.0,0.0,0.0,0.0,0.0,0.0,0.0,0.0,0.0,0.0,0.0,0.0,0.0,0.0,0.0,0.0,0.0,0.0,0.0,0.0,0.0,0.0,0.0,0.0,0.0,0.0,0.0,0.0,0.0,0.0,0.0,0.0,0.0,0.0,0.0,0.0,0.0,0.0,0.0,0.0,0.0,0.0,0.0,0.0,0.0,0.0,0.0,0.0,0.0,0.0,0.0,0.0,0.0,0.0,0.0,0.0,0.0,0.0,0.0,0.0,0.0,0.0,0.0,0.0,0.0,0.0,0.0,0.0,0.0,0.0,0.0,0.0,0.0,0.0,0.0,0.0,0.0,0.0,0.0,0.0,0.0,0.0,0.0,0.0,0.0,0.0,0.0,0.0,0.0,0.0,0.0,0.0,0.0,0.0,0.0,0.0,0.0,0.0,0.0,0.0,0.0,0.0,0.0,0.0,0.0,0.0,0.0,0.0,0.0,0.0,0.0,0.0,0.0,0.0,0.0,0.0,0.0,0.0,0.0,0.0,0.0,0.0,0.0,0.0,0.0,0.0,0.0,0.0,0.0,0.0,0.0,0.0,0.0,-0.0119,-0.0089,0.0,0.0,0.0,0.0,0.0,0.0,0.0,0.0,0.0,0.0,0.0,0.0,0.0,0.0,0.0,0.0,0.0,0.0,0.0,0.0,0.0,0.0,0.0,0.0,0.0,0.0,0.0,0.0,0.0,0.0,0.0,0.0,0.0,0.0,0.0,0.0,0.0,0.0,0.0,0.0,0.0,0.0,0.0,0.0,0.0,0.0,0.0,0.0,0.0,0.0,0.0,0.0,0.0,0.0,0.0,0.0,0.0,0.0,0.0,0.0,0.0,0.0,0.0,0.0,0.0,0.0,0.0,0.0,0.0,0.0,0.0,0.0,0.0,0.0,0.0,0.0,0.0,0.0,0.0,0.0,0.0,0.0,0.0,0.0,0.0,0.0,0.0,0.0,0.0,0.0,0.0,0.0,0.0,0.0,0.0,0.0,0.0,0.0,0.0,0.0,0.0,0.0,0.0,0.0,0.0,0.0,0.0,0.0,0.0,-0.0139,-0.0117,-0.0086,0.0,0.0,0.0,0.0,0.0,0.0,0.0,0.0,0.0,0.0,0.0,0.0,0.0,0.0,0.0,0.0,0.0,0.0,0.0,0.0,0.0,0.0,0.0,0.0,0.0,0.0,0.0,0.0,0.0,0.0,0.0,0.0,0.0,0.0,0.0,0.0,0.0,0.0,0.0,0.0,0.0,0.0,0.0,0.0,0.0,0.0,0.0,0.0,0.0,0.0,0.0,0.0,0.0,0.0,0.0,0.0,0.0,0.0,0.0,0.0,0.0,0.0,0.0,0.0,0.0,0.0,0.0,0.0,0.0,0.0,0.0,0.0,0.0,0.0,0.0,0.0,0.0,0.0,0.0,0.0,0.0,0.0,0.0,0.0,0.0,0.0,0.0,0.0,0.0,0.0,0.0,0.0,0.0,0.0,0.0,0.0,0.0,0.0,0.0,0.0,0.0,0.0,0.0,0.0,0.0,0.0,0.0,0.0,0.0,0.0,0.0,0.0,0.0,0.0,0.0,0.0,0.0,0.0,0.0,0.0,0.0,0.0,0.0,0.0,0.0,0.0,0.0,0.0,0.0,0.0,0.0,0.0,0.0,0.0,0.0,0.0,0.0,0.0,0.0,0.0,0.0,0.0,0.0,0.0,0.0,0.0,0.0,0.0,0.0,0.0,0.0,0.0,0.0,0.0,0.0,0.0,0.0,0.0,0.0,0.0,0.0,0.0,0.0,0.0,0.0,0.0,0.0,0.0,0.0,0.0,0.0,0.0,0.0,0.0,0.0,0.0,0.0,0.0,0.0,0.0,0.0,0.0,0.0,0.0,0.0,0.0,0.0,0.0,0.0,0.0,0.0,0.0,0.0,0.0,0.0,0.0,0.0,0.0,0.0,0.0,0.0,0.0,0.0,0.0,0.0,0.0,0.0,0.0,0.0,0.0,0.0,0.0,0.0,0.0,0.0,0.0,0.0,0.0,0.0,0.0,0.0,-0.014,-0.0076,0.0,0.0,0.0,0.0,0.0,0.0,-0.0031,-0.0143,0.0,0.0,0.0,0.0,0.0,0.0,0.0,0.0,0.0,0.0,0.0,0.0,0.0,0.0,0.0,0.0,0.0,0.0,0.0,0.0,0.0,0.0,0.0,0.0,0.0,0.0,0.0,0.0,0.0,0.0,0.0,0.0,0.0,0.0,0.0,0.0,0.0,0.0,0.0,0.0,0.0,0.0,0.0,0.0,0.0,0.0,0.0,0.0,0.0,0.0,0.0,0.0,0.0,0.0,0.0,0.0,0.0,0.0,0.0,0.0,0.0,0.0,0.0,0.0,0.0,0.0,0.0,0.0,0.0,0.0,0.0,0.0,0.0,0.0,0.0,0.0,0.0,0.0,0.0,0.0,0.0,0.0,0.0,0.0,0.0,0.0,0.0,0.0,0.0,0.0,0.0,0.0,0.0,0.0,0.0,0.0,0.0,0.0,0.0,0.0,0.0,0.0,-0.0104,-0.0037,0.0,0.0,0.0,0.0,0.0,0.0,-0.003,-0.0113,0.0,0.0,0.0,0.0,0.0,0.0,0.0,0.0,0.0,0.0,0.0,0.0,0.0,0.0,0.0,0.0,0.0,0.0,0.0,0.0,0.0,0.0,0.0,0.0,0.0,0.0,0.0,0.0,0.0,0.0,0.0,0.0,0.0,0.0,0.0,0.0,0.0,0.0,0.0,0.0,0.0,0.0,0.0,0.0,0.0,0.0,0.0,0.0,0.0,0.0,0.0,0.0,0.0,0.0,0.0,0.0,0.0,0.0,0.0,0.0,0.0,0.0,0.0,0.0,0.0,0.0,0.0,0.0,0.0,0.0,0.0,0.0,0.0,0.0,0.0,0.0,0.0,0.0,0.0,0.0,0.0,0.0,0.0,0.0,0.0,0.0,0.0,0.0,0.0,0.0,0.0,0.0,0.0,0.0,0.0,0.0,0.0,0.0,0.0,0.0,0.0,0.0,0.0,0.0,0.0,0.0,0.0,0.0,0.0,0.0,0.0,-0.0028,0.0,0.0,0.0,0.0,0.0,0.0,0.0,0.0,0.0,0.0,0.0,0.0,0.0,0.0,0.0,0.0,0.0,0.0,0.0,0.0,0.0,0.0,0.0,0.0,0.0,0.0,0.0,0.0,0.0,0.0,0.0,0.0,0.0,0.0,0.0,0.0,0.0,0.0,0.0,0.0,0.0,0.0,0.0,0.0,0.0,0.0,0.0,0.0,0.0,0.0,0.0,0.0,0.0,0.0,0.0,0.0,0.0,0.0,0.0,0.0,0.8658,0.0,0.0,0.0,0.0,0.0,0.0,0.0,0.0,0.0,0.0,0.0,0.0,0.0,0.0,0.0,0.0,0.0,0.0,0.0,0.0,0.0,0.0,0.0,0.0,0.0,0.0,0.0,0.0,0.0,0.0,0.0,0.0,0.0,0.0,0.0,0.0,0.0,0.0,0.0,0.0,0.0,0.0,0.0,0.0,0.0,0.0,0.0,0.0,0.0,-0.0057,-0.014,-0.0095,0.0,0.0,0.0,0.0,0.0,0.0,0.0,0.0,0.0,0.0,0.0,0.0,0.0,0.0,0.0,0.0,0.0,0.0,0.0,0.0,0.0,0.0,0.0,0.0,0.0,0.0,0.0,0.0,0.0,0.0,0.0,0.0,0.0,0.0,0.0,0.0,0.0,0.0,0.0,0.0,0.0,0.0,0.0,0.0,0.0,0.0,0.0,0.0,0.0,0.0,0.0,0.0,0.0,0.0,0.0,0.0,0.0,0.0,0.0,0.0,0.9371,0.0,0.0,0.0,0.0,0.0,0.0,0.0,0.0,0.0,0.0,0.0,0.0,0.0,0.0,0.0,0.0,0.0,0.0,0.0,0.0,0.0,0.0,0.0,0.0,0.0,0.0,0.0,0.0,0.0,0.0,0.0,0.0,0.0,0.0,0.0,0.0,0.0,0.0,0.0,0.0,0.0,0.0,0.0,0.0,0.0,0.0,0.0,0.0,-0.0029,-0.0112,-0.0098,0.0,0.0,0.0,0.0,0.0,0.0,0.0,0.0,0.0,0.0,0.0,0.0,0.0,0.0,0.0,0.0,0.0,0.0,0.0,0.0,0.0,0.0,0.0,0.0,0.0,0.0,0.0,0.0,0.0,0.0,0.0,0.0,0.0,0.0,0.0,0.0,0.0,0.0,0.0,0.0,0.0,0.0,0.0,0.0,0.0,0.0,0.0,0.0,0.0,0.0,0.0,0.0,0.0,1.3707,1.3841,1.3748,1.3748,1.3748,1.3694,1.25,1.148,1.0607,1.0225,0.0,0.0,0.0,0.0,0.0,0.0,0.0,0.0,0.0,0.0,0.0,0.0,0.0,0.0,0.0,0.0,0.0,0.0,0.0,0.0,0.0,0.0,0.0,0.0,0.5377,0.5039,0.3432,0.0,0.0,0.0,0.0,0.0,0.0,0.0,0.0,0.0,0.0,0.0,0.0,0.0,0.0,0.0,0.0,0.0,0.0,0.0,0.0,0.0,-0.0102,-0.0118,0.0,0.0,0.0,0.0,0.0,0.0,0.0,0.0,0.0,0.0,0.0,0.0,0.0,0.0,0.0,0.0,0.0,0.0,0.0,0.0,0.0,0.0,0.0,0.0,0.0,0.0,0.0,0.0,0.0,0.0,0.0,0.0,1.5625,1.5323,0.0,0.0,0.0,0.0,0.0,0.0,0.0,0.0,0.0,0.0,0.0,0.0,0.0,1.3899,1.4542,1.5408,1.5671,1.5431,1.6295,1.6415,1.5872,1.5872,1.5872,1.5845,1.5385,0.0,1.2015,1.1594,0.0,0.0,0.0,0.0,0.0,0.0,0.0,0.0,0.0,0.0,0.0,0.0,0.0,0.0,0.0,0.0,0.0,0.0,0.0,0.0,0.0,0.0,0.6149,0.5939,0.5818,0.5681,0.0,0.4327,0.3174,0.2346,0.2002,0.0,0.0,0.0,0.0,0.0,0.0,0.0,0.0,0.0,0.0,0.0,0.0,0.0,0.0,0.0,0.0,0.0,-0.0026,-0.0071,-0.0166,-0.0069,0.0,0.0,0.0,0.0,0.0,0.0,0.0,0.0,0.0,0.0,0.0,0.0,0.0,0.0,0.0,0.0,0.0,0.0,0.0,0.0,0.0,0.0,0.0,0.0,0.0,0.0,0.0,0.0,0.0,1.5801,1.6465,1.5527,1.623,1.6445,0.0,0.0,0.0,0.0,0.0,0.0,0.0,0.0,0.0,1.5748,1.5796,1.6086,1.6704,1.7268,1.7362,1.7036,1.7635,1.7769,1.7515,1.7515,1.7515,1.7515,1.7382,1.6446,1.4968,1.36,1.2657,1.1975,0.0,0.0,0.0,0.0,0.9903,0.9842,1.0407,0.9866,0.9041,0.9535,0.0,0.0,0.0,0.0,0.0,0.0,0.0,0.0,0.0,0.0,0.6491,0.6424,0.6424,0.641,0.6322,0.5609,0.4708,0.0,0.3153,0.255,0.22,0.0,0.0,0.0,0.0,0.1,0.0654,0.0635,0.0444,0.0036,0.0,0.0,0.0,0.0,0.0,0.0,0.0,-0.0024,-0.0096,-0.0023,-0.0022,0.0,0.0,0.0,0.0,0.0,0.0,0.0,0.0,0.0,0.0,0.0,0.0,0.0,0.0,0.0,0.0,0.0,0.0,0.0,0.0,0.0,0.0,0.0,0.0,0.0,0.0,0.0,0.0,1.6328,1.7168,1.5742,1.7227,1.7715,0.0,0.0,0.0,0.0,0.0,0.0,1.7762,1.8008,1.8148,1.8079,1.8103,1.8302,1.8777,1.8878,1.8782,1.8439,1.8666,1.8718,1.8718,1.8718,1.8718,1.8704,1.8637,1.8183,1.7393,1.5477,1.4213,1.3439,1.2644,1.2265,1.2117,1.1782,1.1663,1.1741,1.2556,1.2117,1.1262,1.1647,1.0457,0.8665,0.7422,0.0,0.0,0.0,0.0,0.6277,0.6204,0.6478,0.677,0.6803,0.6871,0.6856,0.6783,0.6397,0.5865,0.0,0.4333,0.3585,0.3248,0.0,0.0,0.0,0.0,0.1888,0.1466,0.1378,0.1087,0.042,0.0306,0.0198,0.0,0.0,0.0,0.0,0.0,0.0,0.0,0.0,0.0,0.0,0.0,0.0,0.0,0.0,0.0,0.0,0.0,0.0,0.0,0.0,0.0,0.0,0.0,0.0,0.0,0.0,0.0,0.0,0.0,0.0,0.0,0.0,0.0,0.0,0.0,0.0,0.0,0.0,0.0,1.6261,1.8984,0.0,0.0,0.0,0.0,2.0391,2.0488,2.0346,1.9968,2.0261,2.019,1.9691,2.0212,2.0516,2.0559,2.0305,2.0027,1.9696,1.9479,1.9319,1.9319,1.9319,1.9319,1.9363,1.9025,1.8718,1.8303,1.6794,1.5705,1.4861,1.4215,1.3975,1.3948,1.3612,1.3678,1.3878,1.3665,1.2969,1.2326,1.3049,1.2184,1.0419,0.8171,0.769,0.0,0.0,0.6634,0.6765,0.6668,0.679,0.691,0.7045,0.6977,0.6883,0.6876,0.6509,0.6048,0.0,0.5267,0.4668,0.3663,0.0,0.3128,0.2216,0.2105,0.2135,0.2239,0.2114,0.1833,0.1292,0.1134,0.0774,0.0065,0.0,0.0,0.0,0.0,0.0,0.0,0.0,0.0,0.0,0.0,0.0,0.0,0.0,0.0,0.0,0.0,0.0,0.0,0.0,0.0,0.0,0.0,0.0,0.0,0.0,0.0,0.0,0.0,0.0,0.0,0.0,0.0,0.0,0.0,0.0,0.0,0.0,0.0,1.9473,2.1934,0.0,2.125,2.2031,2.2871,2.3462,2.4028,2.3966,2.3031,2.3378,2.2966,2.1642,2.1627,2.1683,2.1692,2.1168,2.0617,2.011,1.9802,1.9591,1.943,1.943,1.943,1.9417,1.9252,1.8931,1.845,1.7916,1.7181,1.6362,1.5772,1.5544,1.5458,1.5164,1.5065,1.519,1.5038,1.4797,1.441,1.3679,1.2807,1.161,0.9492,0.8994,0.899,0.7905,0.767,0.7668,0.7439,0.7365,0.7257,0.7129,0.7058,0.7018,0.7018,0.6826,0.6597,0.6478,0.5788,0.5136,0.4885,0.4501,0.4142,0.3875,0.3652,0.3405,0.3056,0.2883,0.2539,0.1825,0.1697,0.1552,0.1188,0.079,0.0591,0.0571,0.0207,0.0,0.0,0.0,0.0,0.0,0.0,-0.0046,0.0,0.0,0.0,0.0,0.0,0.0,0.0,0.0,0.0,0.0,0.0,0.0,0.0,0.0,0.0,0.0,0.0,0.0,0.0,0.0,0.0,0.0,0.0,0.0,0.0,2.0372,2.2165,2.1914,2.4531,2.5742,2.4114,2.5059,2.5918,2.6328,2.7051,2.6793,2.5258,2.5492,2.4734,2.283,2.2593,2.2474,2.2331,2.1678,2.1126,2.0614,2.0192,1.9822,1.9533,1.9533,1.9475,1.943,1.943,1.9092,1.8624,1.8531,1.8076,1.7395,1.6857,1.65,1.638,1.6086,1.5979,1.5965,1.5858,1.5784,1.557,1.4113,1.3617,1.3138,1.1123,1.0771,1.084,0.9713,0.9127,0.8763,0.8542,0.8012,0.7473,0.7337,0.7221,0.7098,0.7098,0.6984,0.6903,0.695,0.6271,0.5719,0.5747,0.5325,0.4972,0.488,0.4677,0.4359,0.3932,0.3721,0.3351,0.2619,0.2423,0.2197,0.1886,0.1466,0.1214,0.12,0.0643,0.0299,0.0292,0.0116,0.0,0.0,0.0,-0.0048,-0.0124,0.0,0.0,0.0,0.0,0.0,0.0,0.0,0.0,0.0,0.0,0.0,0.0,0.0,0.0,0.0,0.0,0.0,0.0,0.0,0.0,0.0,0.0,0.0,1.9961,2.2598,2.4199,2.3482,2.6699,2.8184,2.6044,2.8164,2.9453,2.9004,2.9375,2.8748,2.6599,2.6498,2.5474,2.3216,2.3168,2.3021,2.2637,2.2028,2.1592,2.1203,2.0598,2.0169,1.9809,1.9809,1.9649,1.9417,1.9417,1.9185,1.8891,1.8611,1.8303,1.7916,1.7447,1.6981,1.67,1.6406,1.6335,1.6233,1.5939,1.5784,1.5589,1.4459,1.4651,1.5028,1.2906,1.2917,1.3383,1.2186,1.096,1.003,0.9947,0.8737,0.7642,0.774,0.7431,0.7105,0.7105,0.6991,0.693,0.7071,0.679,0.6397,0.61,0.5911,0.5619,0.5122,0.5026,0.0,0.4811,0.4621,0.4267,0.3691,0.3267,0.2772,0.2127,0.1919,0.1821,0.1836,0.126,0.0909,0.0908,0.0329,0.0023,0.0,0.0,0.0,0.0,0.0,0.0,0.0,0.0,0.0,0.0,0.0,0.0,0.0,0.0,0.0,0.0,0.0,0.0,0.0,0.0,0.0,0.0,0.0,0.0,0.0,2.1293,2.265,2.2347,2.4336,2.6211,2.7207,2.9394,3.0449,2.9551,3.0391,3.0801,3.0371,3.0449,2.9852,2.8323,2.8223,2.7065,2.4641,2.4517,2.4039,2.2974,2.253,2.2089,2.1532,2.1158,2.0655,2.0155,1.9924,1.9764,1.9693,1.9246,1.8878,1.8597,1.8517,1.8183,1.7689,1.7528,1.7408,1.7301,1.7072,1.6683,1.6308,1.6179,1.6005,1.5771,1.5395,1.5476,1.545,1.4146,1.3886,1.3886,1.2771,1.2125,1.1543,1.0482,0.9874,0.9229,0.8018,0.765,0.7576,0.7351,0.719,0.7051,0.7092,0.6916,0.6714,0.6518,0.6291,0.5989,0.5695,0.5326,0.0,0.4969,0.4673,0.4383,0.413,0.3936,0.3684,0.339,0.2905,0.2542,0.245,0.1894,0.1346,0.0908,0.0741,0.045,0.0,-0.0103,-0.0157,0.0,0.0,0.0,0.0,0.0,0.0,0.0,0.0,0.0,0.0,0.0,0.0,0.0,0.0,0.0,0.0,0.0,0.0,0.0,0.0,0.0,0.0,2.345,2.5105,2.5536,2.6816,2.8144,2.9316,3.0684,3.1484,3.1426,3.1816,3.1875,3.1465,3.1426,3.0717,2.8998,2.892,2.7709,2.5194,2.5071,2.4394,2.2901,2.2593,2.2211,2.1727,2.1335,2.0974,2.0443,2.027,2.0097,1.9982,1.9516,1.9101,1.8888,1.8599,1.821,0.0,0.0,0.0,0.0,0.0,1.6898,1.6433,1.6313,1.6152,1.5992,1.5872,1.5784,1.5689,1.5105,1.4914,1.4819,1.4184,1.3566,1.283,1.1623,1.0828,0.9945,0.8583,0.8066,0.783,0.7692,0.7437,0.7238,0.7238,0.7071,0.0,0.6824,0.6538,0.6251,0.6047,0.5674,0.5406,0.5265,0.4942,0.4663,0.4596,0.4235,0.3981,0.3911,0.3455,0.0,0.0,0.0,0.1908,0.1311,0.1039,0.0,0.0,0.0,-0.011,-0.0112,0.0,0.0,0.0,-0.0505,-0.0701,0.0,0.0,0.0,0.0,0.0,0.0,0.0,0.0,0.0,0.0,0.0,0.0,0.0,0.0,0.0,0.0,2.5431,2.7201,2.8902,2.9584,2.9976,3.0234,3.1055,3.1699,3.1992,3.25,3.2578,3.207,3.207,3.1238,2.9213,0.0,0.0,0.0,0.0,2.4561,2.2926,2.2434,2.2067,2.1745,2.1423,2.106,2.0773,2.0716,2.0544,2.0328,1.9954,1.9674,1.94,1.8778,1.8317,1.7995,1.7955,1.7849,1.7595,1.7353,1.7058,1.6714,1.642,0.0,0.0,1.5925,1.5784,1.5784,1.5784,1.5784,1.5784,1.5784,1.5021,1.3978,1.3073,1.1779,1.0482,0.9411,0.8712,0.8229,0.8048,0.772,0.7419,0.7439,0.7258,0.7058,0.6957,0.6709,0.6451,0.6277,0.6035,0.5822,0.5654,0.5247,0.4984,0.4984,0.0,0.0,0.3927,0.3751,0.361,0.3616,0.3042,0.2471,0.1912,0.1329,0.0968,0.0911,0.0387,0.0056,0.0,0.0,0.0,0.0,-0.0449,-0.0673,0.0,0.0,0.0,0.0,0.0,0.0,0.0,0.0,0.0,0.0,0.0,0.0,0.0,0.0,0.0,2.6391,2.8208,2.9749,3.075,3.1199,3.1222,3.08,3.1523,3.1797,3.1191,3.2148,3.2324,3.1211,3.1445,3.1307,3.0547,3.0509,2.9785,2.8188,2.7185,2.6001,2.4608,2.3246,2.2389,2.2081,0.0,0.0,2.1089,2.0845,2.0658,2.0587,2.0061,1.9751,1.9682,1.9098,1.8523,1.7969,1.7769,1.7796,1.7862,1.7609,1.7367,1.7072,1.6727,1.6473,1.6219,1.5925,1.5784,1.5784,1.5784,1.5784,0.0,1.5784,1.565,1.518,1.4049,1.3625,1.2947,1.0762,1.0135,0.9728,0.8446,0.7937,0.7682,0.7576,0.7333,0.7125,0.7272,0.6932,0.6614,0.6451,0.6146,0.5861,0.5783,0.5335,0.4984,0.4984,0.454,0.4191,0.4056,0.3922,0.3784,0.3599,0.3026,0.2646,0.252,0.1943,0.1397,0.0917,0.0783,0.0477,0.0,0.0,0.0,0.0,-0.0308,-0.0449,0.0,0.0,0.0,0.0,0.0,0.0,0.0,0.0,0.0,0.0,0.0,2.2819,2.3409,0.0,2.6769,2.8574,2.9786,3.0797,3.1532,3.173,3.1556,3.0937,3.1368,3.1604,3.123,3.1777,3.1894,3.125,3.1406,3.1328,3.0918,3.0898,3.0274,2.892,2.8265,2.7175,2.5489,2.4058,2.3093,2.2604,2.1815,2.1364,2.1203,2.1031,2.096,2.0888,2.0444,2.0175,1.9991,1.9098,1.87,1.8646,1.8035,1.7795,1.7796,1.7635,1.7541,1.7353,1.686,1.6607,1.642,1.5965,1.5784,1.5784,1.5784,1.5784,1.5784,1.5784,1.5784,1.5555,1.4454,1.4243,1.3824,1.2011,1.15,1.1067,0.9769,0.9154,0.8675,0.8011,0.759,0.733,0.7392,0.7061,0.679,0.6715,0.6425,0.6179,0.6145,0.572,0.5402,0.5402,0.4821,0.4439,0.4344,0.4047,0.3767,0.3621,0.3327,0.316,0.316,0.2571,0.2097,0.1818,0.1205,0.0757,0.0449,0.014,0.0,0.0,-0.0196,-0.0336,0.0,0.0,0.0,0.0,0.0,0.0,0.0,2.3085,2.3606,2.3616,2.4273,2.5211,2.6235,2.7531,2.8899,3.0302,3.0935,3.1452,3.1923,3.1883,3.1609,3.0994,3.1248,3.1445,3.1367,3.1543,3.1582,3.1406,3.1465,3.1328,3.0918,3.0898,3.0392,2.9353,2.9039,2.8084,2.6383,2.486,2.3763,2.3085,2.1789,2.1203,2.1203,2.1203,2.1203,2.1203,2.0902,2.0572,2.0129,1.9138,1.8944,1.9122,1.8367,1.795,1.774,1.7687,1.7635,1.7502,1.6981,1.6794,1.67,1.6112,1.5912,1.5899,1.5798,1.5784,1.5784,1.5784,1.5784,1.5594,1.4819,1.458,1.434,1.327,1.2823,1.2387,1.1317,1.0687,0.9976,0.8843,0.8219,0.7818,0.7618,0.7255,0.6993,0.6896,0.6695,0.6559,0.6559,0.6138,0.5839,0.5839,0.5162,0.4714,0.4595,0.4117,0.3742,0.3649,0.3627,0.361,0.361,0.3132,0.2822,0.2706,0.1734,0.1205,0.1065,0.0477,0.0168,0.0168,-0.0084,-0.028,2.1493,2.1443,2.2146,2.4531,2.4098,2.3902,0.0,2.7295,2.6914,2.6809,2.7461,2.8118,2.8276,2.9435,3.0719,3.1622,3.2215,3.2576,3.2758,3.2338,3.1769,3.1147,3.156,3.1663,3.1055,3.166,3.1777,3.1016,3.1309,3.1328,3.0918,3.0898,3.082,3.0704,2.953,2.8582,2.8028,2.5403,2.3875,2.3451,2.191,2.1203,2.1203,2.1203,2.1203,2.1203,2.1146,2.0627,1.9828,1.9702,1.9198,1.852,1.8398,1.8318,1.8265,1.8069,1.7806,1.7542,1.7259,1.7152,1.7058,1.6469,1.6219,1.6179,1.5912,1.5784,1.5784,1.5784,1.5784,1.5784,1.5642,1.5642,1.5404,1.434,1.41,1.3715,1.2387,1.1997,1.1495,1.0374,0.9694,0.9017,0.8218,0.7662,0.7231,0.6923,0.6783,0.6675,0.6675,0.6251,0.5996,0.5996,0.5537,0.5049,0.4645,0.4117,0.3804,0.3793,0.3671,0.361,0.361,0.3527,0.3244,0.2706,0.2567,0.2237,0.1706,0.1093,0.0813,0.0785,0.0112,-0.028,2.4312,2.413,2.4254,2.576,2.653,2.7316,2.8645,2.8679,2.8683,2.9661,2.9842,2.9911,3.018,3.1133,3.1919,3.1967,3.238,3.2649,3.2431,3.1932,3.1278,3.0309,3.0651,3.0874,3.0756,3.1053,3.1172,3.0898,3.1055,3.1074,3.0898,3.0898,3.0898,3.0898,3.0333,2.9774,2.9089,2.7172,2.5908,2.5207,2.3881,2.2862,2.2256,2.2256,2.1873,2.1203,2.1203,2.0883,2.0279,1.9912,1.9582,1.9165,1.8821,1.8698,1.8646,1.8331,1.8055,1.7818,1.752,1.7187,1.682,1.6406,1.6152,1.5992,1.5824,1.5784,1.5784,1.5784,1.5784,1.5784,1.5784,1.5784,1.5689,1.5261,1.5153,1.4867,1.3703,1.3305,1.2872,1.1706,1.1161,1.0659,1.0118,0.9187,0.8395,0.8122,0.7368,0.6831,0.6831,0.6565,0.6284,0.6035,0.5757,0.5308,0.4651,0.4379,0.4134,0.3826,0.3736,0.3682,0.3616,0.361,0.3471,0.3216,0.2877,0.2567,0.232,0.1706,0.1233,0.0897,0.0589,0.0168,2.5762,2.6072,2.6367,2.7538,2.9245,3.0582,3.0352,3.0471,3.0783,3.1473,3.1254,3.0946,3.1153,3.1733,3.2106,3.1899,3.2194,3.2359,3.2029,3.1443,3.0686,2.9761,2.9484,2.9672,3.0238,3.0465,3.0613,3.078,3.0819,3.082,3.0879,3.0898,3.084,3.0703,3.0703,3.0273,2.9394,2.8239,2.727,2.6482,2.5278,2.4283,2.3463,2.3143,2.2539,2.1645,2.1229,2.0896,2.0504,2.0004,1.9754,1.9608,1.9165,1.9026,1.8974,1.875,1.8422,1.8094,1.7874,1.7446,1.6881,1.6585,1.6241,1.5939,1.5811,1.5784,1.5784,1.5784,1.5784,1.5784,1.5784,1.5784,1.5784,1.5784,1.5784,1.5594,1.4867,1.4609,1.4145,1.308,1.2589,1.2217,1.1677,1.0641,0.9748,0.9477,0.8315,0.7338,0.6993,0.6817,0.6559,0.6185,0.5949,0.5566,0.4982,0.472,0.444,0.4041,0.387,0.3747,0.3665,0.3627,0.361,0.361,0.316,0.2961,0.2933,0.2348,0.1818,0.1401,0.1233,0.0785,2.4675,2.6013,2.7871,3.0568,3.2123,3.3,3.2897,3.364,3.3765,3.1789,3.1394,3.1215,3.0781,3.0719,3.0884,3.1319,3.1774,3.2008,3.1988,3.0884,3.0036,2.9994,2.8442,2.7971,2.9399,3.0086,3.0494,3.0594,3.0633,3.0717,3.0859,3.0898,3.0684,3.0234,3.0215,2.9805,2.8945,2.7771,2.6995,2.6482,2.5278,2.4671,2.4616,2.3519,2.2974,2.2846,2.1358,2.0489,2.0168,1.9901,1.9632,1.9286,1.9286,1.9272,1.9272,1.9272,1.8907,1.837,1.8356,1.8005,1.751,1.7159,1.6697,1.6206,1.5912,1.5784,1.5784,1.5784,1.5784,1.5784,1.5784,1.5784,1.5784,1.5784,1.5784,1.5784,1.5784,1.5771,1.5439,1.4436,1.4016,1.3513,1.2474,1.17,1.114,1.0888,0.9676,0.8409,0.7238,0.6878,0.6641,0.6485,0.6085,0.5793,0.578,0.5047,0.4589,0.4577,0.41,0.3809,0.3804,0.3671,0.361,0.361,0.3583,0.3583,0.3583,0.2961,0.2651,0.2627,0.2041,0.1455,2.8021,2.9578,3.0973,3.2661,3.3942,3.4607,3.4291,3.4118,3.3546,3.1949,3.0867,2.9918,2.8815,2.9133,2.96,2.977,3.081,3.1485,3.1195,3.1008,3.0346,2.8794,2.8628,2.8454,2.8066,2.8654,0.0,3.0515,3.0423,3.0525,3.0859,3.0586,3.0351,3.0195,2.9922,2.9512,2.8926,2.8523,2.8093,2.7691,2.6463,2.5899,2.5845,2.4689,2.4,2.3711,2.3212,2.2225,2.1008,2.09,2.0234,1.9272,1.9272,1.9272,1.9272,1.9272,1.9168,1.893,1.856,1.8034,1.746,1.6971,1.6573,1.6157,1.5906,1.5784,1.5784,1.5784,1.5784,1.5784,1.5784,1.5784,1.5784,1.5784,1.5784,1.5784,1.5784,1.5784,1.5689,1.5356,1.5201,1.4997,1.4519,1.3578,1.2417,1.0975,0.9544,0.8255,0.7231,0.693,0.6797,0.6641,0.6404,0.6125,0.5813,0.544,0.5017,0.4634,0.4365,0.4086,0.3876,0.3791,0.3725,0.3725,0.3649,0.361,0.361,0.3388,0.3105,0.2706,0.2484,0.2069,3.0382,3.2114,3.3471,3.5032,3.5648,3.5675,3.5196,3.3997,3.2599,3.1055,2.9634,2.833,2.7195,2.7171,2.7511,2.8154,2.8936,2.9642,3.0346,3.0263,2.9766,2.8773,2.8752,2.8587,2.8048,2.839,2.9011,3.0098,3.0366,3.0611,3.0971,3.0738,3.0543,3.0386,2.9841,2.9355,2.8926,2.8769,2.8555,2.8281,2.7511,2.7133,2.7079,2.5756,2.5,2.4701,2.3995,2.3037,2.196,2.183,2.1238,2.0431,2.0034,1.9879,1.9828,1.9428,1.9199,1.9067,1.8673,1.8131,1.7556,1.7114,1.6663,1.6319,1.6021,1.5927,1.5927,1.5832,1.5784,1.5784,1.5784,1.5784,1.5784,1.5784,1.5784,1.5784,1.5784,1.5784,1.5784,1.5784,1.5784,1.5784,1.5642,1.474,1.3409,1.1581,1.0372,0.9279,0.8229,0.7647,0.7308,0.7206,0.672,0.6322,0.6011,0.5747,0.5421,0.4952,0.4638,0.4356,0.41,0.3903,0.3802,0.3846,0.3693,0.3632,0.3671,0.3632,0.3416,0.3016,0.3016,0.271,3.1788,3.3577,3.5454,3.7563,3.7293,3.6354,3.5643,3.3524,3.119,2.9267,2.775,2.654,2.5806,2.4869,2.4743,2.6562,2.6412,2.6993,2.9663,2.8959,2.8628,2.9891,2.8897,2.8421,2.9249,2.9116,2.9166,2.9522,0.0,3.0939,3.1124,3.1239,3.1106,3.071,3.001,2.9391,2.8926,2.8496,2.8301,2.8301,2.8301,2.8301,2.8281,2.672,2.5984,2.5858,2.3965,2.3152,2.3049,2.2688,2.2534,2.2383,2.1387,2.0979,2.0893,1.9828,1.9236,1.8905,1.8876,1.8454,1.7838,1.7475,1.7018,1.6588,1.6319,1.6224,1.6177,1.5927,1.5832,1.5832,1.5832,1.5832,1.5832,1.5784,1.5784,1.5784,1.5784,1.5784,1.5784,1.5784,1.5784,1.5784,1.5784,1.5121,1.4155,1.2703,1.211,1.1338,1.0096,0.891,0.8189,0.818,0.7081,0.6391,0.6377,0.6029,0.5734,0.5538,0.4946,0.4575,0.4432,0.4055,0.3857,0.3911,0.3719,0.3682,0.3809,0.3671,0.3621,0.3621,0.3621,0.3314,3.4053,3.6232,3.804,3.9019,3.8741,3.7689,3.5468,3.3527,3.1112,2.7509,2.5684,2.4355,2.3104,2.3403,2.433,2.5772,2.736,2.8918,3.0305,3.1091,3.1257,3.0594,3.0512,3.0325,2.987,3.0086,3.0281,0.0,3.054,3.0913,3.1586,3.1291,3.1131,3.101,2.9972,2.9406,2.9253,2.8604,2.8301,2.8301,2.8301,2.8301,2.8281,2.7588,2.7064,2.6685,2.5876,2.4907,2.3827,2.3737,2.3235,2.2484,2.2181,2.208,2.203,2.1794,2.1119,2.028,1.9816,1.8825,1.7751,1.7242,1.6989,1.6838,1.6588,1.6494,1.6494,1.64,1.64,1.6353,1.6163,1.6082,1.6035,1.5832,1.5784,1.5784,1.5784,1.5784,1.5784,1.5784,1.5784,1.5784,1.5784,1.5292,1.4721,1.411,1.3611,1.2525,1.0463,0.9742,0.931,0.901,0.8162,0.7525,0.7234,0.6344,0.5778,0.5741,0.5237,0.4952,0.4919,0.4476,0.4264,0.4261,0.3986,0.3816,0.3809,0.3753,0.3736,0.3736,0.3736,0.3698,3.6458,3.809,3.9245,3.932,3.8241,3.6456,3.3908,3.1347,2.8654,2.5439,2.3851,2.2757,2.1849,2.2133,2.3021,2.4565,2.615,2.7883,2.9808,3.0926,3.1464,3.1298,3.1505,3.1381,3.0677,3.1008,3.1278,3.1278,3.1175,3.1376,3.1864,3.173,3.1552,3.1349,3.0384,2.9624,2.9084,2.8579,2.8301,2.8301,2.8301,2.8301,2.8262,2.7656,2.7246,2.6973,0.0,2.5594,2.4805,2.4805,2.4461,2.385,2.3402,2.3185,2.3135,2.2685,2.203,2.1245,2.0392,1.9503,1.8583,1.7662,1.7269,1.7088,1.6994,1.689,1.673,1.6636,1.6588,1.6588,1.64,1.6272,1.6177,1.6021,1.5879,1.5784,1.5784,1.5784,1.5784,1.5784,1.5784,1.5744,1.5658,1.5358,1.5015,1.4607,1.4221,1.3436,1.1995,1.1091,1.0457,1.013,0.9274,0.8573,0.8242,0.7293,0.6633,0.6433,0.569,0.5252,0.5196,0.4827,0.4593,0.449,0.4236,0.4072,0.3945,0.386,0.3833,0.3833,0.3833,0.3871,3.8492,3.932,3.9647,3.9019,3.6949,3.4389,3.2026,2.8675,2.5485,2.3492,2.2242,2.1493,2.1331,2.1182,2.1681,2.3483,2.4347,2.5924,2.9042,2.9891,3.0657,3.1926,3.207,3.1981,3.1588,3.1899,3.207,3.207,3.207,3.207,3.207,3.2272,3.208,3.1549,3.0883,2.9983,2.8727,2.8514,2.8354,2.8354,2.8301,2.8301,2.8262,2.7402,2.7012,2.6973,2.6064,2.5693,2.5693,2.5693,2.5693,2.5577,2.4658,2.4295,2.4196,2.3302,2.2626,2.2134,2.1147,2.054,1.9925,1.8312,1.7618,1.7395,1.7404,1.7242,1.6979,1.6777,1.6683,1.6683,1.6683,1.6494,1.6272,1.6224,1.6021,1.5832,1.5832,1.5784,1.5784,1.5784,1.5784,1.5752,1.5498,1.5418,1.5231,1.471,1.4401,1.4126,1.3822,1.2518,1.1536,1.1302,1.0305,0.9575,0.9223,0.8497,0.7811,0.7261,0.6259,0.5616,0.5399,0.5126,0.4876,0.4685,0.454,0.4335,0.4153,0.4012,0.3927,0.3927,0.3927,0.3938,3.8718,3.9597,4.0124,3.912,3.7515,3.5276,3.2137,2.8834,2.5679,2.2997,2.1216,2.0154,2.0111,2.0947,2.2199,2.386,2.5472,2.7395,3.0099,3.0843,3.1505,3.2499,3.2545,3.2525,3.2499,3.2561,3.2545,3.2545,3.2545,3.2545,3.2545,3.2628,3.2164,3.1044,3.0887,3.0255,2.9026,2.8781,2.8621,2.8621,2.8408,2.8301,2.8262,2.7402,2.7012,2.6973,2.6064,0.0,2.5693,2.5693,2.5693,2.5693,2.5479,2.543,2.5382,2.5235,2.4571,2.3686,2.3214,2.2421,2.1226,1.8613,1.7779,1.7644,1.7392,1.729,1.7246,1.7185,1.7185,1.7153,1.6979,1.6885,1.6744,1.6319,1.6177,1.6069,1.5832,1.5784,1.5784,1.5784,1.5784,1.5771,1.5718,1.5551,1.5364,1.5257,1.4785,1.4365,1.4139,1.3365,1.2637,1.2116,1.1314,1.0527,0.9844,0.9133,0.8369,0.7516,0.7013,0.6489,0.5912,0.5555,0.532,0.5164,0.4871,0.4618,0.4345,0.4163,0.4051,0.4051,0.4051,0.4143,3.9923,4.0325,4.0249,3.9145,3.6759,3.3796,3.0457,2.6892,2.3678,2.1468,2.0137,1.9459,1.9761,2.0913,2.22,2.3502,2.4709,2.6539,2.9444,2.9901,3.0532,3.2132,3.2525,3.2669,3.2669,3.2669,3.2669,3.2669,3.2669,3.2669,3.2669,3.2292,3.176,3.1196,3.056,2.9929,2.9343,2.9079,2.894,2.8887,2.8621,2.8568,2.8688,2.7506,2.7063,2.7157,2.6143,2.5693,2.5693,2.5693,2.5693,2.5693,2.5693,2.5693,2.5693,2.5693,2.5382,2.4835,2.4122,2.3492,2.2765,2.0638,1.9491,1.8916,1.8883,1.839,1.7794,1.7633,1.7574,1.7541,1.7446,1.7188,1.6975,1.6846,1.6477,1.6177,1.6021,1.5879,1.5784,1.5784,1.5784,1.5784,1.5784,1.5712,1.5565,1.5418,1.515,1.4825,1.4432,1.3957,1.3412,1.28,1.223,1.1706,1.1175,1.0201,0.9435,0.8971,0.8208,0.7443,0.6648,0.6471,0.6237,0.5886,0.5412,0.5171,0.5185,0.4632,0.4371,0.4371,0.4246,0.4246,4.0576,4.0676,4.0224,3.8994,3.5855,3.219,2.8875,2.5109,2.1845,2.0137,1.9359,1.9158,1.971,2.0786,2.1913,2.2977,2.3754,2.5264,2.838,2.9004,2.9977,3.1994,3.2973,3.3424,3.3424,3.3218,3.3105,3.3105,3.2841,3.2669,3.2669,3.1961,3.1485,3.1381,3.0393,2.9761,2.9659,2.9396,2.9185,2.9185,2.894,2.8887,2.9059,2.7863,2.7345,2.7359,2.6438,2.5947,2.5693,2.5791,2.5771,2.5693,2.5693,2.5693,2.5693,2.5693,2.5693,2.5577,2.4756,2.4442,2.4239,2.3126,2.1684,2.0362,2.0277,1.9524,1.8528,1.8033,1.7925,1.7925,1.7925,1.7591,1.7332,1.748,1.6924,1.6415,1.6415,1.6171,1.5974,1.5879,1.5879,1.5879,1.5832,1.5784,1.5752,1.5524,1.5431,1.5231,1.4763,1.4427,1.4039,1.3378,1.3029,1.2651,1.2322,1.133,1.0638,1.0387,0.9446,0.8514,0.7655,0.7547,0.7224,0.6573,0.6179,0.5916,0.5759,0.5166,0.4788,0.4628,0.4495,0.4411,3.9069,3.9798,4.0124,3.8492,3.5554,3.219,2.8875,2.5109,2.1845,2.0137,1.9359,1.9158,1.971,2.0335,2.1202,2.2377,2.3482,2.5018,2.741,2.9764,3.1659,3.2853,3.4696,3.5859,3.5859,3.4947,3.4323,3.4323,3.3332,3.2669,3.2669,3.2194,3.1795,3.1381,3.0884,3.0376,2.9994,2.9659,2.9554,2.9554,2.9237,2.9079,2.9059,2.8597,2.8001,2.7379,2.732,2.6645,0.0,2.6172,2.6094,2.5693,2.5693,2.5693,2.5693,2.5693,2.5693,2.5693,2.5577,2.5528,2.5528,2.5392,2.3718,2.1571,2.0297,1.986,1.9536,1.8557,1.8262,1.8262,1.8262,1.8233,1.8134,1.7916,1.7442,1.7008,1.7008,1.6737,1.6447,1.6224,1.6177,1.6082,1.5832,1.5784,1.5771,1.5792,1.5565,1.5378,1.5324,1.4799,1.4379,1.4135,1.3489,1.2858,1.2333,1.2172,1.1682,1.0716,1.0347,0.9769,0.8949,0.8693,0.8112,0.7163,0.744,0.6838,0.5349,0.5647,0.5451,0.4794,0.4767,0.4726,3.799,3.917,3.9697,3.8341,3.4776,3.0909,2.8222,2.4356,2.1016,2.0012,1.9359,1.9158,1.971,2.0289,2.1084,2.2193,2.2176,2.3077,2.6057,2.7254,2.8943,3.1753,3.3889,3.5466,3.614,3.6077,3.5591,3.4547,3.3388,3.2669,3.2669,3.2043,3.1567,3.1381,3.0657,3.018,2.9994,2.9889,2.9837,2.9837,2.9554,2.9501,2.9606,2.8845,2.8439,2.8288,2.7874,2.7321,0.0,2.6655,2.6418,2.6094,2.5791,2.5693,2.5693,2.5693,2.5693,2.5693,2.5693,2.5693,2.5693,2.5693,2.5004,2.3987,2.2779,2.1989,2.1197,1.9912,1.9568,1.9568,1.9568,1.9568,1.9521,1.9158,1.8336,1.7576,1.7576,1.7238,1.6868,1.6773,1.6443,1.6177,1.6082,1.5927,1.5784,1.5784,1.5725,1.5591,1.5418,1.519,1.4865,1.4432,1.3672,1.3083,1.2825,1.249,1.2107,1.1694,1.1421,1.0818,0.988,0.971,0.9332,0.8602,0.8333,0.7798,0.697,0.7103,0.6759,0.6005,0.5894,0.5825,3.6031,3.7613,3.8492,3.7513,3.3796,2.9779,2.758,2.3884,2.0717,1.9962,1.951,1.9334,1.9736,2.0137,2.0792,2.1895,2.1502,2.2189,2.5302,2.6325,2.7941,3.109,3.3303,3.5145,3.6567,3.7247,3.6681,3.4624,3.3706,3.3069,3.2727,3.1878,3.1381,3.1381,3.047,2.9994,2.9994,2.9994,2.9994,2.9994,2.9837,2.9837,2.9994,2.9248,2.892,2.886,2.8543,2.8065,0.0,2.7132,2.6784,2.6477,2.5898,2.5693,2.5693,2.5693,2.5693,2.5693,2.5693,2.5693,2.5693,2.5693,2.5693,2.5577,2.4805,2.385,2.2683,2.1378,2.1013,2.1013,2.1013,2.1013,2.0948,2.0737,1.9623,1.8637,1.8637,1.8041,1.7406,1.721,1.6834,1.6463,1.6238,1.6021,1.5879,1.5832,1.5784,1.5704,1.5551,1.5444,1.5244,1.4816,1.4206,1.3701,1.3463,1.2996,1.2734,1.274,1.2424,1.1873,1.1044,1.0847,1.0457,0.9766,0.9432,0.8921,0.8201,0.8321,0.7964,0.722,0.707,0.6853,3.286,3.4771,3.6304,3.5658,3.2667,2.9227,2.7002,2.391,2.1167,2.0037,1.9811,1.9786,1.9811,1.9811,2.0188,2.1317,2.1945,2.3115,2.5457,2.8098,3.0223,3.1428,3.3424,3.5558,3.7765,3.8488,3.7559,3.4736,3.4469,0.0,3.2784,3.1878,3.1381,3.1381,3.047,2.9994,2.9994,2.9994,2.9994,2.9994,2.9994,2.9994,2.9994,2.9994,2.9569,2.8952,2.9402,2.894,0.0,2.7551,2.7141,2.6705,2.5996,2.5693,2.5693,2.5693,2.5693,2.5693,2.5693,2.5693,2.5693,2.5693,2.5693,2.5693,2.5693,2.4922,2.3831,2.2785,2.2484,2.2484,2.2484,2.2484,2.2484,2.2484,2.1395,2.0353,2.0353,1.9243,1.8105,1.7509,1.7389,1.7145,1.6327,1.6224,1.613,1.5832,1.5784,1.5784,1.5784,1.5578,1.5391,1.5391,1.5169,1.4785,1.423,1.393,1.3798,1.3798,1.336,1.297,1.2696,1.218,1.1385,1.03,1.0822,1.0233,0.8492,0.904,0.8925,0.8202,0.8167,0.77,2.8184,2.9642,3.0583,3.003,2.7846,2.5435,2.3954,2.225,2.0641,1.951,1.956,1.9811,1.9811,1.9811,2.0413,2.2268,2.2719,2.3654,2.5961,2.8288,3.0488,3.2407,3.5868,3.8693,4.0149,0.0,3.7452,3.5772,3.4969,3.3987,3.2784,3.2168,3.1692,3.1381,3.047,2.9994,2.9994,2.9994,2.9994,2.9994,2.9994,2.9994,2.9994,2.9994,2.9859,2.9683,2.9828,2.9404,2.8523,2.8127,2.7492,2.6755,2.6172,2.5868,2.5693,2.5693,2.5693,2.5693,2.5693,2.5693,2.5693,2.5693,2.5693,2.5752,2.6094,2.5711,2.5028,2.4295,2.3817,2.3655,2.3993,2.3817,2.3583,2.3583,2.2698,2.1862,2.1862,2.1329,2.0786,2.0573,1.9634,1.8707,1.8278,1.7423,1.6649,1.6157,1.6069,1.6021,1.5832,1.5752,1.5618,1.5418,1.5311,1.5046,1.4531,1.4416,1.4269,1.4136,1.3793,1.3385,1.2982,1.2626,1.2111,1.1397,1.1551,1.1104,1.0008,1.0553,1.0301,0.9358,0.9358,0.8832,2.4312,2.5862,2.6791,2.644,2.4858,2.3075,2.1945,2.084,1.9861,1.9133,1.9259,1.956,1.9761,1.9987,2.0665,2.2246,2.2844,2.3904,2.6172,2.8373,3.0758,3.3395,3.686,3.9245,0.0,3.9195,3.8326,3.6965,3.6208,3.53,3.4078,3.2976,3.2289,3.2048,3.0903,3.018,2.9994,2.9994,2.9994,2.9994,2.9994,2.9994,2.9994,2.9994,2.9994,2.9994,2.9994,2.9724,0.0,2.8523,2.7873,2.7292,2.6523,2.6159,2.5965,2.5868,2.5868,2.582,2.5742,2.5791,2.5908,2.5752,2.5693,2.5771,2.625,2.6191,2.5926,2.568,2.5321,2.5095,2.5528,2.5434,2.5177,2.5177,2.4245,2.3382,2.3382,2.2765,2.2139,2.2051,2.1145,2.0346,1.9957,1.8839,1.7833,1.7227,1.6709,1.63,1.5987,1.5879,1.5765,1.5578,1.5565,1.5438,1.5068,1.4949,1.4851,1.4702,1.4443,1.4091,1.3679,1.3315,1.287,1.2351,1.2241,1.1861,1.1152,1.148,1.1268,1.0515,1.0515,0.9965,0.0,2.3075,2.4249,2.4249,2.3125,2.1694,2.0691,1.9685,0.0,1.8933,1.8983,1.9208,1.9861,2.039,2.0943,2.1719,2.2673,2.4048,2.6348,2.8686,3.1361,3.4625,3.686,3.7939,3.7412,3.9245,3.9752,3.8027,3.7849,3.7346,3.6194,3.4263,3.3219,3.3175,3.1721,3.0609,2.9994,2.9994,2.9994,2.9994,2.9994,2.9994,2.9994,2.9973,2.9953,0.0,2.9911,2.987,2.9787,2.8644,2.8125,2.8023,2.6964,2.6496,2.6448,2.6207,2.6091,2.6062,2.582,2.6045,2.6339,2.5898,2.5781,2.581,2.6289,2.6406,2.6484,2.6934,2.6758,2.6523,2.6953,2.7031,2.7012,2.7012,2.5939,2.4928,2.4891,2.3806,2.2665,2.2334,2.2198,2.1979,2.1473,2.0442,1.9507,1.8955,1.7838,1.6884,1.6388,1.6143,1.594,1.5832,1.5832,1.5832,1.5784,1.5578,1.5431,1.5431,1.5219,1.4996,1.463,1.4122,1.3623,1.3174,1.2858,1.2462,1.191,1.191,1.1778,1.1525,1.1525,1.0985,1.7654,0.0,1.9133,1.9133,1.8832,1.8504,0.0,1.8279,1.8405,1.8405,1.8707,1.9559,2.1393,2.1142,2.1722,2.4815,2.5134,2.5787,2.8021,3.1361,3.465,3.7563,3.8718,3.9245,3.912,3.9572,3.933,3.8003,3.7512,3.6801,3.5665,3.4721,3.4012,3.3731,3.336,3.214,2.9994,2.9994,2.9994,2.9994,2.9994,2.9994,2.9973,2.9622,2.9456,2.9456,2.9083,2.8731,2.84,2.8074,2.7688,2.7186,2.6934,2.6709,2.6496,2.6448,2.6304,2.6091,2.6255,2.6218,2.6191,2.6409,2.6359,2.6309,2.6738,2.6641,2.6543,2.7305,2.7207,2.6973,2.7402,2.7266,2.7012,2.7012,2.673,2.6403,2.6095,2.5741,2.5332,2.4914,2.4165,2.3461,2.313,2.2122,2.1225,2.0712,2.0327,1.9574,1.8007,1.7915,1.7432,1.594,1.5974,1.6021,1.5832,1.5718,1.5725,1.5725,1.5478,1.5226,1.4976,1.4598,1.4179,1.3635,1.3229,1.2745,1.2228,1.2228,1.2083,1.179,1.179,1.1567,1.65,1.7124,1.7752,1.7752,1.7752,1.7827,1.8078,1.7978,1.7978,1.848,1.8807,1.9584,2.1568,2.1644,2.2372,2.5234,2.5862,2.7042,3.003,3.2918,3.5655,3.8191,3.8969,3.9421,0.0,3.9697,3.9413,3.8764,3.8221,3.7645,3.7052,3.5746,3.4899,3.4668,3.3981,3.2667,3.0733,3.0733,3.0495,2.9994,2.9994,2.9891,2.9663,2.9415,2.9187,2.898,2.8711,2.8462,2.8214,2.8007,2.7682,2.7359,2.7153,2.6976,2.6832,2.6736,2.6592,2.6448,2.6496,2.64,2.6363,2.6754,2.6675,2.6537,2.717,2.721,2.7061,2.7349,2.7344,2.7324,2.7363,2.748,2.7559,2.7363,2.7305,2.7187,2.6758,2.6523,2.625,2.5771,2.5216,2.4798,2.46,2.3669,2.2792,2.2355,2.1772,2.096,1.9782,1.967,1.9003,1.7322,1.7165,1.6824,1.6035,1.5879,1.5784,1.5784,1.5685,1.5545,1.5451,1.5127,1.4701,1.4179,1.3805,1.3374,1.2845,1.2845,1.2607,1.2054,1.2054,1.1922,1.6701,1.7674,1.8553,1.8154,1.8329,1.8656,1.8933,1.8355,1.8028,1.9033,1.9309,1.991,2.1669,2.2372,2.3271,2.5126,2.6515,2.8686,3.2441,3.4198,3.5855,3.7889,3.8642,0.0,3.9521,3.9647,3.9672,3.9572,3.9044,3.8743,3.8617,3.68,3.5695,3.5695,3.4426,3.3178,3.2072,3.1768,3.1124,3.0235,3.0099,2.9746,2.9311,2.9228,2.8938,2.8504,0.0,0.0,2.838,2.7986,2.7821,2.7779,2.7455,2.7309,2.7262,2.7044,2.6948,2.6853,2.664,2.6544,2.6625,2.6999,2.6858,2.6657,2.7462,2.7703,2.7603,2.7089,2.7369,2.7708,2.7148,2.7656,2.8164,2.7728,2.7708,2.7637,2.7129,2.6797,2.6465,2.5966,2.5888,2.5888,2.5888,2.5161,2.4449,2.407,2.309,2.2132,2.1604,2.1343,2.0664,1.9161,1.886,1.8165,1.6639,1.6327,1.6062,1.5832,1.5784,1.5784,1.5784,1.5551,1.5166,1.4591,1.4411,1.4066,1.3486,1.3523,1.3157,1.2414,1.2414,1.2216,1.7725,1.928,2.0144,1.8048,1.8932,2.0088,1.9183,1.9208,1.961,2.0314,2.0817,2.1769,2.3904,2.4349,2.5252,2.7835,3.0005,3.2516,3.5931,3.6634,3.7287,3.8642,0.0,3.9421,3.9044,3.9421,3.9496,3.9044,3.8467,3.7939,3.7462,3.6739,3.6293,3.6293,3.6051,3.5379,3.4337,3.2527,3.1534,3.133,3.0443,2.9746,2.929,2.8897,2.8462,2.8007,0.0,2.7517,2.7517,2.7434,2.7413,2.7413,2.733,2.7309,2.7309,2.7262,2.7071,2.69,2.6853,2.6853,2.6914,2.7313,2.7005,2.6597,2.7051,2.7191,2.7131,2.6701,2.754,2.8292,2.7278,2.7656,2.8086,2.7305,2.7676,2.7988,2.7187,2.7246,2.7344,2.6914,2.6816,2.6816,2.6816,2.6664,2.6408,2.6032,2.5825,2.5024,2.322,2.3094,2.2499,2.0664,2.0647,1.9989,1.8118,1.796,1.7318,1.5893,1.5784,1.5784,1.5784,1.5551,1.5166,1.4591,1.4591,1.4198,1.3412,1.3653,1.3473,1.299,1.299,1.2605,1.7375,1.8996,2.0348,1.9227,2.0653,2.2076,2.1154,2.1208,2.167,2.2419,2.277,2.3523,2.5393,2.5963,2.7143,3.0206,3.2524,3.4505,3.6081,3.681,3.7487,0.0,0.0,3.927,3.932,3.927,3.9145,3.8944,3.8065,3.7462,3.7186,3.6707,3.6405,3.6405,3.6405,3.6168,3.5667,3.4117,3.3028,3.2448,3.1677,3.0752,2.9778,2.926,2.8522,2.7552,0.0,2.7309,2.7309,2.7309,2.7309,2.7309,2.7309,2.7309,2.7309,2.7309,2.7214,2.7139,2.7139,2.7139,2.716,2.7318,2.7188,2.701,2.7411,2.7533,2.7492,2.7191,2.7834,2.8269,2.6902,2.7511,2.8245,2.7226,2.75,2.7851,2.7441,2.7344,2.7266,2.7051,2.6836,2.6738,2.6973,2.6641,2.6348,2.6387,2.6191,2.5683,2.4744,2.4687,2.4111,2.2469,2.2337,2.1652,1.9989,1.9622,1.8399,1.5953,1.5784,1.5784,1.5784,1.5551,1.5358,1.5233,1.5087,1.4786,1.4346,1.4275,1.3975,1.3478,1.3212,1.2799,1.7423,1.8858,2.0347,2.0451,2.199,2.3478,2.3433,2.3577,2.397,2.5071,2.5364,2.579,2.6822,2.7763,2.9328,3.2315,3.453,3.6034,3.6411,3.7236,3.7939,3.8341,3.8793,3.922,3.9647,3.9195,3.8869,3.8668,3.7739,3.7136,3.6985,3.6631,3.6405,3.6405,3.6405,3.6405,3.6405,3.5448,3.4438,3.3363,3.2724,3.1663,3.0312,2.9693,2.8778,2.762,2.7404,2.7309,2.7309,2.7309,2.7309,2.7309,2.7309,2.7309,2.7309,2.7309,2.7309,2.7309,2.7309,2.7309,2.7309,2.7309,2.7309,2.7372,2.7655,2.7759,2.771,2.7585,2.7912,2.8006,2.6583,2.7361,2.8212,2.7117,2.7282,2.7584,2.7486,2.7317,2.7168,2.7168,2.6992,2.6934,2.7266,2.6777,2.6406,2.666,2.6328,2.5947,2.5898,2.5752,2.5295,2.4208,2.3929,2.3281,2.183,2.0757,1.9225,1.689,1.6075,1.5704,1.5784,1.5484,1.5431,1.5725,1.5511,1.5272,1.5068,1.4865,1.4468,1.3886,1.3552,1.3104,1.8986,1.9929,2.0704,2.0964,2.1909,2.3317,2.5454,2.5948,2.6437,2.8107,2.8852,2.9108,2.8723,3.0126,3.207,3.4173,3.5956,3.7613,3.917,0.0,3.9521,3.9572,3.9622,3.9647,3.9697,3.9195,3.8642,3.8115,3.7513,3.696,3.6505,3.643,3.6405,3.6405,3.6405,3.6405,3.6405,3.5762,3.4928,3.3959,3.2903,3.1819,3.0718,2.9825,2.9088,2.8538,2.7668,2.7309,2.7309,2.7309,2.7309,2.7309,2.7309,2.7309,2.7309,2.7309,2.7309,2.7309,2.7309,2.7309,2.7309,2.7309,2.7309,2.7309,2.7351,2.7351,2.7351,2.7303,2.7607,2.7708,2.6714,2.7151,2.7633,2.6749,2.6993,2.7269,2.6873,2.7204,2.7669,2.7669,2.791,2.8164,2.8203,2.8144,2.7988,2.7689,2.7207,2.6777,2.6387,2.5996,2.5674,2.5538,2.5538,2.486,2.3299,2.0955,1.9556,1.9523,1.6961,1.5551,1.5771,1.5297,1.5124,1.5418,1.5404,1.5257,1.5003,1.5244,1.4935,1.4174,1.4148,1.3621,1.8474,1.9871,2.1303,2.1797,2.3043,2.4624,2.6472,2.8066,2.9528,3.0789,3.1758,3.2157,3.1472,3.2408,3.3604,3.4704,3.6779,3.8467,3.9094,3.9471,3.9697,3.9697,3.9697,3.9697,3.9697,3.8868,3.8241,3.8015,3.7186,3.6631,3.6405,3.6405,3.6405,3.6405,3.6031,3.5855,3.5855,3.5257,3.4624,3.3913,3.3524,3.2482,3.0905,3.0237,2.9132,2.7809,2.7452,2.7309,2.7309,2.7309,2.7309,2.7309,2.7309,2.7309,2.7309,2.7309,2.7309,2.7309,2.7309,2.7309,2.7309,2.7309,2.7309,2.7309,2.7309,2.7309,2.7309,2.7309,2.7434,2.7421,2.6893,2.7406,2.7864,2.7039,2.7061,2.7222,2.7172,2.71,2.7196,2.7611,2.7578,2.7656,2.8203,2.7637,2.7226,2.7669,2.6836,2.6269,2.6367,2.6016,2.5577,2.5352,2.5312,2.4899,2.3824,2.2593,2.1573,2.0962,1.8087,1.6515,1.6702,1.5768,1.5284,1.5391,1.5217,1.5164,1.5231,1.5164,1.5017,1.4701,1.4523,1.3944,1.8401,1.976,2.1407,2.2192,2.3971,2.6112,2.8248,3.0038,3.1693,3.3268,3.3903,3.4001,3.3322,3.3675,3.4274,3.5052,3.7107,3.8718,3.9069,3.9446,3.9622,3.9446,3.9421,3.9371,3.917,3.8291,3.7739,3.7739,3.6885,3.6405,3.6405,3.6207,3.6107,3.6107,3.5579,3.5232,3.5232,3.4751,3.4274,3.3897,3.3721,3.2936,3.1634,3.0965,2.9897,2.8631,2.7998,2.7762,2.7715,2.7452,2.7309,2.7309,2.7309,2.7309,2.7309,2.7309,2.7309,2.7309,2.7309,2.7309,2.7309,2.7309,2.7309,2.7309,2.7309,2.7309,2.7309,2.7309,2.7309,2.7262,2.7071,2.7495,2.7787,2.7313,2.7085,2.7068,2.7222,2.7013,2.7013,2.7614,2.7582,2.77,2.8323,2.7682,2.7251,2.765,2.6914,2.6367,2.6387,2.6133,2.5723,2.5184,2.5106,2.4894,2.4415,2.3787,2.313,2.2427,1.9832,1.819,1.7796,1.6538,1.5878,1.5883,1.5372,1.5204,1.5391,1.5204,1.5048,1.483,1.4639,1.4139,1.9081,1.981,2.1013,2.2139,2.4599,2.7635,3.104,3.1823,3.2633,3.5547,3.5208,3.4298,3.3904,3.3777,3.4125,3.5324,3.6935,3.8391,3.9521,3.9672,3.9471,3.8919,3.8919,3.8642,3.8065,3.7513,3.7186,3.7186,3.6707,3.6405,3.638,3.583,3.5483,3.5483,3.4956,3.4726,3.4726,3.4173,3.3897,3.3897,3.3345,3.3068,3.3025,3.2045,3.1581,3.1492,2.9532,2.8724,2.8631,2.7715,2.7309,2.7309,2.7309,2.7309,2.7309,2.7309,2.7309,2.7309,2.7309,2.7309,2.7309,2.7309,2.7309,2.7309,2.7309,2.7309,2.7309,2.7309,2.7309,2.7309,2.7309,2.7309,2.7309,2.7309,2.7092,2.69,2.69,2.6984,2.7231,2.7723,2.8166,2.8525,2.8648,2.8674,2.8483,2.7787,2.7728,2.7395,2.6504,2.6387,2.6035,2.5204,2.5106,2.5106,2.5106,2.4277,2.3874,2.4071,2.2343,2.0588,1.8879,1.751,1.6876,1.701,1.5961,1.5391,1.5391,1.5391,1.5084,1.4522,1.4479,1.4233,1.9708,2.0963,2.274,2.3919,2.6661,2.9797,3.2463,3.3352,3.445,3.7351,3.7037,3.6183,3.6051,3.5875,3.5723,3.5718,3.6828,3.7855,3.8184,3.8365,3.8442,3.8291,3.8266,3.8191,3.8015,3.7513,3.701,3.6681,3.6107,3.5604,3.5228,3.5188,3.5203,3.5203,3.4851,3.4546,3.4344,3.3788,3.3492,3.3319,3.3169,3.2723,3.2021,3.1713,3.1226,3.0576,2.9988,2.9761,2.9669,2.8678,2.7904,2.7309,2.7309,2.7309,2.7309,2.7309,2.7309,2.7309,2.7309,2.7309,2.7309,2.7309,2.7309,2.7309,2.7309,2.7309,2.7309,2.7309,2.7489,2.7655,2.7392,2.7489,2.7655,2.7372,2.7462,2.7462,2.701,2.6954,2.7033,2.7261,2.7703,2.8115,2.8505,2.8585,2.854,2.8404,2.789,2.7247,2.6495,2.584,2.5234,2.4668,2.4336,2.4043,2.373,2.4023,2.3978,2.3421,2.3198,2.2117,1.9939,1.8792,1.795,1.7337,1.6386,1.5805,1.5674,1.5086,1.4696,1.4522,1.4736,1.4519,2.0124,2.1642,2.3602,2.528,2.8255,3.138,3.3744,3.5234,3.6671,3.8658,3.7978,3.7019,3.7163,3.6689,3.6296,3.6335,3.7113,3.7792,3.8046,3.8108,3.8087,3.786,3.7737,3.7561,3.7182,3.6782,3.6402,3.6033,3.5495,3.5077,3.4886,3.4793,3.4756,3.4756,3.4415,3.4152,3.4023,3.3692,3.3428,3.324,3.324,3.2853,3.222,3.222,3.1889,3.1335,3.0935,3.0531,3.017,2.9532,2.8724,2.7857,2.7857,2.762,2.7309,2.7309,2.7309,2.7309,2.7309,2.7309,2.7309,2.7309,2.7309,2.7309,2.7309,2.7309,2.7309,2.7309,2.7448,2.7593,2.7372,2.7717,2.809,2.7634,2.7738,2.7793,2.74,2.729,2.7385,2.7618,2.7923,2.8259,2.8836,2.8958,2.8874,2.866,2.7819,2.7051,2.6842,2.5957,2.5098,2.4473,2.4336,2.4062,2.3437,2.4023,2.4121,2.3437,2.3633,2.3025,2.1256,2.014,1.9237,1.8515,1.7483,1.6609,1.5905,1.539,1.4874,1.4349,1.4536,1.4472,2.0543,2.2034,2.389,2.6295,2.9562,3.2685,3.4946,3.7063,3.871,3.9259,3.824,3.7332,3.7546,3.6722,3.6244,3.697,3.7467,3.798,3.8518,3.8401,3.8051,3.7543,3.7225,3.6701,3.5948,3.5617,3.5456,3.5328,3.492,3.476,3.4933,3.4495,3.419,3.419,3.3896,3.3768,3.3768,3.3768,3.3641,3.3428,3.3386,3.3326,3.3154,3.3111,3.3111,3.3025,3.2133,3.1202,3.0351,3.0351,2.9715,2.8817,2.8724,2.8164,2.7404,2.7309,2.7309,2.7309,2.7309,2.7309,2.7309,2.7309,2.7309,2.7309,2.7309,2.7309,2.7309,2.7309,2.7372,2.7413,2.733,2.7924,2.8504,2.7979,2.7986,2.8028,2.7986,2.7937,2.811,2.8524,2.8649,2.8837,2.9454,2.9638,2.9411,2.8712,2.7692,2.7092,2.7359,2.6438,2.5449,2.457,2.4805,2.4668,2.3867,2.4141,2.418,2.375,2.373,2.3379,2.2598,2.1416,2.0558,2.0075,1.888,1.7632,1.6342,1.6257,1.5573,1.4377,1.4292,1.425,2.1825,2.2949,2.467,2.7915,3.1653,3.492,3.6332,3.7011,3.7403,3.7534,3.837,3.8945,3.8533,3.7886,3.7365,3.7085,3.6955,3.6922,3.7051,3.6893,3.6729,3.6601,3.61,3.5698,3.5513,3.5443,3.5258,3.4827,3.4689,3.4441,3.4024,3.4067,3.4117,3.4117,3.4224,3.4189,3.4021,3.4021,3.3894,3.3641,3.3471,3.3471,3.3556,3.324,3.3111,3.3068,3.2853,3.222,3.1315,3.1315,3.0711,2.9806,2.9002,2.8585,2.8305,2.7573,2.7309,2.7309,2.7309,2.7309,2.7309,2.7309,2.7309,2.7309,2.7309,2.7309,2.7309,2.7309,2.7779,2.8152,2.7496,2.7924,2.8504,2.7979,2.8483,2.8918,2.8545,2.8462,2.8504,2.8587,2.8918,2.9228,2.9363,2.9642,2.9796,2.9431,2.8935,2.8333,2.7529,2.6893,2.6143,2.5067,2.4707,2.4355,2.3828,2.3867,2.373,2.3257,2.3237,2.3159,2.2964,2.2109,2.1342,2.0721,1.9453,1.8591,1.8059,1.7368,1.6885,1.6601,1.5752,1.5379,2.1328,2.3027,2.5615,3.0215,3.3352,3.5391,3.5678,3.5992,3.6096,3.5809,3.6907,3.7926,3.79,3.7429,3.6933,3.6619,3.6434,3.6389,3.6389,3.6192,3.6058,3.6058,3.5667,3.534,3.519,3.5076,3.4889,3.4512,3.4058,3.3819,3.3894,3.372,3.3804,3.4063,3.4079,3.3964,3.384,3.358,3.3301,3.3096,3.3255,3.3299,3.3299,3.3005,3.2794,3.2641,3.239,3.2012,3.1546,3.1792,3.1327,3.0472,3.0168,2.9806,2.9349,2.8863,2.8398,2.7998,2.7998,2.7668,2.7309,2.7309,2.7309,2.7309,2.7309,2.7309,2.7309,2.7309,2.7759,2.8173,2.7696,2.809,2.8607,2.8587,2.8607,2.8628,2.8628,2.8607,2.8669,2.8897,2.9145,2.9373,2.9601,2.9642,2.9611,2.9507,2.886,2.8158,2.7592,2.7001,2.6335,2.5516,2.5238,2.4796,2.4028,2.3969,2.3683,2.312,2.3101,2.3101,2.3101,2.2519,2.1931,2.138,2.0324,1.9432,1.8798,1.8359,1.7819,1.7293,1.6723,1.6191,2.0517,2.3082,2.6667,3.1731,3.4005,3.4894,3.4476,3.4789,3.5025,3.4633,3.5312,3.6149,3.675,3.6358,3.5966,3.5966,3.5966,3.5966,3.5966,3.5817,3.5686,3.5582,3.5381,3.5053,3.4555,3.4452,3.4314,3.4095,3.3364,3.3189,3.3835,3.3379,3.3327,3.3861,3.3584,3.343,3.343,3.2934,3.2619,3.246,3.2913,3.2957,3.2736,3.2485,3.232,3.2081,3.1587,3.1386,3.1411,3.1888,3.1653,3.1051,3.1356,3.1042,3.0441,3.026,2.9669,2.8956,2.8771,2.8164,2.7499,2.7357,2.7309,2.7309,2.7309,2.7309,2.7309,2.7309,2.7572,2.7903,2.7821,2.8152,2.8566,2.8876,2.8359,2.8007,2.8711,2.8731,2.8773,2.9311,2.9415,2.9539,2.9932,2.9684,2.9394,2.9311,2.8499,2.7815,2.7603,2.7081,2.6484,2.5993,2.5933,2.5498,2.4436,2.4312,2.3984,2.3208,2.3188,2.3144,2.3101,2.2691,2.2344,2.1992,2.1133,2.0272,1.9384,1.9311,1.8798,1.7859,1.7658,1.7131,2.1093,2.423,2.7699,2.9996,3.2228,3.3927,3.4319,3.445,3.4633,3.5077,3.5286,3.5574,3.6123,3.5783,3.5417,3.5417,3.5417,3.5417,3.5417,3.5374,3.5165,3.4669,3.4549,3.4131,3.3103,3.3427,3.352,3.296,3.2815,3.275,3.2868,3.2815,3.2789,3.2868,3.2855,3.2803,3.2803,3.2725,3.2698,3.2659,3.2737,3.2524,3.2096,3.1808,3.1701,3.1757,3.1518,3.1386,3.1411,3.1461,3.1705,3.1921,3.1229,3.1129,3.1315,3.0486,3.0125,2.9897,2.9002,2.8631,2.8351,2.7573,2.7309,2.7309,2.7309,2.7309,2.7309,2.7309,2.7572,2.7841,2.7448,2.7676,2.7924,2.7662,2.7496,2.7849,2.9456,2.9187,2.8876,2.9746,2.9911,2.9932,2.9973,2.9953,2.9766,2.9373,2.9157,2.8734,2.7734,2.7492,2.7191,2.6504,2.6416,2.6054,2.5123,2.5042,2.4591,2.3509,2.345,2.3319,2.3101,2.2691,2.248,2.2441,2.1541,2.1072,2.0893,2.0546,2.0313,2.0157,1.9195,1.8718,2.206,2.3992,2.6158,2.8569,3.0163,3.1313,3.1888,3.2254,3.2568,3.2829,3.3143,3.3822,3.5365,3.5182,3.4685,3.4397,3.4607,3.4685,3.4371,3.4345,3.4241,3.3979,3.3639,3.3247,3.2751,3.2934,3.2986,3.2698,3.2411,3.2359,3.2672,3.2385,3.2228,3.2228,3.1888,3.1731,3.1731,3.1418,3.1536,3.2163,3.1888,3.1772,3.1889,3.1319,3.1216,3.1414,3.0885,3.068,3.0705,3.0849,3.126,3.1746,3.1628,3.1945,3.2394,3.1977,3.1492,3.089,3.0486,2.9988,2.9486,2.9073,2.8934,2.8817,2.8258,2.8092,2.7998,2.7452,2.7572,2.7883,2.7676,2.7779,2.7945,2.8007,2.7683,2.7662,2.8938,2.8897,2.8897,2.9808,2.9994,2.9994,2.9994,2.9787,2.9539,2.9332,2.8856,2.833,2.7819,2.7572,2.7277,2.6996,2.6478,2.6064,2.5762,2.5092,2.4472,2.4091,2.3807,2.3537,2.3319,2.3142,2.3001,2.2828,2.2031,2.1602,2.1602,2.1152,2.0937,2.0937,2.0233,1.955,2.1825,2.2871,2.4178,2.6353,2.7863,2.8987,2.9562,3.0372,3.1026,3.1182,3.1653,3.2554,3.4319,3.4397,3.4005,3.3456,3.3822,3.4005,3.343,3.3352,3.33,3.3169,3.2881,3.2568,3.228,3.2385,3.2411,3.228,3.1862,3.181,3.2228,3.1705,3.138,3.138,3.0843,3.0555,3.0555,3.0268,3.0518,3.1354,3.113,3.1209,3.1562,3.1031,3.0905,3.1113,3.0433,3.0177,3.019,3.0388,3.0788,3.1317,3.187,3.2407,3.291,3.3104,3.2655,3.1933,3.1669,3.1137,3.0531,3.026,3.0215,3.0079,2.9303,2.891,2.8538,2.7857,2.7681,2.7759,2.7759,2.7759,2.7841,2.8193,2.7759,2.7496,2.8131,2.8442,2.8773,2.9352,2.9663,2.9829,2.9829,2.9539,2.927,2.9145,2.8442,2.7883,2.7759,2.7365,2.7185,2.7289,2.6584,2.614,2.6285,2.5255,2.4635,2.4593,2.419,2.3797,2.358,2.358,2.3493,2.3276,2.2647,2.2232,2.2051,2.1504,2.119,2.119,2.0781,2.0157,1.9264,2.0779,2.2506,2.2663,2.5171,2.7725,2.8333,2.9771,3.113,3.1641,3.2254,3.2672,3.2803,3.3273,3.343,3.2829,3.3247,3.343,3.2829,3.2751,3.2542,3.1954,3.2385,3.228,3.1182,3.1575,3.1615,3.113,3.1052,3.1052,3.1078,3.0529,3.0179,3.0179,2.9666,2.9415,2.9415,2.9839,3.0127,3.0205,3.0738,3.0999,3.1026,3.0999,3.0999,3.0988,3.0584,3.0368,3.0368,3.019,3.0443,3.1001,3.1599,3.1994,3.2315,3.3123,3.324,3.2896,3.1933,3.1581,3.1403,3.0486,3.0215,3.017,3.0125,2.9441,2.8678,2.8631,2.8019,2.7351,2.7351,2.7351,2.7351,2.7372,2.7351,2.7309,2.7372,2.8007,2.8504,2.811,2.8731,2.9352,2.9352,2.9332,2.9145,2.8711,2.8235,2.7779,2.7392,2.6936,2.6832,2.7268,2.6874,2.6584,2.6558,2.6103,2.5558,2.49,2.4451,2.4077,2.3797,2.3797,2.3797,2.3754,2.3541,2.3106,2.248,2.16,2.119,2.119,2.0781,2.0566,2.0098,2.0674,2.1485,2.2244,2.3315,2.4461,2.5432,2.6974,2.8386,2.8926,3.01,3.1156,3.1522,3.2359,3.2829,3.2228,3.2646,3.2803,3.2228,3.2111,3.2032,3.1823,3.1705,3.1444,3.1026,3.1182,3.1209,3.0999,3.0973,3.0817,3.0451,3.0205,2.9761,2.9039,2.8804,2.8734,2.8734,2.9301,2.9771,3.01,3.0309,3.0634,3.0973,3.0973,3.0973,3.0973,3.0823,3.071,3.0584,3.0368,3.0624,3.1147,3.1775,3.2255,3.2733,3.3183,3.3428,3.3428,3.2914,3.2785,3.2698,3.237,3.2239,3.2152,3.1536,3.0756,3.0079,2.9875,2.8841,2.7857,2.8305,2.807,2.7762,2.7762,2.7641,2.7499,2.7499,2.7835,2.8214,2.8338,2.8876,2.9208,2.8918,2.9104,2.9145,2.869,2.8214,2.7862,2.7696,2.7282,2.7123,2.7289,2.6625,2.6248,2.6584,2.5627,2.5044,2.5101,2.4669,2.4292,2.4077,2.4077,2.397,2.3797,2.3711,2.3501,2.3146,2.2386,2.1914,2.1641,2.1191,2.084,2.0438,2.0543,2.0882,2.1616,2.1956,2.24,2.355,2.5014,2.6353,2.7079,2.8464,2.9719,3.032,3.1182,3.1784,3.1536,3.2045,3.2202,3.1588,3.151,3.151,3.151,3.1209,3.0973,3.0973,3.0973,3.0973,3.0973,3.0973,0.0,3.0424,3.0022,2.9301,2.8124,2.8098,2.8098,2.8098,2.8673,2.917,2.9536,2.9709,3.0137,3.0712,3.0712,3.0817,3.0973,3.0973,3.0924,3.0811,3.0558,3.0714,3.1126,3.1897,3.2397,3.2726,3.3385,3.3641,3.3683,3.3556,3.3513,3.3513,3.3513,3.3513,3.3386,3.276,3.2021,3.1291,3.0777,2.9601,2.8538,2.8678,2.8631,2.847,2.847,2.8351,2.8117,2.7809,2.7777,2.7876,2.811,2.8524,2.8752,2.8442,2.8628,2.8731,2.8421,2.7986,2.7696,2.7696,2.7303,2.7143,2.7289,2.6625,2.6289,2.6812,2.5834,2.5357,2.5668,2.5065,2.4691,2.4561,2.4374,2.4249,2.4057,2.397,2.3841,2.3711,2.3057,2.2515,2.2081,2.1648,2.1155,0.0,0.0,0.0,2.0699,2.1093,2.1747,2.2869,2.4047,2.5227,2.6379,2.753,2.8525,2.9127,2.9666,3.0205,3.0817,3.1418,3.1588,3.1052,3.0973,3.0973,3.0973,3.0973,3.0973,3.0973,3.0973,3.0973,3.0973,3.0973,3.0973,3.0947,2.9876,2.8726,2.7542,2.749,2.749,2.749,2.8072,2.8394,2.842,2.8996,2.9562,3.0074,3.01,3.0424,3.0947,3.0973,3.0973,3.0999,3.0811,3.0698,3.0801,3.194,3.2286,3.2294,3.3633,3.3937,3.3725,3.3725,3.3725,3.3725,3.3725,3.3725,3.3725,3.3725,3.3061,3.2127,3.127,3.026,2.9257,2.8326,2.8724,2.9372,2.9372,2.9372,2.9143,2.8211,2.7809,2.7547,2.7357,2.7662,2.7924,2.7903,2.7924,2.7924,2.7903,2.7531,2.7309,2.7309,2.6915,2.6812,2.7247,2.6895,2.6791,2.7247,2.6853,2.6584,2.6584,2.5709,2.5189,2.5168,2.4735,2.4507,2.4507,2.4292,2.4206,2.4206,2.3545,2.2955,2.2472,2.207,2.1549,2.0491,0.0,0.0,0.0,0.0,0.0,2.1223,2.1956,2.2792,2.3942,2.5432,2.6713,2.7321,2.7863,2.8404,2.9013,3.0294,3.1156,3.0999,3.0973,3.0973,3.0973,3.0973,3.0973,3.0973,3.0973,3.0973,0.0,3.0973,3.0817,3.0361,2.9274,2.8307,2.7516,2.749,2.749,2.749,2.7646,2.7968,2.842,2.8577,2.8935,2.9536,2.9918,3.0179,3.0361,3.0817,3.0973,3.0973,3.0962,3.0924,3.1029,3.2176,3.2579,3.267,3.369,3.4147,3.4189,3.4021,3.3979,3.3979,3.3979,3.3979,3.3979,3.3979,3.3445,3.2939,3.3626,3.2759,3.1431,3.0443,2.9673,2.9136,2.8998,2.8839,2.8606,2.8348,2.8254,2.8113,2.7857,2.819,2.8353,2.8015,2.8103,2.8063,2.7729,2.7488,2.7309,2.7309,2.7206,2.7164,2.7289,2.6895,2.6667,2.6791,2.6376,2.5937,2.5627,2.5334,2.5044,2.4714,2.4569,2.4507,2.4507,2.4464,2.4421,2.4421,2.3588,2.2955,2.2472,2.1748,2.1287,2.1485,2.1407,2.1407,2.1407,0.0,0.0,2.0962,2.1276,2.1773,2.2688,2.3835,2.4988,2.5829,2.6425,2.7,2.7575,2.8943,2.998,3.0278,3.0268,3.0268,3.0268,3.0268,3.0268,3.0268,3.0268,3.0372,3.0607,3.0634,3.0372,2.9823,2.9118,2.8386,2.7516,2.749,2.749,2.749,2.749,2.7673,2.802,2.802,2.8333,2.8935,2.951,2.9865,3.0127,3.0738,3.0973,3.0973,3.0973,3.0973,3.1104,3.2254,3.2698,3.2829,3.3856,3.4314,3.4397,3.4272,3.423,3.423,3.423,3.423,3.423,3.423,3.3911,3.3666,3.4024,3.3121,3.2151,3.2187,3.1456,3.0583,3.0102,3.017,2.9988,2.8792,2.9187,2.9395,2.8233,2.8211,2.8317,2.804,2.8089,2.8079,2.7804,2.7668,2.7573,2.7573,2.7573,2.7526,2.7452,2.7155,2.6988,2.6895,2.6646,2.6268,2.5813,2.5606,2.5295,2.4797,2.459,2.4507,2.4507,2.4507,2.4321,2.3971,2.3657,2.3165,2.2473,2.2004,2.158,2.2686,2.2609,2.2583,2.2531,2.2139,0.0,2.1538,2.1538,2.1721,2.2139,2.2688,2.3446,2.4521,2.5197,2.5824,2.6431,2.7373,2.8289,2.9022,2.9231,2.9222,2.9118,2.9231,2.9284,2.9231,2.9284,2.9483,2.997,2.9996,2.9761,2.9231,2.9205,2.8673,2.7542,2.749,2.749,2.749,2.749,2.749,2.749,2.749,2.7785,2.8307,2.8996,2.9562,3.0048,3.0712,3.0973,3.0973,3.0973,3.0973,3.1104,3.2176,3.2646,3.2829,3.3901,3.4345,3.4397,3.4397,3.4397,3.4397,3.4397,3.4397,3.4397,3.4397,3.4397,3.423,3.3454,3.2643,3.2264,3.3545,3.3427,3.2698,3.1821,3.2234,3.2147,2.9646,3.0351,3.0866,2.8795,2.8305,2.8211,2.8092,2.8045,2.8045,2.8045,2.8045,2.7998,2.7998,2.7998,2.7904,2.7689,2.7641,2.7573,2.7404,2.7357,2.7149,2.6692,2.6231,2.5751,2.5272,2.4817,2.4569,2.4569,2.4528,2.4115,2.3267,2.3722,2.3412,2.2501,2.2542,2.2278,2.3652,2.3757,2.3626,0.0,2.3313,0.0,2.1825,2.1877,2.2008,2.1197,2.1852,2.2637,2.2871,2.3759,2.4648,2.5227,2.5515,2.6196,2.7654,2.8673,2.8935,2.7994,2.8699,2.9127,2.8629,2.9022,2.9327,2.9431,2.9457,2.9196,2.8629,2.8603,2.8255,2.7516,2.749,2.749,2.749,2.749,2.749,2.749,2.749,2.7542,2.7699,2.8804,2.9388,2.951,3.0529,3.0973,3.0973,3.0973,3.0973,3.1052,3.1693,3.228,3.2777,3.3483,3.4031,3.4397,3.4397,3.4397,3.4397,3.4397,3.4397,3.4397,3.4397,3.4397,3.446,3.476,3.4463,3.4005,3.3947,3.3173,3.2285,3.1717,3.1753,3.1709,3.1178,3.0732,3.0553,3.0866,3.0283,2.9532,2.8792,2.8466,2.8301,2.8301,2.8139,2.7998,2.7998,2.7998,2.7998,2.7951,2.7904,2.7904,2.7857,2.7689,2.7338,2.6945,2.6635,2.6227,2.5771,2.5337,2.5044,2.5044,2.4693,2.4281,2.3743,2.3867,2.3412,2.2501,2.2873,2.2998,0.0,0.0,0.0,2.423,0.0,0.0,0.0,2.2374,2.2322,2.2008,2.2192,2.2557,2.3158,2.3469,2.3864,2.4439,2.4809,2.5201,2.5715,2.6817,2.734,2.6707,2.721,2.7445,2.7131,2.7628,2.8263,2.8813,2.9153,2.9048,2.8446,2.842,2.8124,2.7516,2.749,2.749,2.749,2.749,2.749,2.749,2.749,2.749,2.7516,2.8438,2.9022,2.9362,3.0189,3.0712,3.0973,3.0973,3.0973,3.1052,3.1588,3.2163,3.2751,3.3378,3.3927,3.4397,3.4397,3.4397,3.4397,3.4397,3.4397,3.4397,3.4397,3.4397,3.4528,3.5129,3.4917,3.4528,3.4571,3.3994,3.3146,3.2481,3.2667,3.271,3.1797,3.1972,3.2147,3.1709,3.1621,3.1134,2.9738,2.9024,2.8628,2.8628,2.8466,2.842,2.842,2.842,2.8326,2.8186,2.8186,2.8139,2.7998,2.7857,2.7619,2.72,2.702,2.6764,2.6322,2.5957,2.5594,2.5189,2.4735,2.428,2.3929,2.4095,2.3743,2.2853,2.3308,2.3412,0.0,0.0,0.0,0.0,0.0,2.4831,0.0,0.0,0.0,2.3182,0.0,0.0,0.0,0.0,0.0,2.3861,0.0,0.0,0.0,2.4801,0.0,2.5454,2.5662,2.5741,2.5667,2.6269,2.7085,2.8028,2.8595,2.8673,2.8106,2.815,2.7994,2.7516,2.749,2.749,2.749,2.749,2.749,2.749,2.749,2.749,2.7516,2.8124,2.8734,2.9301,2.9876,3.0451,3.0973,3.0973,3.0973,3.1026,3.1496,3.2097,3.2751,3.3247,3.3822,3.4397,3.4397,3.4397,3.4397,3.4397,3.4397,3.4397,3.4397,3.4397,3.4502,3.4999,3.4763,3.4502,3.4999,3.4763,3.423,3.342,3.3869,3.3995,3.2451,3.3207,3.3742,3.2407,3.2451,3.219,3.0486,2.9738,2.9187,2.8839,2.8932,2.9024,2.8792,2.8792,2.8721,2.8488,2.8488,2.8395,2.8186,2.8092,2.7921,2.7537,2.7469,2.732,2.6958,2.6671,2.6172,2.5511,2.5032,2.4616,2.4304,2.449,2.4157,2.3329,2.3784,2.3805,0.0,0.0,0.0,0.0,2.7968,0.0,0.0,0.0,2.4984,2.3496,0.0,0.0,0.0,0.0,0.0,0.0,0.0,0.0,2.3365,2.3861,2.4279,2.4279,2.5166,2.5615,2.5149,2.6065,2.6745,2.6876,2.7392,2.7471,2.6928,2.734,2.7568,2.749,2.749,2.749,2.749,2.749,2.749,2.749,2.749,2.749,2.7516,2.8124,2.8734,2.9301,2.9876,3.0451,3.0973,3.0973,3.0973,3.0999,3.1052,3.1731,3.2698,3.2777,3.3483,3.4397,3.4397,3.4397,3.4397,3.4397,3.4397,3.4397,3.4397,3.4397,3.4424,3.4476,3.445,3.4424,3.4476,3.445,3.4356,3.4272,3.4314,3.4356,3.4121,3.3615,3.3335,3.3953,3.2821,3.1444,3.0396,3.0777,3.0732,2.9071,2.9509,2.9738,2.8885,2.8792,2.8792,2.8746,2.8746,2.8746,2.8699,2.8488,2.8326,2.8262,2.8053,2.7891,2.7849,2.7423,2.6952,2.6528,2.5995,2.572,2.5656,2.5125,2.4493,2.3805,2.426,2.4404,0.0,0.0,0.0,0.0,0.0,0.0,2.6353,0.0,2.5688,0.0,0.0,0.0,0.0,0.0,0.0,0.0,2.4151,0.0,0.0,0.0,2.4096,2.4096,0.0,0.0,2.4992,2.5437,2.5855,2.6164,2.6399,2.6425,2.619,2.6713,2.7027,2.7027,2.7333,2.749,2.749,2.749,2.749,2.749,2.749,2.749,2.7516,2.8124,2.8734,2.9301,2.9876,3.0451,3.0973,3.0973,3.0973,3.0973,3.0973,3.147,3.2228,3.2568,3.3221,3.3979,3.4293,3.4397,3.4397,3.4397,3.4397,3.4397,3.4397,3.4397,3.4397,3.4397,3.4397,3.4397,3.4397,3.4397,3.4397,3.4397,3.4397,3.4397,3.4397,3.4079,3.3911,3.4314,3.3784,3.295,3.1972,3.1223,3.0531,2.9738,2.9943,2.9852,2.8932,2.9301,2.9417,2.8839,2.8792,2.8792,2.8792,2.8721,2.8628,2.8628,2.8513,2.8373,2.8254,2.7782,2.7265,2.6636,2.6147,2.5764,2.5487,2.5211,2.4935,2.464,2.4532,2.4507,2.9431,0.0,0.0,0.0,0.0,0.0,0.0,0.0,0.0,0.0,0.0,0.0,0.0,0.0,0.0,2.4809,0.0,2.423,0.0,2.4021,0.0,0.0,0.0,0.0,0.0,2.4992,2.5175,2.5563,2.5715,2.5715,2.5589,2.6138,2.6536,2.6693,2.7079,2.7333,2.749,2.749,2.749,2.749,2.749,2.749,2.7516,2.8124,2.8734,2.9301,2.9876,3.0451,3.0973,3.0973,3.0973,3.0973,3.0973,3.1235,3.1641,3.2254,3.2934,3.3639,3.4031,3.4267,3.4397,3.4397,3.4397,3.4397,3.4397,3.4397,3.4397,3.4397,3.4397,3.4397,3.4397,3.4397,3.4397,3.4397,3.4397,3.4397,3.4397,3.4397,3.4397,3.4397,3.4397,3.4163,3.3505,3.2234,3.1089,3.0306,3.0441,3.017,2.8932,2.9371,2.9555,2.8885,2.8792,2.8792,2.8792,2.8792,2.8792,2.8792,2.8792,2.8721,2.8535,2.8188,2.775,2.7224,2.6708,2.6301,2.5958,2.5658,2.5488,2.5488,2.4934,2.4658,0.0,0.0,0.0,2.9572,0.0,0.0,0.0,0.0,2.7281,0.0,0.0,0.0,0.0,0.0,2.5401,2.4305,2.4596,0.0,0.0,0.0,0.0,0.0,0.0,0.0,0.0,2.4992,2.5018,0.0,2.5511,2.5589,2.5044,2.5537,2.6112,2.6693,2.6719,2.6974,2.749,2.749,2.749,2.749,2.749,2.749,2.7516,2.8124,2.8734,2.9301,2.9876,3.0451,3.0973,3.0973,3.0973,3.0973,3.0973,3.0999,3.1078,3.1615,3.2594,3.3587,3.3613,3.3953,3.4397,3.4397,3.4397,3.4397,3.4397,3.4397,3.4397,3.4397,3.4397,3.4397,3.4397,3.4397,3.4397,3.4397,3.4397,3.4397,3.4397,3.4397,3.4397,3.4397,3.4397,3.4397,3.4356,3.4314,3.3335,3.0621,3.0956,3.0866,2.9024,2.8839,2.8839,2.8792,2.8792,2.8792,2.8792,2.8792,2.8792,2.8792,2.8792,2.8792,2.8792,2.8792,2.8771,2.8702,2.8198,2.7936,2.7936,2.6779,2.626,2.626,2.5509,2.5084,0.0,0.0,3.079,3.0032,0.0,0.0,0.0,0.0,0.0,0.0,0.0,0.0,0.0,0.0,2.6654,2.5929,2.5358,2.4861,0.0,0.0,0.0,0.0,0.0,0.0,0.0,0.0,0.0,0.0,2.457,2.4622,2.4413,2.4962,2.5511,2.6086,2.6478,2.6948,2.749,2.749,2.749,2.749,2.749,2.749,2.7516,2.8543,2.9127,2.9362,3.0294,3.0817,3.0973,3.0973,3.0973,3.0973,3.0973,3.0973,3.1052,3.1588,3.2293,3.3117,3.3875,3.4241,3.4397,3.4397,3.4397,3.4397,3.4397,3.4397,3.4397,3.4397,3.4397,3.4397,3.4397,3.4397,3.4397,3.4397,3.4397,3.4397,3.4397,3.4397,3.4397,3.4397,3.4711,3.4868,3.4476,3.4737,3.4332,3.2326,3.2321,3.2059,3.0822,3.0643,3.0441,2.9761,2.9163,2.8792,2.8792,2.8792,2.8792,2.8792,2.8792,2.8792,2.8792,2.8792,2.8661,2.8287,2.8089,2.7827,2.7566,2.7151,2.6954,2.6933,2.639,2.5765,3.0686,3.0973,0.0,3.0283,3.0257,0.0,2.8961,0.0,2.9839,0.0,0.0,0.0,0.0,0.0,2.7497,2.653,2.5746,2.5118,0.0,2.436,0.0,0.0,0.0,0.0,0.0,0.0,2.4096,2.4096,2.4096,2.4096,0.0,2.4465,2.5014,2.5767,2.619,2.6739,2.749,2.749,2.749,2.749,2.749,2.749,2.7542,2.8752,2.931,2.9388,3.0503,3.0973,3.0973,3.0973,3.0973,3.0973,3.0973,3.1104,3.1339,3.1667,3.2333,3.3143,3.4084,3.4397,3.4397,3.4397,3.4397,3.4397,3.4397,3.4397,3.4397,3.4397,3.4397,3.4397,3.4397,3.4397,3.4397,3.4397,3.4397,3.4397,3.4397,3.4397,3.445,3.4685,3.5025,3.5234,3.5025,3.5338,3.4986,3.3265,3.2993,3.2667,3.1709,3.1621,3.1356,3.0732,2.9852,2.9163,2.8839,2.8792,2.8792,2.8792,2.8792,2.8792,2.8792,2.8792,2.8661,2.8309,2.8287,2.8134,2.7829,2.7654,2.7566,2.7522,2.6889,2.6281]}]]